<?xml version="1.0" encoding="UTF-8" standalone="no" ?>
<gpx xmlns="http://www.topografix.com/GPX/1/1" xmlns:xsi="http://www.w3.org/2001/XMLSchema-instance" xsi:schemaLocation="http://www.topografix.com/GPX/1/1 http://www.topografix.com/GPX/1/1/gpx.xsd" version="1.1" creator="VisuGPX - https://www.visugpx.com">
  <metadata>
    <name>Balade de 14km à Picauville </name>
  </metadata>
  <trk>
    <name><![CDATA[Balade de 14km à Picauville _1]]></name>
    <trkseg>
      <trkpt lat="49.37877" lon="-1.42103">
        <ele>20.5</ele>
        <time>2022-01-29T13:09:09Z</time>
      </trkpt>
      <trkpt lat="49.37879" lon="-1.42097">
        <ele>27</ele>
        <time>2022-01-29T13:09:11Z</time>
      </trkpt>
      <trkpt lat="49.37877" lon="-1.42104">
        <ele>21.5</ele>
        <time>2022-01-29T13:09:48Z</time>
      </trkpt>
      <trkpt lat="49.37871" lon="-1.42106">
        <ele>21.3</ele>
        <time>2022-01-29T13:09:53Z</time>
      </trkpt>
      <trkpt lat="49.37866" lon="-1.42105">
        <ele>20.9</ele>
        <time>2022-01-29T13:09:57Z</time>
      </trkpt>
      <trkpt lat="49.37861" lon="-1.42104">
        <ele>19.8</ele>
        <time>2022-01-29T13:10:02Z</time>
      </trkpt>
      <trkpt lat="49.37856" lon="-1.42103">
        <ele>18.7</ele>
        <time>2022-01-29T13:10:07Z</time>
      </trkpt>
      <trkpt lat="49.37851" lon="-1.42103">
        <ele>18.3</ele>
        <time>2022-01-29T13:10:10Z</time>
      </trkpt>
      <trkpt lat="49.37846" lon="-1.42103">
        <ele>17.6</ele>
        <time>2022-01-29T13:10:13Z</time>
      </trkpt>
      <trkpt lat="49.37841" lon="-1.42105">
        <ele>16.6</ele>
        <time>2022-01-29T13:10:17Z</time>
      </trkpt>
      <trkpt lat="49.37836" lon="-1.42108">
        <ele>15.8</ele>
        <time>2022-01-29T13:10:21Z</time>
      </trkpt>
      <trkpt lat="49.37833" lon="-1.42113">
        <ele>15.6</ele>
        <time>2022-01-29T13:10:24Z</time>
      </trkpt>
      <trkpt lat="49.37828" lon="-1.42114">
        <ele>15.6</ele>
        <time>2022-01-29T13:10:29Z</time>
      </trkpt>
      <trkpt lat="49.37822" lon="-1.42118">
        <ele>15.6</ele>
        <time>2022-01-29T13:10:33Z</time>
      </trkpt>
      <trkpt lat="49.3782" lon="-1.4211">
        <ele>15.2</ele>
        <time>2022-01-29T13:10:46Z</time>
      </trkpt>
      <trkpt lat="49.37816" lon="-1.42103">
        <ele>14.9</ele>
        <time>2022-01-29T13:10:49Z</time>
      </trkpt>
      <trkpt lat="49.37811" lon="-1.42098">
        <ele>14.4</ele>
        <time>2022-01-29T13:10:53Z</time>
      </trkpt>
      <trkpt lat="49.37809" lon="-1.42092">
        <ele>13.9</ele>
        <time>2022-01-29T13:10:56Z</time>
      </trkpt>
      <trkpt lat="49.37805" lon="-1.42087">
        <ele>13.4</ele>
        <time>2022-01-29T13:10:59Z</time>
      </trkpt>
      <trkpt lat="49.37801" lon="-1.42084">
        <ele>13.4</ele>
        <time>2022-01-29T13:11:03Z</time>
      </trkpt>
      <trkpt lat="49.37796" lon="-1.42079">
        <ele>13</ele>
        <time>2022-01-29T13:11:14Z</time>
      </trkpt>
      <trkpt lat="49.37792" lon="-1.42075">
        <ele>12.7</ele>
        <time>2022-01-29T13:11:19Z</time>
      </trkpt>
      <trkpt lat="49.37787" lon="-1.42071">
        <ele>12.2</ele>
        <time>2022-01-29T13:11:23Z</time>
      </trkpt>
      <trkpt lat="49.37782" lon="-1.42068">
        <ele>11.6</ele>
        <time>2022-01-29T13:11:26Z</time>
      </trkpt>
      <trkpt lat="49.37776" lon="-1.42067">
        <ele>10.6</ele>
        <time>2022-01-29T13:11:29Z</time>
      </trkpt>
      <trkpt lat="49.37771" lon="-1.42065">
        <ele>9.9</ele>
        <time>2022-01-29T13:11:32Z</time>
      </trkpt>
      <trkpt lat="49.37765" lon="-1.42062">
        <ele>9.6</ele>
        <time>2022-01-29T13:11:36Z</time>
      </trkpt>
      <trkpt lat="49.37761" lon="-1.42058">
        <ele>8.8</ele>
        <time>2022-01-29T13:11:40Z</time>
      </trkpt>
      <trkpt lat="49.37756" lon="-1.42054">
        <ele>8.1</ele>
        <time>2022-01-29T13:11:44Z</time>
      </trkpt>
      <trkpt lat="49.37751" lon="-1.42051">
        <ele>7.8</ele>
        <time>2022-01-29T13:11:47Z</time>
      </trkpt>
      <trkpt lat="49.37746" lon="-1.42048">
        <ele>8.1</ele>
        <time>2022-01-29T13:11:52Z</time>
      </trkpt>
      <trkpt lat="49.37741" lon="-1.42043">
        <ele>8.4</ele>
        <time>2022-01-29T13:11:55Z</time>
      </trkpt>
      <trkpt lat="49.37737" lon="-1.42041">
        <ele>8.6</ele>
        <time>2022-01-29T13:11:59Z</time>
      </trkpt>
      <trkpt lat="49.37732" lon="-1.42042">
        <ele>8.1</ele>
        <time>2022-01-29T13:12:05Z</time>
      </trkpt>
      <trkpt lat="49.37727" lon="-1.42041">
        <ele>7.5</ele>
        <time>2022-01-29T13:12:08Z</time>
      </trkpt>
      <trkpt lat="49.37721" lon="-1.42041">
        <ele>7.2</ele>
        <time>2022-01-29T13:12:11Z</time>
      </trkpt>
      <trkpt lat="49.37715" lon="-1.42041">
        <ele>7.3</ele>
        <time>2022-01-29T13:12:15Z</time>
      </trkpt>
      <trkpt lat="49.3771" lon="-1.42039">
        <ele>7.9</ele>
        <time>2022-01-29T13:12:18Z</time>
      </trkpt>
      <trkpt lat="49.37705" lon="-1.42038">
        <ele>8.3</ele>
        <time>2022-01-29T13:12:22Z</time>
      </trkpt>
      <trkpt lat="49.377" lon="-1.42038">
        <ele>8.6</ele>
        <time>2022-01-29T13:12:25Z</time>
      </trkpt>
      <trkpt lat="49.37695" lon="-1.42037">
        <ele>9.1</ele>
        <time>2022-01-29T13:12:29Z</time>
      </trkpt>
      <trkpt lat="49.3769" lon="-1.42035">
        <ele>9.5</ele>
        <time>2022-01-29T13:12:33Z</time>
      </trkpt>
      <trkpt lat="49.37683" lon="-1.42032">
        <ele>9.1</ele>
        <time>2022-01-29T13:12:38Z</time>
      </trkpt>
      <trkpt lat="49.37683" lon="-1.42024">
        <ele>6.3</ele>
        <time>2022-01-29T13:12:52Z</time>
      </trkpt>
      <trkpt lat="49.37682" lon="-1.42016">
        <ele>6.2</ele>
        <time>2022-01-29T13:12:55Z</time>
      </trkpt>
      <trkpt lat="49.37682" lon="-1.42008">
        <ele>6.2</ele>
        <time>2022-01-29T13:12:59Z</time>
      </trkpt>
      <trkpt lat="49.37681" lon="-1.41999">
        <ele>6.1</ele>
        <time>2022-01-29T13:13:03Z</time>
      </trkpt>
      <trkpt lat="49.37682" lon="-1.41993">
        <ele>5.7</ele>
        <time>2022-01-29T13:13:09Z</time>
      </trkpt>
      <trkpt lat="49.37681" lon="-1.41986">
        <ele>5.5</ele>
        <time>2022-01-29T13:13:14Z</time>
      </trkpt>
      <trkpt lat="49.37679" lon="-1.41978">
        <ele>5.4</ele>
        <time>2022-01-29T13:13:18Z</time>
      </trkpt>
      <trkpt lat="49.37678" lon="-1.41968">
        <ele>5.3</ele>
        <time>2022-01-29T13:13:23Z</time>
      </trkpt>
      <trkpt lat="49.37677" lon="-1.4196">
        <ele>5.3</ele>
        <time>2022-01-29T13:13:27Z</time>
      </trkpt>
      <trkpt lat="49.37676" lon="-1.41953">
        <ele>5.2</ele>
        <time>2022-01-29T13:13:31Z</time>
      </trkpt>
      <trkpt lat="49.37675" lon="-1.41945">
        <ele>5.2</ele>
        <time>2022-01-29T13:13:35Z</time>
      </trkpt>
      <trkpt lat="49.37674" lon="-1.41937">
        <ele>5.2</ele>
        <time>2022-01-29T13:13:39Z</time>
      </trkpt>
      <trkpt lat="49.37674" lon="-1.41928">
        <ele>5</ele>
        <time>2022-01-29T13:13:44Z</time>
      </trkpt>
      <trkpt lat="49.37672" lon="-1.41918">
        <ele>4.7</ele>
        <time>2022-01-29T13:13:49Z</time>
      </trkpt>
      <trkpt lat="49.37671" lon="-1.4191">
        <ele>4.6</ele>
        <time>2022-01-29T13:13:53Z</time>
      </trkpt>
      <trkpt lat="49.3767" lon="-1.41902">
        <ele>4.7</ele>
        <time>2022-01-29T13:13:57Z</time>
      </trkpt>
      <trkpt lat="49.37669" lon="-1.41893">
        <ele>4.6</ele>
        <time>2022-01-29T13:14:01Z</time>
      </trkpt>
      <trkpt lat="49.37668" lon="-1.41885">
        <ele>4.5</ele>
        <time>2022-01-29T13:14:06Z</time>
      </trkpt>
      <trkpt lat="49.37667" lon="-1.41876">
        <ele>4.4</ele>
        <time>2022-01-29T13:14:10Z</time>
      </trkpt>
      <trkpt lat="49.37666" lon="-1.41869">
        <ele>4.3</ele>
        <time>2022-01-29T13:14:14Z</time>
      </trkpt>
      <trkpt lat="49.37664" lon="-1.41862">
        <ele>4.3</ele>
        <time>2022-01-29T13:14:18Z</time>
      </trkpt>
      <trkpt lat="49.37662" lon="-1.41853">
        <ele>4.4</ele>
        <time>2022-01-29T13:14:22Z</time>
      </trkpt>
      <trkpt lat="49.37661" lon="-1.41845">
        <ele>4.4</ele>
        <time>2022-01-29T13:14:27Z</time>
      </trkpt>
      <trkpt lat="49.37659" lon="-1.41837">
        <ele>4.5</ele>
        <time>2022-01-29T13:14:31Z</time>
      </trkpt>
      <trkpt lat="49.37657" lon="-1.4183">
        <ele>4.5</ele>
        <time>2022-01-29T13:14:35Z</time>
      </trkpt>
      <trkpt lat="49.37654" lon="-1.41824">
        <ele>4.5</ele>
        <time>2022-01-29T13:14:39Z</time>
      </trkpt>
      <trkpt lat="49.37651" lon="-1.41817">
        <ele>4.7</ele>
        <time>2022-01-29T13:14:43Z</time>
      </trkpt>
      <trkpt lat="49.37647" lon="-1.41808">
        <ele>5.1</ele>
        <time>2022-01-29T13:14:49Z</time>
      </trkpt>
      <trkpt lat="49.37642" lon="-1.41801">
        <ele>5.5</ele>
        <time>2022-01-29T13:14:54Z</time>
      </trkpt>
      <trkpt lat="49.37636" lon="-1.41795">
        <ele>6</ele>
        <time>2022-01-29T13:14:59Z</time>
      </trkpt>
      <trkpt lat="49.37632" lon="-1.4179">
        <ele>6.2</ele>
        <time>2022-01-29T13:15:03Z</time>
      </trkpt>
      <trkpt lat="49.37628" lon="-1.41784">
        <ele>6.1</ele>
        <time>2022-01-29T13:15:08Z</time>
      </trkpt>
      <trkpt lat="49.37625" lon="-1.41778">
        <ele>5.7</ele>
        <time>2022-01-29T13:15:12Z</time>
      </trkpt>
      <trkpt lat="49.37621" lon="-1.41774">
        <ele>5.2</ele>
        <time>2022-01-29T13:15:16Z</time>
      </trkpt>
      <trkpt lat="49.37616" lon="-1.4177">
        <ele>4.9</ele>
        <time>2022-01-29T13:15:20Z</time>
      </trkpt>
      <trkpt lat="49.37611" lon="-1.41765">
        <ele>5.1</ele>
        <time>2022-01-29T13:15:24Z</time>
      </trkpt>
      <trkpt lat="49.37606" lon="-1.41761">
        <ele>5.2</ele>
        <time>2022-01-29T13:15:28Z</time>
      </trkpt>
      <trkpt lat="49.37602" lon="-1.41757">
        <ele>5.1</ele>
        <time>2022-01-29T13:15:31Z</time>
      </trkpt>
      <trkpt lat="49.37597" lon="-1.41754">
        <ele>5</ele>
        <time>2022-01-29T13:15:35Z</time>
      </trkpt>
      <trkpt lat="49.37592" lon="-1.41751">
        <ele>5</ele>
        <time>2022-01-29T13:15:39Z</time>
      </trkpt>
      <trkpt lat="49.37587" lon="-1.4175">
        <ele>5</ele>
        <time>2022-01-29T13:15:43Z</time>
      </trkpt>
      <trkpt lat="49.37583" lon="-1.41747">
        <ele>4.9</ele>
        <time>2022-01-29T13:15:46Z</time>
      </trkpt>
      <trkpt lat="49.37578" lon="-1.41743">
        <ele>4.9</ele>
        <time>2022-01-29T13:15:50Z</time>
      </trkpt>
      <trkpt lat="49.37573" lon="-1.41742">
        <ele>4.8</ele>
        <time>2022-01-29T13:15:53Z</time>
      </trkpt>
      <trkpt lat="49.37568" lon="-1.41739">
        <ele>4.8</ele>
        <time>2022-01-29T13:15:57Z</time>
      </trkpt>
      <trkpt lat="49.37564" lon="-1.41737">
        <ele>4.8</ele>
        <time>2022-01-29T13:16:00Z</time>
      </trkpt>
      <trkpt lat="49.37559" lon="-1.41735">
        <ele>5</ele>
        <time>2022-01-29T13:16:04Z</time>
      </trkpt>
      <trkpt lat="49.37555" lon="-1.41732">
        <ele>5.2</ele>
        <time>2022-01-29T13:16:08Z</time>
      </trkpt>
      <trkpt lat="49.3755" lon="-1.4173">
        <ele>5.2</ele>
        <time>2022-01-29T13:16:12Z</time>
      </trkpt>
      <trkpt lat="49.37544" lon="-1.41729">
        <ele>5.1</ele>
        <time>2022-01-29T13:16:17Z</time>
      </trkpt>
      <trkpt lat="49.37539" lon="-1.41727">
        <ele>5</ele>
        <time>2022-01-29T13:16:21Z</time>
      </trkpt>
      <trkpt lat="49.37534" lon="-1.41725">
        <ele>5.2</ele>
        <time>2022-01-29T13:16:25Z</time>
      </trkpt>
      <trkpt lat="49.37528" lon="-1.41722">
        <ele>5.3</ele>
        <time>2022-01-29T13:16:28Z</time>
      </trkpt>
      <trkpt lat="49.37524" lon="-1.41719">
        <ele>5.4</ele>
        <time>2022-01-29T13:16:32Z</time>
      </trkpt>
      <trkpt lat="49.37519" lon="-1.41715">
        <ele>5.5</ele>
        <time>2022-01-29T13:16:36Z</time>
      </trkpt>
      <trkpt lat="49.37515" lon="-1.41713">
        <ele>5.3</ele>
        <time>2022-01-29T13:16:39Z</time>
      </trkpt>
      <trkpt lat="49.3751" lon="-1.41711">
        <ele>5</ele>
        <time>2022-01-29T13:16:43Z</time>
      </trkpt>
      <trkpt lat="49.37504" lon="-1.41708">
        <ele>4.8</ele>
        <time>2022-01-29T13:16:47Z</time>
      </trkpt>
      <trkpt lat="49.37499" lon="-1.41705">
        <ele>4.6</ele>
        <time>2022-01-29T13:16:52Z</time>
      </trkpt>
      <trkpt lat="49.37494" lon="-1.41703">
        <ele>4.6</ele>
        <time>2022-01-29T13:16:55Z</time>
      </trkpt>
      <trkpt lat="49.37489" lon="-1.417">
        <ele>4.6</ele>
        <time>2022-01-29T13:16:59Z</time>
      </trkpt>
      <trkpt lat="49.37485" lon="-1.41697">
        <ele>4.8</ele>
        <time>2022-01-29T13:17:02Z</time>
      </trkpt>
      <trkpt lat="49.3748" lon="-1.41694">
        <ele>4.7</ele>
        <time>2022-01-29T13:17:06Z</time>
      </trkpt>
      <trkpt lat="49.37475" lon="-1.4169">
        <ele>4.7</ele>
        <time>2022-01-29T13:17:10Z</time>
      </trkpt>
      <trkpt lat="49.37471" lon="-1.41686">
        <ele>4.5</ele>
        <time>2022-01-29T13:17:13Z</time>
      </trkpt>
      <trkpt lat="49.37465" lon="-1.41683">
        <ele>4.6</ele>
        <time>2022-01-29T13:17:18Z</time>
      </trkpt>
      <trkpt lat="49.37459" lon="-1.41679">
        <ele>4.6</ele>
        <time>2022-01-29T13:17:23Z</time>
      </trkpt>
      <trkpt lat="49.37453" lon="-1.41674">
        <ele>4.4</ele>
        <time>2022-01-29T13:17:28Z</time>
      </trkpt>
      <trkpt lat="49.37448" lon="-1.4167">
        <ele>4.3</ele>
        <time>2022-01-29T13:17:32Z</time>
      </trkpt>
      <trkpt lat="49.37444" lon="-1.41667">
        <ele>4.3</ele>
        <time>2022-01-29T13:17:36Z</time>
      </trkpt>
      <trkpt lat="49.37439" lon="-1.41664">
        <ele>4.3</ele>
        <time>2022-01-29T13:17:39Z</time>
      </trkpt>
      <trkpt lat="49.37433" lon="-1.41661">
        <ele>4.2</ele>
        <time>2022-01-29T13:17:44Z</time>
      </trkpt>
      <trkpt lat="49.37429" lon="-1.41659">
        <ele>4.3</ele>
        <time>2022-01-29T13:17:47Z</time>
      </trkpt>
      <trkpt lat="49.37424" lon="-1.41656">
        <ele>4.5</ele>
        <time>2022-01-29T13:17:51Z</time>
      </trkpt>
      <trkpt lat="49.3742" lon="-1.41654">
        <ele>4.5</ele>
        <time>2022-01-29T13:17:55Z</time>
      </trkpt>
      <trkpt lat="49.37415" lon="-1.41652">
        <ele>4.7</ele>
        <time>2022-01-29T13:17:59Z</time>
      </trkpt>
      <trkpt lat="49.37409" lon="-1.4165">
        <ele>5</ele>
        <time>2022-01-29T13:18:03Z</time>
      </trkpt>
      <trkpt lat="49.37405" lon="-1.41645">
        <ele>5.4</ele>
        <time>2022-01-29T13:18:07Z</time>
      </trkpt>
      <trkpt lat="49.37402" lon="-1.4164">
        <ele>5.5</ele>
        <time>2022-01-29T13:18:10Z</time>
      </trkpt>
      <trkpt lat="49.374" lon="-1.41634">
        <ele>5.5</ele>
        <time>2022-01-29T13:18:14Z</time>
      </trkpt>
      <trkpt lat="49.37396" lon="-1.41626">
        <ele>5.3</ele>
        <time>2022-01-29T13:18:19Z</time>
      </trkpt>
      <trkpt lat="49.37392" lon="-1.41619">
        <ele>5.1</ele>
        <time>2022-01-29T13:18:23Z</time>
      </trkpt>
      <trkpt lat="49.37389" lon="-1.41614">
        <ele>5.1</ele>
        <time>2022-01-29T13:18:28Z</time>
      </trkpt>
      <trkpt lat="49.37385" lon="-1.41608">
        <ele>5</ele>
        <time>2022-01-29T13:18:32Z</time>
      </trkpt>
      <trkpt lat="49.37382" lon="-1.41603">
        <ele>5</ele>
        <time>2022-01-29T13:18:36Z</time>
      </trkpt>
      <trkpt lat="49.37378" lon="-1.41597">
        <ele>4.9</ele>
        <time>2022-01-29T13:18:40Z</time>
      </trkpt>
      <trkpt lat="49.37374" lon="-1.41592">
        <ele>4.8</ele>
        <time>2022-01-29T13:18:44Z</time>
      </trkpt>
      <trkpt lat="49.3737" lon="-1.41585">
        <ele>4.7</ele>
        <time>2022-01-29T13:18:48Z</time>
      </trkpt>
      <trkpt lat="49.37368" lon="-1.41576">
        <ele>4.7</ele>
        <time>2022-01-29T13:18:53Z</time>
      </trkpt>
      <trkpt lat="49.37366" lon="-1.41568">
        <ele>4.7</ele>
        <time>2022-01-29T13:18:58Z</time>
      </trkpt>
      <trkpt lat="49.37364" lon="-1.41561">
        <ele>4.6</ele>
        <time>2022-01-29T13:19:03Z</time>
      </trkpt>
      <trkpt lat="49.37365" lon="-1.41554">
        <ele>4.4</ele>
        <time>2022-01-29T13:19:09Z</time>
      </trkpt>
      <trkpt lat="49.37362" lon="-1.41547">
        <ele>4.5</ele>
        <time>2022-01-29T13:19:14Z</time>
      </trkpt>
      <trkpt lat="49.3736" lon="-1.41538">
        <ele>4.6</ele>
        <time>2022-01-29T13:19:19Z</time>
      </trkpt>
      <trkpt lat="49.37357" lon="-1.4153">
        <ele>4.6</ele>
        <time>2022-01-29T13:19:24Z</time>
      </trkpt>
      <trkpt lat="49.37355" lon="-1.41522">
        <ele>4.6</ele>
        <time>2022-01-29T13:19:29Z</time>
      </trkpt>
      <trkpt lat="49.37353" lon="-1.41515">
        <ele>4.5</ele>
        <time>2022-01-29T13:19:33Z</time>
      </trkpt>
      <trkpt lat="49.37351" lon="-1.41507">
        <ele>4.6</ele>
        <time>2022-01-29T13:19:38Z</time>
      </trkpt>
      <trkpt lat="49.3735" lon="-1.415">
        <ele>4.6</ele>
        <time>2022-01-29T13:19:42Z</time>
      </trkpt>
      <trkpt lat="49.37347" lon="-1.41493">
        <ele>4.7</ele>
        <time>2022-01-29T13:19:47Z</time>
      </trkpt>
      <trkpt lat="49.37345" lon="-1.41487">
        <ele>4.7</ele>
        <time>2022-01-29T13:19:51Z</time>
      </trkpt>
      <trkpt lat="49.37341" lon="-1.41482">
        <ele>4.8</ele>
        <time>2022-01-29T13:19:58Z</time>
      </trkpt>
      <trkpt lat="49.37337" lon="-1.41474">
        <ele>5</ele>
        <time>2022-01-29T13:20:04Z</time>
      </trkpt>
      <trkpt lat="49.37333" lon="-1.41469">
        <ele>5.1</ele>
        <time>2022-01-29T13:20:10Z</time>
      </trkpt>
      <trkpt lat="49.37329" lon="-1.41465">
        <ele>5</ele>
        <time>2022-01-29T13:20:14Z</time>
      </trkpt>
      <trkpt lat="49.37324" lon="-1.41463">
        <ele>5.2</ele>
        <time>2022-01-29T13:20:18Z</time>
      </trkpt>
      <trkpt lat="49.37319" lon="-1.41463">
        <ele>5.3</ele>
        <time>2022-01-29T13:20:22Z</time>
      </trkpt>
      <trkpt lat="49.37313" lon="-1.41464">
        <ele>5.4</ele>
        <time>2022-01-29T13:20:26Z</time>
      </trkpt>
      <trkpt lat="49.37309" lon="-1.41462">
        <ele>5.5</ele>
        <time>2022-01-29T13:20:29Z</time>
      </trkpt>
      <trkpt lat="49.37304" lon="-1.4146">
        <ele>5.5</ele>
        <time>2022-01-29T13:20:33Z</time>
      </trkpt>
      <trkpt lat="49.373" lon="-1.41458">
        <ele>5.2</ele>
        <time>2022-01-29T13:20:37Z</time>
      </trkpt>
      <trkpt lat="49.37295" lon="-1.41457">
        <ele>4.8</ele>
        <time>2022-01-29T13:20:41Z</time>
      </trkpt>
      <trkpt lat="49.37291" lon="-1.41454">
        <ele>4.5</ele>
        <time>2022-01-29T13:20:45Z</time>
      </trkpt>
      <trkpt lat="49.37287" lon="-1.41449">
        <ele>3</ele>
        <time>2022-01-29T13:21:11Z</time>
      </trkpt>
      <trkpt lat="49.37281" lon="-1.41447">
        <ele>3.1</ele>
        <time>2022-01-29T13:21:14Z</time>
      </trkpt>
      <trkpt lat="49.37275" lon="-1.41446">
        <ele>3</ele>
        <time>2022-01-29T13:21:18Z</time>
      </trkpt>
      <trkpt lat="49.37271" lon="-1.41442">
        <ele>2.9</ele>
        <time>2022-01-29T13:21:21Z</time>
      </trkpt>
      <trkpt lat="49.37265" lon="-1.4144">
        <ele>2.8</ele>
        <time>2022-01-29T13:21:24Z</time>
      </trkpt>
      <trkpt lat="49.3726" lon="-1.41436">
        <ele>3</ele>
        <time>2022-01-29T13:21:27Z</time>
      </trkpt>
      <trkpt lat="49.37255" lon="-1.41432">
        <ele>3.1</ele>
        <time>2022-01-29T13:21:30Z</time>
      </trkpt>
      <trkpt lat="49.37251" lon="-1.41425">
        <ele>3.2</ele>
        <time>2022-01-29T13:21:34Z</time>
      </trkpt>
      <trkpt lat="49.37246" lon="-1.4142">
        <ele>3.9</ele>
        <time>2022-01-29T13:21:38Z</time>
      </trkpt>
      <trkpt lat="49.37241" lon="-1.41416">
        <ele>4.6</ele>
        <time>2022-01-29T13:21:43Z</time>
      </trkpt>
      <trkpt lat="49.37237" lon="-1.41409">
        <ele>4.9</ele>
        <time>2022-01-29T13:21:47Z</time>
      </trkpt>
      <trkpt lat="49.37234" lon="-1.41404">
        <ele>5.1</ele>
        <time>2022-01-29T13:21:50Z</time>
      </trkpt>
      <trkpt lat="49.3723" lon="-1.41397">
        <ele>5.2</ele>
        <time>2022-01-29T13:21:54Z</time>
      </trkpt>
      <trkpt lat="49.37226" lon="-1.41392">
        <ele>5.3</ele>
        <time>2022-01-29T13:21:57Z</time>
      </trkpt>
      <trkpt lat="49.37223" lon="-1.41387">
        <ele>5.6</ele>
        <time>2022-01-29T13:22:01Z</time>
      </trkpt>
      <trkpt lat="49.37218" lon="-1.41383">
        <ele>6</ele>
        <time>2022-01-29T13:22:05Z</time>
      </trkpt>
      <trkpt lat="49.37214" lon="-1.4138">
        <ele>6.2</ele>
        <time>2022-01-29T13:22:08Z</time>
      </trkpt>
      <trkpt lat="49.3721" lon="-1.41376">
        <ele>6.3</ele>
        <time>2022-01-29T13:22:12Z</time>
      </trkpt>
      <trkpt lat="49.37205" lon="-1.4137">
        <ele>6.1</ele>
        <time>2022-01-29T13:22:16Z</time>
      </trkpt>
      <trkpt lat="49.37201" lon="-1.41367">
        <ele>5.9</ele>
        <time>2022-01-29T13:22:20Z</time>
      </trkpt>
      <trkpt lat="49.37198" lon="-1.41361">
        <ele>5.8</ele>
        <time>2022-01-29T13:22:23Z</time>
      </trkpt>
      <trkpt lat="49.37194" lon="-1.41356">
        <ele>5.7</ele>
        <time>2022-01-29T13:22:26Z</time>
      </trkpt>
      <trkpt lat="49.3719" lon="-1.4135">
        <ele>5.6</ele>
        <time>2022-01-29T13:22:29Z</time>
      </trkpt>
      <trkpt lat="49.37186" lon="-1.41345">
        <ele>5.6</ele>
        <time>2022-01-29T13:22:31Z</time>
      </trkpt>
      <trkpt lat="49.37184" lon="-1.41339">
        <ele>5.6</ele>
        <time>2022-01-29T13:22:34Z</time>
      </trkpt>
      <trkpt lat="49.3718" lon="-1.41333">
        <ele>5.4</ele>
        <time>2022-01-29T13:22:37Z</time>
      </trkpt>
      <trkpt lat="49.37176" lon="-1.41327">
        <ele>5.6</ele>
        <time>2022-01-29T13:22:40Z</time>
      </trkpt>
      <trkpt lat="49.37173" lon="-1.41319">
        <ele>5.6</ele>
        <time>2022-01-29T13:22:44Z</time>
      </trkpt>
      <trkpt lat="49.37169" lon="-1.41313">
        <ele>5.7</ele>
        <time>2022-01-29T13:22:48Z</time>
      </trkpt>
      <trkpt lat="49.37165" lon="-1.41307">
        <ele>5.7</ele>
        <time>2022-01-29T13:22:52Z</time>
      </trkpt>
      <trkpt lat="49.37161" lon="-1.41301">
        <ele>5.7</ele>
        <time>2022-01-29T13:22:57Z</time>
      </trkpt>
      <trkpt lat="49.37158" lon="-1.41295">
        <ele>5.5</ele>
        <time>2022-01-29T13:23:00Z</time>
      </trkpt>
      <trkpt lat="49.37155" lon="-1.4129">
        <ele>5.2</ele>
        <time>2022-01-29T13:23:04Z</time>
      </trkpt>
      <trkpt lat="49.37152" lon="-1.41285">
        <ele>5</ele>
        <time>2022-01-29T13:23:07Z</time>
      </trkpt>
      <trkpt lat="49.37147" lon="-1.41278">
        <ele>5</ele>
        <time>2022-01-29T13:23:11Z</time>
      </trkpt>
      <trkpt lat="49.37144" lon="-1.41275">
        <ele>4.9</ele>
        <time>2022-01-29T13:23:14Z</time>
      </trkpt>
      <trkpt lat="49.3714" lon="-1.41269">
        <ele>4.8</ele>
        <time>2022-01-29T13:23:17Z</time>
      </trkpt>
      <trkpt lat="49.37134" lon="-1.41264">
        <ele>4.6</ele>
        <time>2022-01-29T13:23:20Z</time>
      </trkpt>
      <trkpt lat="49.3713" lon="-1.41259">
        <ele>4.6</ele>
        <time>2022-01-29T13:23:23Z</time>
      </trkpt>
      <trkpt lat="49.37126" lon="-1.41254">
        <ele>4.6</ele>
        <time>2022-01-29T13:23:26Z</time>
      </trkpt>
      <trkpt lat="49.37121" lon="-1.41248">
        <ele>4.6</ele>
        <time>2022-01-29T13:23:30Z</time>
      </trkpt>
      <trkpt lat="49.37117" lon="-1.41244">
        <ele>4.4</ele>
        <time>2022-01-29T13:23:33Z</time>
      </trkpt>
      <trkpt lat="49.37113" lon="-1.41241">
        <ele>4.3</ele>
        <time>2022-01-29T13:23:37Z</time>
      </trkpt>
      <trkpt lat="49.37109" lon="-1.41238">
        <ele>4.2</ele>
        <time>2022-01-29T13:23:40Z</time>
      </trkpt>
      <trkpt lat="49.37103" lon="-1.41233">
        <ele>4.2</ele>
        <time>2022-01-29T13:23:44Z</time>
      </trkpt>
      <trkpt lat="49.37098" lon="-1.4123">
        <ele>4.6</ele>
        <time>2022-01-29T13:23:47Z</time>
      </trkpt>
      <trkpt lat="49.37093" lon="-1.41227">
        <ele>5.1</ele>
        <time>2022-01-29T13:23:51Z</time>
      </trkpt>
      <trkpt lat="49.37089" lon="-1.41224">
        <ele>5.5</ele>
        <time>2022-01-29T13:23:54Z</time>
      </trkpt>
      <trkpt lat="49.37084" lon="-1.41221">
        <ele>5.7</ele>
        <time>2022-01-29T13:23:57Z</time>
      </trkpt>
      <trkpt lat="49.37079" lon="-1.41217">
        <ele>6.3</ele>
        <time>2022-01-29T13:24:00Z</time>
      </trkpt>
      <trkpt lat="49.37074" lon="-1.41214">
        <ele>6.7</ele>
        <time>2022-01-29T13:24:03Z</time>
      </trkpt>
      <trkpt lat="49.37069" lon="-1.41213">
        <ele>6.7</ele>
        <time>2022-01-29T13:24:06Z</time>
      </trkpt>
      <trkpt lat="49.37062" lon="-1.4121">
        <ele>6.1</ele>
        <time>2022-01-29T13:24:12Z</time>
      </trkpt>
      <trkpt lat="49.37057" lon="-1.41206">
        <ele>5.7</ele>
        <time>2022-01-29T13:24:19Z</time>
      </trkpt>
      <trkpt lat="49.37053" lon="-1.41202">
        <ele>5.6</ele>
        <time>2022-01-29T13:24:24Z</time>
      </trkpt>
      <trkpt lat="49.37047" lon="-1.41204">
        <ele>5.5</ele>
        <time>2022-01-29T13:24:28Z</time>
      </trkpt>
      <trkpt lat="49.37042" lon="-1.41201">
        <ele>5.3</ele>
        <time>2022-01-29T13:24:31Z</time>
      </trkpt>
      <trkpt lat="49.37038" lon="-1.41197">
        <ele>5</ele>
        <time>2022-01-29T13:24:34Z</time>
      </trkpt>
      <trkpt lat="49.37032" lon="-1.41193">
        <ele>4.8</ele>
        <time>2022-01-29T13:24:38Z</time>
      </trkpt>
      <trkpt lat="49.37012" lon="-1.4118">
        <ele>4.5</ele>
        <time>2022-01-29T13:24:51Z</time>
      </trkpt>
      <trkpt lat="49.37008" lon="-1.41179">
        <ele>5.1</ele>
        <time>2022-01-29T13:24:54Z</time>
      </trkpt>
      <trkpt lat="49.37003" lon="-1.41178">
        <ele>6.2</ele>
        <time>2022-01-29T13:24:57Z</time>
      </trkpt>
      <trkpt lat="49.36998" lon="-1.41174">
        <ele>7.1</ele>
        <time>2022-01-29T13:25:01Z</time>
      </trkpt>
      <trkpt lat="49.36993" lon="-1.41172">
        <ele>7.3</ele>
        <time>2022-01-29T13:25:04Z</time>
      </trkpt>
      <trkpt lat="49.36988" lon="-1.4117">
        <ele>7.5</ele>
        <time>2022-01-29T13:25:08Z</time>
      </trkpt>
      <trkpt lat="49.36983" lon="-1.41167">
        <ele>7.5</ele>
        <time>2022-01-29T13:25:11Z</time>
      </trkpt>
      <trkpt lat="49.36977" lon="-1.41164">
        <ele>7.5</ele>
        <time>2022-01-29T13:25:15Z</time>
      </trkpt>
      <trkpt lat="49.36972" lon="-1.41159">
        <ele>7.2</ele>
        <time>2022-01-29T13:25:18Z</time>
      </trkpt>
      <trkpt lat="49.36968" lon="-1.41154">
        <ele>7.1</ele>
        <time>2022-01-29T13:25:21Z</time>
      </trkpt>
      <trkpt lat="49.36963" lon="-1.41147">
        <ele>7.1</ele>
        <time>2022-01-29T13:25:25Z</time>
      </trkpt>
      <trkpt lat="49.3696" lon="-1.4114">
        <ele>6.9</ele>
        <time>2022-01-29T13:25:29Z</time>
      </trkpt>
      <trkpt lat="49.36956" lon="-1.41134">
        <ele>6.5</ele>
        <time>2022-01-29T13:25:33Z</time>
      </trkpt>
      <trkpt lat="49.36952" lon="-1.41129">
        <ele>6.3</ele>
        <time>2022-01-29T13:25:36Z</time>
      </trkpt>
      <trkpt lat="49.36947" lon="-1.41122">
        <ele>4.9</ele>
        <time>2022-01-29T13:26:00Z</time>
      </trkpt>
      <trkpt lat="49.36942" lon="-1.41103">
        <ele>5.2</ele>
        <time>2022-01-29T13:26:05Z</time>
      </trkpt>
      <trkpt lat="49.36939" lon="-1.41095">
        <ele>5.4</ele>
        <time>2022-01-29T13:26:07Z</time>
      </trkpt>
      <trkpt lat="49.36935" lon="-1.41086">
        <ele>5.4</ele>
        <time>2022-01-29T13:26:10Z</time>
      </trkpt>
      <trkpt lat="49.3693" lon="-1.4108">
        <ele>5.3</ele>
        <time>2022-01-29T13:26:13Z</time>
      </trkpt>
      <trkpt lat="49.36925" lon="-1.41074">
        <ele>5.3</ele>
        <time>2022-01-29T13:26:16Z</time>
      </trkpt>
      <trkpt lat="49.3692" lon="-1.4107">
        <ele>5.2</ele>
        <time>2022-01-29T13:26:20Z</time>
      </trkpt>
      <trkpt lat="49.36915" lon="-1.41067">
        <ele>5</ele>
        <time>2022-01-29T13:26:24Z</time>
      </trkpt>
      <trkpt lat="49.36911" lon="-1.41063">
        <ele>4.8</ele>
        <time>2022-01-29T13:26:28Z</time>
      </trkpt>
      <trkpt lat="49.36906" lon="-1.41061">
        <ele>4.7</ele>
        <time>2022-01-29T13:26:31Z</time>
      </trkpt>
      <trkpt lat="49.36901" lon="-1.41059">
        <ele>4.8</ele>
        <time>2022-01-29T13:26:34Z</time>
      </trkpt>
      <trkpt lat="49.36895" lon="-1.41055">
        <ele>5.1</ele>
        <time>2022-01-29T13:26:38Z</time>
      </trkpt>
      <trkpt lat="49.3689" lon="-1.41051">
        <ele>5.1</ele>
        <time>2022-01-29T13:26:42Z</time>
      </trkpt>
      <trkpt lat="49.36885" lon="-1.41049">
        <ele>5.2</ele>
        <time>2022-01-29T13:26:46Z</time>
      </trkpt>
      <trkpt lat="49.36865" lon="-1.41039">
        <ele>5</ele>
        <time>2022-01-29T13:26:59Z</time>
      </trkpt>
      <trkpt lat="49.3686" lon="-1.41035">
        <ele>4.6</ele>
        <time>2022-01-29T13:27:03Z</time>
      </trkpt>
      <trkpt lat="49.36854" lon="-1.41032">
        <ele>4.5</ele>
        <time>2022-01-29T13:27:07Z</time>
      </trkpt>
      <trkpt lat="49.3685" lon="-1.41028">
        <ele>4.5</ele>
        <time>2022-01-29T13:27:10Z</time>
      </trkpt>
      <trkpt lat="49.36846" lon="-1.41022">
        <ele>4.6</ele>
        <time>2022-01-29T13:27:14Z</time>
      </trkpt>
      <trkpt lat="49.36843" lon="-1.41015">
        <ele>4.7</ele>
        <time>2022-01-29T13:27:17Z</time>
      </trkpt>
      <trkpt lat="49.3684" lon="-1.41007">
        <ele>4.6</ele>
        <time>2022-01-29T13:27:21Z</time>
      </trkpt>
      <trkpt lat="49.36837" lon="-1.41">
        <ele>4.5</ele>
        <time>2022-01-29T13:27:25Z</time>
      </trkpt>
      <trkpt lat="49.36833" lon="-1.40994">
        <ele>4.4</ele>
        <time>2022-01-29T13:27:29Z</time>
      </trkpt>
      <trkpt lat="49.36829" lon="-1.40989">
        <ele>4.5</ele>
        <time>2022-01-29T13:27:33Z</time>
      </trkpt>
      <trkpt lat="49.36825" lon="-1.40982">
        <ele>4.4</ele>
        <time>2022-01-29T13:27:37Z</time>
      </trkpt>
      <trkpt lat="49.36821" lon="-1.40976">
        <ele>4.1</ele>
        <time>2022-01-29T13:27:40Z</time>
      </trkpt>
      <trkpt lat="49.36817" lon="-1.4097">
        <ele>3.9</ele>
        <time>2022-01-29T13:27:44Z</time>
      </trkpt>
      <trkpt lat="49.36813" lon="-1.40963">
        <ele>3.8</ele>
        <time>2022-01-29T13:27:47Z</time>
      </trkpt>
      <trkpt lat="49.36808" lon="-1.40956">
        <ele>3.8</ele>
        <time>2022-01-29T13:27:51Z</time>
      </trkpt>
      <trkpt lat="49.36804" lon="-1.4095">
        <ele>3.5</ele>
        <time>2022-01-29T13:27:54Z</time>
      </trkpt>
      <trkpt lat="49.36801" lon="-1.40944">
        <ele>3.2</ele>
        <time>2022-01-29T13:27:58Z</time>
      </trkpt>
      <trkpt lat="49.36797" lon="-1.40938">
        <ele>3</ele>
        <time>2022-01-29T13:28:01Z</time>
      </trkpt>
      <trkpt lat="49.36794" lon="-1.40932">
        <ele>3</ele>
        <time>2022-01-29T13:28:05Z</time>
      </trkpt>
      <trkpt lat="49.3679" lon="-1.40927">
        <ele>3.2</ele>
        <time>2022-01-29T13:28:08Z</time>
      </trkpt>
      <trkpt lat="49.36786" lon="-1.40922">
        <ele>3.4</ele>
        <time>2022-01-29T13:28:11Z</time>
      </trkpt>
      <trkpt lat="49.36784" lon="-1.40929">
        <ele>3.7</ele>
        <time>2022-01-29T13:28:21Z</time>
      </trkpt>
      <trkpt lat="49.3678" lon="-1.40924">
        <ele>3.8</ele>
        <time>2022-01-29T13:28:25Z</time>
      </trkpt>
      <trkpt lat="49.36775" lon="-1.40914">
        <ele>3.8</ele>
        <time>2022-01-29T13:28:27Z</time>
      </trkpt>
      <trkpt lat="49.3677" lon="-1.40908">
        <ele>3.8</ele>
        <time>2022-01-29T13:28:29Z</time>
      </trkpt>
      <trkpt lat="49.36766" lon="-1.40903">
        <ele>3.8</ele>
        <time>2022-01-29T13:28:31Z</time>
      </trkpt>
      <trkpt lat="49.36761" lon="-1.40897">
        <ele>3.7</ele>
        <time>2022-01-29T13:28:34Z</time>
      </trkpt>
      <trkpt lat="49.36757" lon="-1.40893">
        <ele>3.7</ele>
        <time>2022-01-29T13:28:37Z</time>
      </trkpt>
      <trkpt lat="49.36752" lon="-1.40891">
        <ele>3.6</ele>
        <time>2022-01-29T13:28:40Z</time>
      </trkpt>
      <trkpt lat="49.36746" lon="-1.40888">
        <ele>3.6</ele>
        <time>2022-01-29T13:28:44Z</time>
      </trkpt>
      <trkpt lat="49.36742" lon="-1.40886">
        <ele>3.4</ele>
        <time>2022-01-29T13:28:47Z</time>
      </trkpt>
      <trkpt lat="49.36737" lon="-1.40885">
        <ele>3.4</ele>
        <time>2022-01-29T13:28:50Z</time>
      </trkpt>
      <trkpt lat="49.36731" lon="-1.40885">
        <ele>3.5</ele>
        <time>2022-01-29T13:28:53Z</time>
      </trkpt>
      <trkpt lat="49.36726" lon="-1.40885">
        <ele>4</ele>
        <time>2022-01-29T13:28:56Z</time>
      </trkpt>
      <trkpt lat="49.3672" lon="-1.40884">
        <ele>4.3</ele>
        <time>2022-01-29T13:29:00Z</time>
      </trkpt>
      <trkpt lat="49.36714" lon="-1.40882">
        <ele>4.3</ele>
        <time>2022-01-29T13:29:04Z</time>
      </trkpt>
      <trkpt lat="49.36709" lon="-1.40881">
        <ele>4.1</ele>
        <time>2022-01-29T13:29:08Z</time>
      </trkpt>
      <trkpt lat="49.36704" lon="-1.40879">
        <ele>4</ele>
        <time>2022-01-29T13:29:11Z</time>
      </trkpt>
      <trkpt lat="49.36699" lon="-1.40877">
        <ele>3.9</ele>
        <time>2022-01-29T13:29:14Z</time>
      </trkpt>
      <trkpt lat="49.36694" lon="-1.40875">
        <ele>3.9</ele>
        <time>2022-01-29T13:29:18Z</time>
      </trkpt>
      <trkpt lat="49.36689" lon="-1.40874">
        <ele>4</ele>
        <time>2022-01-29T13:29:21Z</time>
      </trkpt>
      <trkpt lat="49.36685" lon="-1.40872">
        <ele>4</ele>
        <time>2022-01-29T13:29:24Z</time>
      </trkpt>
      <trkpt lat="49.36679" lon="-1.40868">
        <ele>3.9</ele>
        <time>2022-01-29T13:29:28Z</time>
      </trkpt>
      <trkpt lat="49.36674" lon="-1.40866">
        <ele>3.7</ele>
        <time>2022-01-29T13:29:31Z</time>
      </trkpt>
      <trkpt lat="49.3667" lon="-1.40864">
        <ele>3.7</ele>
        <time>2022-01-29T13:29:35Z</time>
      </trkpt>
      <trkpt lat="49.36664" lon="-1.40863">
        <ele>3.7</ele>
        <time>2022-01-29T13:29:38Z</time>
      </trkpt>
      <trkpt lat="49.36659" lon="-1.40865">
        <ele>3.7</ele>
        <time>2022-01-29T13:29:43Z</time>
      </trkpt>
      <trkpt lat="49.36657" lon="-1.40872">
        <ele>4.1</ele>
        <time>2022-01-29T13:29:55Z</time>
      </trkpt>
      <trkpt lat="49.36653" lon="-1.40869">
        <ele>4.1</ele>
        <time>2022-01-29T13:29:57Z</time>
      </trkpt>
      <trkpt lat="49.36648" lon="-1.40862">
        <ele>4</ele>
        <time>2022-01-29T13:29:58Z</time>
      </trkpt>
      <trkpt lat="49.36641" lon="-1.40854">
        <ele>3.9</ele>
        <time>2022-01-29T13:30:01Z</time>
      </trkpt>
      <trkpt lat="49.36636" lon="-1.40847">
        <ele>3.8</ele>
        <time>2022-01-29T13:30:03Z</time>
      </trkpt>
      <trkpt lat="49.36631" lon="-1.40841">
        <ele>3.7</ele>
        <time>2022-01-29T13:30:06Z</time>
      </trkpt>
      <trkpt lat="49.36626" lon="-1.40836">
        <ele>3.5</ele>
        <time>2022-01-29T13:30:11Z</time>
      </trkpt>
      <trkpt lat="49.36622" lon="-1.40831">
        <ele>3.5</ele>
        <time>2022-01-29T13:30:14Z</time>
      </trkpt>
      <trkpt lat="49.36618" lon="-1.40826">
        <ele>3.5</ele>
        <time>2022-01-29T13:30:17Z</time>
      </trkpt>
      <trkpt lat="49.36614" lon="-1.4082">
        <ele>3.5</ele>
        <time>2022-01-29T13:30:20Z</time>
      </trkpt>
      <trkpt lat="49.36611" lon="-1.40812">
        <ele>3.4</ele>
        <time>2022-01-29T13:30:25Z</time>
      </trkpt>
      <trkpt lat="49.36611" lon="-1.40804">
        <ele>3.3</ele>
        <time>2022-01-29T13:30:28Z</time>
      </trkpt>
      <trkpt lat="49.36613" lon="-1.40797">
        <ele>3.1</ele>
        <time>2022-01-29T13:30:32Z</time>
      </trkpt>
      <trkpt lat="49.36617" lon="-1.40791">
        <ele>3.1</ele>
        <time>2022-01-29T13:30:35Z</time>
      </trkpt>
      <trkpt lat="49.3662" lon="-1.40786">
        <ele>3.2</ele>
        <time>2022-01-29T13:30:38Z</time>
      </trkpt>
      <trkpt lat="49.36623" lon="-1.40779">
        <ele>3.4</ele>
        <time>2022-01-29T13:30:42Z</time>
      </trkpt>
      <trkpt lat="49.36627" lon="-1.40773">
        <ele>3.6</ele>
        <time>2022-01-29T13:30:46Z</time>
      </trkpt>
      <trkpt lat="49.3663" lon="-1.40767">
        <ele>3.8</ele>
        <time>2022-01-29T13:30:50Z</time>
      </trkpt>
      <trkpt lat="49.36635" lon="-1.40761">
        <ele>4.1</ele>
        <time>2022-01-29T13:30:54Z</time>
      </trkpt>
      <trkpt lat="49.36638" lon="-1.40754">
        <ele>4.5</ele>
        <time>2022-01-29T13:30:58Z</time>
      </trkpt>
      <trkpt lat="49.3664" lon="-1.40746">
        <ele>4.7</ele>
        <time>2022-01-29T13:31:02Z</time>
      </trkpt>
      <trkpt lat="49.36641" lon="-1.40737">
        <ele>4.6</ele>
        <time>2022-01-29T13:31:06Z</time>
      </trkpt>
      <trkpt lat="49.36642" lon="-1.40729">
        <ele>4.5</ele>
        <time>2022-01-29T13:31:09Z</time>
      </trkpt>
      <trkpt lat="49.36644" lon="-1.40721">
        <ele>4.8</ele>
        <time>2022-01-29T13:31:14Z</time>
      </trkpt>
      <trkpt lat="49.36645" lon="-1.40713">
        <ele>5.3</ele>
        <time>2022-01-29T13:31:18Z</time>
      </trkpt>
      <trkpt lat="49.36648" lon="-1.40706">
        <ele>5.6</ele>
        <time>2022-01-29T13:31:23Z</time>
      </trkpt>
      <trkpt lat="49.36647" lon="-1.40698">
        <ele>5.7</ele>
        <time>2022-01-29T13:31:27Z</time>
      </trkpt>
      <trkpt lat="49.36649" lon="-1.40689">
        <ele>5.6</ele>
        <time>2022-01-29T13:31:31Z</time>
      </trkpt>
      <trkpt lat="49.36649" lon="-1.4068">
        <ele>5.4</ele>
        <time>2022-01-29T13:31:36Z</time>
      </trkpt>
      <trkpt lat="49.36649" lon="-1.40671">
        <ele>5.2</ele>
        <time>2022-01-29T13:31:40Z</time>
      </trkpt>
      <trkpt lat="49.36649" lon="-1.40662">
        <ele>4.8</ele>
        <time>2022-01-29T13:31:45Z</time>
      </trkpt>
      <trkpt lat="49.36649" lon="-1.40655">
        <ele>4.5</ele>
        <time>2022-01-29T13:31:48Z</time>
      </trkpt>
      <trkpt lat="49.36649" lon="-1.40647">
        <ele>4.3</ele>
        <time>2022-01-29T13:31:52Z</time>
      </trkpt>
      <trkpt lat="49.36649" lon="-1.4064">
        <ele>4.4</ele>
        <time>2022-01-29T13:31:55Z</time>
      </trkpt>
      <trkpt lat="49.36649" lon="-1.40632">
        <ele>4.6</ele>
        <time>2022-01-29T13:31:58Z</time>
      </trkpt>
      <trkpt lat="49.36649" lon="-1.40624">
        <ele>4.7</ele>
        <time>2022-01-29T13:32:02Z</time>
      </trkpt>
      <trkpt lat="49.36649" lon="-1.40616">
        <ele>4.8</ele>
        <time>2022-01-29T13:32:07Z</time>
      </trkpt>
      <trkpt lat="49.3665" lon="-1.40608">
        <ele>5</ele>
        <time>2022-01-29T13:32:10Z</time>
      </trkpt>
      <trkpt lat="49.3665" lon="-1.406">
        <ele>5.1</ele>
        <time>2022-01-29T13:32:14Z</time>
      </trkpt>
      <trkpt lat="49.36649" lon="-1.40592">
        <ele>5.4</ele>
        <time>2022-01-29T13:32:17Z</time>
      </trkpt>
      <trkpt lat="49.36648" lon="-1.40585">
        <ele>5.7</ele>
        <time>2022-01-29T13:32:21Z</time>
      </trkpt>
      <trkpt lat="49.36645" lon="-1.40579">
        <ele>6</ele>
        <time>2022-01-29T13:32:25Z</time>
      </trkpt>
      <trkpt lat="49.3664" lon="-1.40578">
        <ele>6.3</ele>
        <time>2022-01-29T13:32:31Z</time>
      </trkpt>
      <trkpt lat="49.36635" lon="-1.40581">
        <ele>6.3</ele>
        <time>2022-01-29T13:32:35Z</time>
      </trkpt>
      <trkpt lat="49.3663" lon="-1.40583">
        <ele>6</ele>
        <time>2022-01-29T13:32:38Z</time>
      </trkpt>
      <trkpt lat="49.36626" lon="-1.40584">
        <ele>5.8</ele>
        <time>2022-01-29T13:32:41Z</time>
      </trkpt>
      <trkpt lat="49.36621" lon="-1.40586">
        <ele>5.7</ele>
        <time>2022-01-29T13:32:44Z</time>
      </trkpt>
      <trkpt lat="49.36616" lon="-1.40589">
        <ele>5.8</ele>
        <time>2022-01-29T13:32:48Z</time>
      </trkpt>
      <trkpt lat="49.36611" lon="-1.40593">
        <ele>6.1</ele>
        <time>2022-01-29T13:32:51Z</time>
      </trkpt>
      <trkpt lat="49.36606" lon="-1.40595">
        <ele>6.5</ele>
        <time>2022-01-29T13:32:54Z</time>
      </trkpt>
      <trkpt lat="49.36601" lon="-1.40597">
        <ele>6.8</ele>
        <time>2022-01-29T13:32:57Z</time>
      </trkpt>
      <trkpt lat="49.36596" lon="-1.40599">
        <ele>7</ele>
        <time>2022-01-29T13:33:00Z</time>
      </trkpt>
      <trkpt lat="49.36591" lon="-1.40603">
        <ele>7.1</ele>
        <time>2022-01-29T13:33:04Z</time>
      </trkpt>
      <trkpt lat="49.36587" lon="-1.40608">
        <ele>7.3</ele>
        <time>2022-01-29T13:33:09Z</time>
      </trkpt>
      <trkpt lat="49.36582" lon="-1.40609">
        <ele>7.4</ele>
        <time>2022-01-29T13:33:13Z</time>
      </trkpt>
      <trkpt lat="49.36577" lon="-1.40612">
        <ele>7.6</ele>
        <time>2022-01-29T13:33:16Z</time>
      </trkpt>
      <trkpt lat="49.36572" lon="-1.40616">
        <ele>7.7</ele>
        <time>2022-01-29T13:33:20Z</time>
      </trkpt>
      <trkpt lat="49.36567" lon="-1.4062">
        <ele>7.6</ele>
        <time>2022-01-29T13:33:24Z</time>
      </trkpt>
      <trkpt lat="49.36562" lon="-1.40624">
        <ele>7.3</ele>
        <time>2022-01-29T13:33:28Z</time>
      </trkpt>
      <trkpt lat="49.36557" lon="-1.40627">
        <ele>7</ele>
        <time>2022-01-29T13:33:32Z</time>
      </trkpt>
      <trkpt lat="49.36552" lon="-1.4063">
        <ele>6.8</ele>
        <time>2022-01-29T13:33:35Z</time>
      </trkpt>
      <trkpt lat="49.36547" lon="-1.40632">
        <ele>6.7</ele>
        <time>2022-01-29T13:33:38Z</time>
      </trkpt>
      <trkpt lat="49.36542" lon="-1.40635">
        <ele>6.9</ele>
        <time>2022-01-29T13:33:41Z</time>
      </trkpt>
      <trkpt lat="49.36537" lon="-1.40637">
        <ele>7.2</ele>
        <time>2022-01-29T13:33:45Z</time>
      </trkpt>
      <trkpt lat="49.36532" lon="-1.4064">
        <ele>7.4</ele>
        <time>2022-01-29T13:33:49Z</time>
      </trkpt>
      <trkpt lat="49.36527" lon="-1.40644">
        <ele>7.5</ele>
        <time>2022-01-29T13:33:53Z</time>
      </trkpt>
      <trkpt lat="49.36522" lon="-1.40646">
        <ele>7.6</ele>
        <time>2022-01-29T13:33:56Z</time>
      </trkpt>
      <trkpt lat="49.36516" lon="-1.40648">
        <ele>7.5</ele>
        <time>2022-01-29T13:34:01Z</time>
      </trkpt>
      <trkpt lat="49.36511" lon="-1.40649">
        <ele>7.5</ele>
        <time>2022-01-29T13:34:04Z</time>
      </trkpt>
      <trkpt lat="49.36505" lon="-1.40651">
        <ele>7.6</ele>
        <time>2022-01-29T13:34:08Z</time>
      </trkpt>
      <trkpt lat="49.36501" lon="-1.40652">
        <ele>7.5</ele>
        <time>2022-01-29T13:34:11Z</time>
      </trkpt>
      <trkpt lat="49.36496" lon="-1.40654">
        <ele>7.3</ele>
        <time>2022-01-29T13:34:15Z</time>
      </trkpt>
      <trkpt lat="49.36492" lon="-1.40656">
        <ele>7.5</ele>
        <time>2022-01-29T13:34:18Z</time>
      </trkpt>
      <trkpt lat="49.36487" lon="-1.40657">
        <ele>7.5</ele>
        <time>2022-01-29T13:34:21Z</time>
      </trkpt>
      <trkpt lat="49.36482" lon="-1.4066">
        <ele>7.6</ele>
        <time>2022-01-29T13:34:25Z</time>
      </trkpt>
      <trkpt lat="49.36478" lon="-1.40661">
        <ele>7.2</ele>
        <time>2022-01-29T13:34:28Z</time>
      </trkpt>
      <trkpt lat="49.36473" lon="-1.40663">
        <ele>6.9</ele>
        <time>2022-01-29T13:34:32Z</time>
      </trkpt>
      <trkpt lat="49.36468" lon="-1.40664">
        <ele>6.7</ele>
        <time>2022-01-29T13:34:35Z</time>
      </trkpt>
      <trkpt lat="49.36463" lon="-1.40666">
        <ele>6.5</ele>
        <time>2022-01-29T13:34:38Z</time>
      </trkpt>
      <trkpt lat="49.36459" lon="-1.40668">
        <ele>6.6</ele>
        <time>2022-01-29T13:34:41Z</time>
      </trkpt>
      <trkpt lat="49.36454" lon="-1.4067">
        <ele>6.6</ele>
        <time>2022-01-29T13:34:45Z</time>
      </trkpt>
      <trkpt lat="49.36449" lon="-1.40674">
        <ele>6.7</ele>
        <time>2022-01-29T13:34:49Z</time>
      </trkpt>
      <trkpt lat="49.36445" lon="-1.40677">
        <ele>6.7</ele>
        <time>2022-01-29T13:34:52Z</time>
      </trkpt>
      <trkpt lat="49.3644" lon="-1.40679">
        <ele>6.8</ele>
        <time>2022-01-29T13:34:56Z</time>
      </trkpt>
      <trkpt lat="49.36436" lon="-1.40683">
        <ele>6.9</ele>
        <time>2022-01-29T13:34:59Z</time>
      </trkpt>
      <trkpt lat="49.36432" lon="-1.40686">
        <ele>7</ele>
        <time>2022-01-29T13:35:02Z</time>
      </trkpt>
      <trkpt lat="49.36428" lon="-1.40689">
        <ele>7</ele>
        <time>2022-01-29T13:35:05Z</time>
      </trkpt>
      <trkpt lat="49.36423" lon="-1.40691">
        <ele>6.9</ele>
        <time>2022-01-29T13:35:09Z</time>
      </trkpt>
      <trkpt lat="49.36418" lon="-1.40694">
        <ele>6.9</ele>
        <time>2022-01-29T13:35:12Z</time>
      </trkpt>
      <trkpt lat="49.36413" lon="-1.40697">
        <ele>6.9</ele>
        <time>2022-01-29T13:35:15Z</time>
      </trkpt>
      <trkpt lat="49.36407" lon="-1.40699">
        <ele>6.9</ele>
        <time>2022-01-29T13:35:19Z</time>
      </trkpt>
      <trkpt lat="49.36403" lon="-1.40701">
        <ele>6.7</ele>
        <time>2022-01-29T13:35:23Z</time>
      </trkpt>
      <trkpt lat="49.36397" lon="-1.40703">
        <ele>6.7</ele>
        <time>2022-01-29T13:35:26Z</time>
      </trkpt>
      <trkpt lat="49.36392" lon="-1.40704">
        <ele>6.7</ele>
        <time>2022-01-29T13:35:30Z</time>
      </trkpt>
      <trkpt lat="49.36387" lon="-1.40706">
        <ele>7</ele>
        <time>2022-01-29T13:35:34Z</time>
      </trkpt>
      <trkpt lat="49.36381" lon="-1.40708">
        <ele>7</ele>
        <time>2022-01-29T13:35:38Z</time>
      </trkpt>
      <trkpt lat="49.36377" lon="-1.4071">
        <ele>7.1</ele>
        <time>2022-01-29T13:35:41Z</time>
      </trkpt>
      <trkpt lat="49.36372" lon="-1.40712">
        <ele>7.1</ele>
        <time>2022-01-29T13:35:44Z</time>
      </trkpt>
      <trkpt lat="49.36367" lon="-1.40714">
        <ele>6.9</ele>
        <time>2022-01-29T13:35:48Z</time>
      </trkpt>
      <trkpt lat="49.36361" lon="-1.40717">
        <ele>6.9</ele>
        <time>2022-01-29T13:35:52Z</time>
      </trkpt>
      <trkpt lat="49.36356" lon="-1.40718">
        <ele>7.1</ele>
        <time>2022-01-29T13:35:55Z</time>
      </trkpt>
      <trkpt lat="49.36351" lon="-1.40718">
        <ele>7.5</ele>
        <time>2022-01-29T13:35:58Z</time>
      </trkpt>
      <trkpt lat="49.36346" lon="-1.40719">
        <ele>7.7</ele>
        <time>2022-01-29T13:36:01Z</time>
      </trkpt>
      <trkpt lat="49.36341" lon="-1.40719">
        <ele>7.7</ele>
        <time>2022-01-29T13:36:05Z</time>
      </trkpt>
      <trkpt lat="49.36336" lon="-1.40722">
        <ele>7.5</ele>
        <time>2022-01-29T13:36:09Z</time>
      </trkpt>
      <trkpt lat="49.3633" lon="-1.40723">
        <ele>7.3</ele>
        <time>2022-01-29T13:36:14Z</time>
      </trkpt>
      <trkpt lat="49.36326" lon="-1.40726">
        <ele>7.2</ele>
        <time>2022-01-29T13:36:19Z</time>
      </trkpt>
      <trkpt lat="49.36321" lon="-1.40728">
        <ele>6.5</ele>
        <time>2022-01-29T13:36:25Z</time>
      </trkpt>
      <trkpt lat="49.36316" lon="-1.40728">
        <ele>6</ele>
        <time>2022-01-29T13:36:29Z</time>
      </trkpt>
      <trkpt lat="49.36312" lon="-1.4073">
        <ele>5.9</ele>
        <time>2022-01-29T13:36:32Z</time>
      </trkpt>
      <trkpt lat="49.36308" lon="-1.40733">
        <ele>5.8</ele>
        <time>2022-01-29T13:36:35Z</time>
      </trkpt>
      <trkpt lat="49.36303" lon="-1.40734">
        <ele>5.7</ele>
        <time>2022-01-29T13:36:39Z</time>
      </trkpt>
      <trkpt lat="49.36297" lon="-1.40735">
        <ele>5.4</ele>
        <time>2022-01-29T13:36:43Z</time>
      </trkpt>
      <trkpt lat="49.36293" lon="-1.40735">
        <ele>5.3</ele>
        <time>2022-01-29T13:36:46Z</time>
      </trkpt>
      <trkpt lat="49.36288" lon="-1.40737">
        <ele>5.1</ele>
        <time>2022-01-29T13:36:49Z</time>
      </trkpt>
      <trkpt lat="49.36283" lon="-1.40738">
        <ele>4.9</ele>
        <time>2022-01-29T13:36:53Z</time>
      </trkpt>
      <trkpt lat="49.3627" lon="-1.40737">
        <ele>5.5</ele>
        <time>2022-01-29T13:37:01Z</time>
      </trkpt>
      <trkpt lat="49.36254" lon="-1.40742">
        <ele>4.5</ele>
        <time>2022-01-29T13:37:12Z</time>
      </trkpt>
      <trkpt lat="49.36249" lon="-1.40744">
        <ele>4.5</ele>
        <time>2022-01-29T13:37:16Z</time>
      </trkpt>
      <trkpt lat="49.36244" lon="-1.40746">
        <ele>4.6</ele>
        <time>2022-01-29T13:37:20Z</time>
      </trkpt>
      <trkpt lat="49.3624" lon="-1.40744">
        <ele>4.9</ele>
        <time>2022-01-29T13:37:24Z</time>
      </trkpt>
      <trkpt lat="49.36235" lon="-1.40748">
        <ele>5.1</ele>
        <time>2022-01-29T13:37:29Z</time>
      </trkpt>
      <trkpt lat="49.36231" lon="-1.40753">
        <ele>5.1</ele>
        <time>2022-01-29T13:37:32Z</time>
      </trkpt>
      <trkpt lat="49.36228" lon="-1.4076">
        <ele>4.9</ele>
        <time>2022-01-29T13:37:36Z</time>
      </trkpt>
      <trkpt lat="49.36225" lon="-1.40765">
        <ele>4.8</ele>
        <time>2022-01-29T13:37:39Z</time>
      </trkpt>
      <trkpt lat="49.36222" lon="-1.40771">
        <ele>4.6</ele>
        <time>2022-01-29T13:37:42Z</time>
      </trkpt>
      <trkpt lat="49.36218" lon="-1.40778">
        <ele>4.5</ele>
        <time>2022-01-29T13:37:46Z</time>
      </trkpt>
      <trkpt lat="49.36216" lon="-1.40785">
        <ele>4.1</ele>
        <time>2022-01-29T13:37:49Z</time>
      </trkpt>
      <trkpt lat="49.36215" lon="-1.40796">
        <ele>3.2</ele>
        <time>2022-01-29T13:37:54Z</time>
      </trkpt>
      <trkpt lat="49.36214" lon="-1.40804">
        <ele>2.3</ele>
        <time>2022-01-29T13:38:00Z</time>
      </trkpt>
      <trkpt lat="49.3621" lon="-1.40808">
        <ele>1.7</ele>
        <time>2022-01-29T13:38:06Z</time>
      </trkpt>
      <trkpt lat="49.36209" lon="-1.40801">
        <ele>1.3</ele>
        <time>2022-01-29T13:38:27Z</time>
      </trkpt>
      <trkpt lat="49.36214" lon="-1.40802">
        <ele>1.3</ele>
        <time>2022-01-29T13:39:06Z</time>
      </trkpt>
      <trkpt lat="49.3621" lon="-1.40797">
        <ele>0.9</ele>
        <time>2022-01-29T13:39:22Z</time>
      </trkpt>
      <trkpt lat="49.36211" lon="-1.4079">
        <ele>0.8</ele>
        <time>2022-01-29T13:40:37Z</time>
      </trkpt>
      <trkpt lat="49.3621" lon="-1.40783">
        <ele>0.9</ele>
        <time>2022-01-29T13:40:41Z</time>
      </trkpt>
      <trkpt lat="49.3621" lon="-1.40776">
        <ele>1</ele>
        <time>2022-01-29T13:40:44Z</time>
      </trkpt>
      <trkpt lat="49.36209" lon="-1.40767">
        <ele>1.1</ele>
        <time>2022-01-29T13:40:48Z</time>
      </trkpt>
      <trkpt lat="49.36207" lon="-1.4076">
        <ele>1.4</ele>
        <time>2022-01-29T13:40:52Z</time>
      </trkpt>
      <trkpt lat="49.36206" lon="-1.40752">
        <ele>1.3</ele>
        <time>2022-01-29T13:40:56Z</time>
      </trkpt>
      <trkpt lat="49.36203" lon="-1.40744">
        <ele>1.2</ele>
        <time>2022-01-29T13:41:00Z</time>
      </trkpt>
      <trkpt lat="49.362" lon="-1.40738">
        <ele>0.9</ele>
        <time>2022-01-29T13:41:04Z</time>
      </trkpt>
      <trkpt lat="49.362" lon="-1.4073">
        <ele>0.4</ele>
        <time>2022-01-29T13:41:11Z</time>
      </trkpt>
      <trkpt lat="49.36199" lon="-1.40723">
        <ele>0.2</ele>
        <time>2022-01-29T13:41:23Z</time>
      </trkpt>
      <trkpt lat="49.36197" lon="-1.40716">
        <ele>0.2</ele>
        <time>2022-01-29T13:41:28Z</time>
      </trkpt>
      <trkpt lat="49.36195" lon="-1.40709">
        <ele>0.2</ele>
        <time>2022-01-29T13:41:31Z</time>
      </trkpt>
      <trkpt lat="49.36193" lon="-1.40702">
        <ele>0.2</ele>
        <time>2022-01-29T13:41:34Z</time>
      </trkpt>
      <trkpt lat="49.36192" lon="-1.40695">
        <ele>0.1</ele>
        <time>2022-01-29T13:41:37Z</time>
      </trkpt>
      <trkpt lat="49.36191" lon="-1.40687">
        <ele>-0.1</ele>
        <time>2022-01-29T13:41:41Z</time>
      </trkpt>
      <trkpt lat="49.36189" lon="-1.4068">
        <ele>-0.1</ele>
        <time>2022-01-29T13:41:44Z</time>
      </trkpt>
      <trkpt lat="49.36187" lon="-1.40672">
        <ele>1.9</ele>
        <time>2022-01-29T13:41:49Z</time>
      </trkpt>
      <trkpt lat="49.36186" lon="-1.40665">
        <ele>0.3</ele>
        <time>2022-01-29T13:41:53Z</time>
      </trkpt>
      <trkpt lat="49.36184" lon="-1.40657">
        <ele>0.4</ele>
        <time>2022-01-29T13:41:57Z</time>
      </trkpt>
      <trkpt lat="49.36181" lon="-1.40652">
        <ele>0.4</ele>
        <time>2022-01-29T13:42:01Z</time>
      </trkpt>
      <trkpt lat="49.36179" lon="-1.40644">
        <ele>0.2</ele>
        <time>2022-01-29T13:42:05Z</time>
      </trkpt>
      <trkpt lat="49.36177" lon="-1.40637">
        <ele>0.3</ele>
        <time>2022-01-29T13:42:09Z</time>
      </trkpt>
      <trkpt lat="49.36175" lon="-1.40629">
        <ele>0.4</ele>
        <time>2022-01-29T13:42:14Z</time>
      </trkpt>
      <trkpt lat="49.36172" lon="-1.40621">
        <ele>0.4</ele>
        <time>2022-01-29T13:42:20Z</time>
      </trkpt>
      <trkpt lat="49.36171" lon="-1.40614">
        <ele>0.5</ele>
        <time>2022-01-29T13:42:24Z</time>
      </trkpt>
      <trkpt lat="49.36171" lon="-1.40607">
        <ele>0.6</ele>
        <time>2022-01-29T13:42:28Z</time>
      </trkpt>
      <trkpt lat="49.36168" lon="-1.40599">
        <ele>0.7</ele>
        <time>2022-01-29T13:42:33Z</time>
      </trkpt>
      <trkpt lat="49.36167" lon="-1.4059">
        <ele>0.6</ele>
        <time>2022-01-29T13:42:38Z</time>
      </trkpt>
      <trkpt lat="49.36165" lon="-1.40583">
        <ele>0.2</ele>
        <time>2022-01-29T13:42:43Z</time>
      </trkpt>
      <trkpt lat="49.36163" lon="-1.40574">
        <ele>0.1</ele>
        <time>2022-01-29T13:42:48Z</time>
      </trkpt>
      <trkpt lat="49.36164" lon="-1.40565">
        <ele>0.2</ele>
        <time>2022-01-29T13:42:53Z</time>
      </trkpt>
      <trkpt lat="49.36162" lon="-1.40558">
        <ele>0.2</ele>
        <time>2022-01-29T13:42:57Z</time>
      </trkpt>
      <trkpt lat="49.3616" lon="-1.40551">
        <ele>2.6</ele>
        <time>2022-01-29T13:43:02Z</time>
      </trkpt>
      <trkpt lat="49.36157" lon="-1.40543">
        <ele>-0.1</ele>
        <time>2022-01-29T13:43:07Z</time>
      </trkpt>
      <trkpt lat="49.36156" lon="-1.40535">
        <ele>-0.2</ele>
        <time>2022-01-29T13:43:11Z</time>
      </trkpt>
      <trkpt lat="49.36155" lon="-1.40527">
        <ele>-0.4</ele>
        <time>2022-01-29T13:43:15Z</time>
      </trkpt>
      <trkpt lat="49.36154" lon="-1.4052">
        <ele>-0.5</ele>
        <time>2022-01-29T13:43:19Z</time>
      </trkpt>
      <trkpt lat="49.36152" lon="-1.40511">
        <ele>-0.8</ele>
        <time>2022-01-29T13:43:23Z</time>
      </trkpt>
      <trkpt lat="49.36151" lon="-1.40503">
        <ele>-0.9</ele>
        <time>2022-01-29T13:43:27Z</time>
      </trkpt>
      <trkpt lat="49.3615" lon="-1.40496">
        <ele>-0.9</ele>
        <time>2022-01-29T13:43:30Z</time>
      </trkpt>
      <trkpt lat="49.36149" lon="-1.40489">
        <ele>-0.9</ele>
        <time>2022-01-29T13:43:34Z</time>
      </trkpt>
      <trkpt lat="49.36148" lon="-1.40482">
        <ele>-0.8</ele>
        <time>2022-01-29T13:43:37Z</time>
      </trkpt>
      <trkpt lat="49.36145" lon="-1.40475">
        <ele>-0.8</ele>
        <time>2022-01-29T13:43:41Z</time>
      </trkpt>
      <trkpt lat="49.36146" lon="-1.40467">
        <ele>-0.9</ele>
        <time>2022-01-29T13:43:46Z</time>
      </trkpt>
      <trkpt lat="49.36146" lon="-1.40459">
        <ele>-1.2</ele>
        <time>2022-01-29T13:43:51Z</time>
      </trkpt>
      <trkpt lat="49.36146" lon="-1.40452">
        <ele>-1.3</ele>
        <time>2022-01-29T13:43:55Z</time>
      </trkpt>
      <trkpt lat="49.36147" lon="-1.40444">
        <ele>-1.4</ele>
        <time>2022-01-29T13:44:00Z</time>
      </trkpt>
      <trkpt lat="49.36147" lon="-1.40436">
        <ele>-1.6</ele>
        <time>2022-01-29T13:44:05Z</time>
      </trkpt>
      <trkpt lat="49.36148" lon="-1.40428">
        <ele>-1.5</ele>
        <time>2022-01-29T13:44:09Z</time>
      </trkpt>
      <trkpt lat="49.36148" lon="-1.40421">
        <ele>-1.5</ele>
        <time>2022-01-29T13:44:13Z</time>
      </trkpt>
      <trkpt lat="49.36148" lon="-1.40413">
        <ele>-1.5</ele>
        <time>2022-01-29T13:44:16Z</time>
      </trkpt>
      <trkpt lat="49.36148" lon="-1.40404">
        <ele>-1.9</ele>
        <time>2022-01-29T13:44:21Z</time>
      </trkpt>
      <trkpt lat="49.36147" lon="-1.40396">
        <ele>-2.1</ele>
        <time>2022-01-29T13:44:27Z</time>
      </trkpt>
      <trkpt lat="49.36148" lon="-1.40389">
        <ele>-2</ele>
        <time>2022-01-29T13:44:31Z</time>
      </trkpt>
      <trkpt lat="49.36149" lon="-1.40381">
        <ele>-2</ele>
        <time>2022-01-29T13:44:36Z</time>
      </trkpt>
      <trkpt lat="49.36149" lon="-1.40372">
        <ele>-2</ele>
        <time>2022-01-29T13:44:41Z</time>
      </trkpt>
      <trkpt lat="49.3615" lon="-1.40364">
        <ele>-2.1</ele>
        <time>2022-01-29T13:44:46Z</time>
      </trkpt>
      <trkpt lat="49.3615" lon="-1.40357">
        <ele>-2.1</ele>
        <time>2022-01-29T13:44:50Z</time>
      </trkpt>
      <trkpt lat="49.36151" lon="-1.40349">
        <ele>-2.1</ele>
        <time>2022-01-29T13:44:54Z</time>
      </trkpt>
      <trkpt lat="49.3615" lon="-1.40341">
        <ele>-2</ele>
        <time>2022-01-29T13:44:59Z</time>
      </trkpt>
      <trkpt lat="49.3615" lon="-1.40334">
        <ele>-1.9</ele>
        <time>2022-01-29T13:45:03Z</time>
      </trkpt>
      <trkpt lat="49.36151" lon="-1.40326">
        <ele>-2.1</ele>
        <time>2022-01-29T13:45:08Z</time>
      </trkpt>
      <trkpt lat="49.36151" lon="-1.40334">
        <ele>-2.2</ele>
        <time>2022-01-29T13:45:11Z</time>
      </trkpt>
      <trkpt lat="49.36152" lon="-1.40344">
        <ele>-2.5</ele>
        <time>2022-01-29T13:45:15Z</time>
      </trkpt>
      <trkpt lat="49.36156" lon="-1.40348">
        <ele>-2.6</ele>
        <time>2022-01-29T13:45:19Z</time>
      </trkpt>
      <trkpt lat="49.36162" lon="-1.40344">
        <ele>-2.6</ele>
        <time>2022-01-29T13:45:24Z</time>
      </trkpt>
      <trkpt lat="49.36167" lon="-1.40342">
        <ele>-2.4</ele>
        <time>2022-01-29T13:45:29Z</time>
      </trkpt>
      <trkpt lat="49.36169" lon="-1.40335">
        <ele>-2.3</ele>
        <time>2022-01-29T13:45:34Z</time>
      </trkpt>
      <trkpt lat="49.36167" lon="-1.40329">
        <ele>-2.3</ele>
        <time>2022-01-29T13:45:38Z</time>
      </trkpt>
      <trkpt lat="49.36165" lon="-1.40322">
        <ele>-2.7</ele>
        <time>2022-01-29T13:45:51Z</time>
      </trkpt>
      <trkpt lat="49.36161" lon="-1.40318">
        <ele>-2.8</ele>
        <time>2022-01-29T13:45:57Z</time>
      </trkpt>
      <trkpt lat="49.36155" lon="-1.40314">
        <ele>-2.6</ele>
        <time>2022-01-29T13:46:01Z</time>
      </trkpt>
      <trkpt lat="49.36153" lon="-1.40307">
        <ele>-2.4</ele>
        <time>2022-01-29T13:46:06Z</time>
      </trkpt>
      <trkpt lat="49.36152" lon="-1.40298">
        <ele>-2</ele>
        <time>2022-01-29T13:46:11Z</time>
      </trkpt>
      <trkpt lat="49.36154" lon="-1.4029">
        <ele>-1.6</ele>
        <time>2022-01-29T13:46:16Z</time>
      </trkpt>
      <trkpt lat="49.36155" lon="-1.40283">
        <ele>-1.4</ele>
        <time>2022-01-29T13:46:20Z</time>
      </trkpt>
      <trkpt lat="49.36158" lon="-1.40276">
        <ele>-0.9</ele>
        <time>2022-01-29T13:46:24Z</time>
      </trkpt>
      <trkpt lat="49.36158" lon="-1.40268">
        <ele>-0.6</ele>
        <time>2022-01-29T13:46:29Z</time>
      </trkpt>
      <trkpt lat="49.36158" lon="-1.40262">
        <ele>-0.6</ele>
        <time>2022-01-29T13:46:33Z</time>
      </trkpt>
      <trkpt lat="49.36159" lon="-1.40254">
        <ele>-0.7</ele>
        <time>2022-01-29T13:46:38Z</time>
      </trkpt>
      <trkpt lat="49.3616" lon="-1.40246">
        <ele>-0.7</ele>
        <time>2022-01-29T13:46:42Z</time>
      </trkpt>
      <trkpt lat="49.3616" lon="-1.40238">
        <ele>-0.9</ele>
        <time>2022-01-29T13:46:46Z</time>
      </trkpt>
      <trkpt lat="49.36159" lon="-1.40231">
        <ele>-0.8</ele>
        <time>2022-01-29T13:46:49Z</time>
      </trkpt>
      <trkpt lat="49.3616" lon="-1.40223">
        <ele>-0.7</ele>
        <time>2022-01-29T13:46:53Z</time>
      </trkpt>
      <trkpt lat="49.3616" lon="-1.40216">
        <ele>-0.5</ele>
        <time>2022-01-29T13:46:56Z</time>
      </trkpt>
      <trkpt lat="49.36161" lon="-1.40206">
        <ele>-0.6</ele>
        <time>2022-01-29T13:47:01Z</time>
      </trkpt>
      <trkpt lat="49.36162" lon="-1.40198">
        <ele>-0.9</ele>
        <time>2022-01-29T13:47:05Z</time>
      </trkpt>
      <trkpt lat="49.36163" lon="-1.4019">
        <ele>-1.1</ele>
        <time>2022-01-29T13:47:10Z</time>
      </trkpt>
      <trkpt lat="49.36162" lon="-1.4018">
        <ele>-1</ele>
        <time>2022-01-29T13:47:14Z</time>
      </trkpt>
      <trkpt lat="49.36162" lon="-1.40173">
        <ele>-0.9</ele>
        <time>2022-01-29T13:47:18Z</time>
      </trkpt>
      <trkpt lat="49.36163" lon="-1.40165">
        <ele>-0.6</ele>
        <time>2022-01-29T13:47:22Z</time>
      </trkpt>
      <trkpt lat="49.36163" lon="-1.40158">
        <ele>-0.4</ele>
        <time>2022-01-29T13:47:25Z</time>
      </trkpt>
      <trkpt lat="49.36164" lon="-1.4015">
        <ele>-0.3</ele>
        <time>2022-01-29T13:47:30Z</time>
      </trkpt>
      <trkpt lat="49.36164" lon="-1.40141">
        <ele>-0.2</ele>
        <time>2022-01-29T13:47:34Z</time>
      </trkpt>
      <trkpt lat="49.36164" lon="-1.40134">
        <ele>-0.3</ele>
        <time>2022-01-29T13:47:37Z</time>
      </trkpt>
      <trkpt lat="49.36164" lon="-1.40126">
        <ele>-0.2</ele>
        <time>2022-01-29T13:47:41Z</time>
      </trkpt>
      <trkpt lat="49.36165" lon="-1.40118">
        <ele>-0.2</ele>
        <time>2022-01-29T13:47:45Z</time>
      </trkpt>
      <trkpt lat="49.36165" lon="-1.40111">
        <ele>-0.3</ele>
        <time>2022-01-29T13:47:49Z</time>
      </trkpt>
      <trkpt lat="49.36165" lon="-1.40103">
        <ele>-0.4</ele>
        <time>2022-01-29T13:47:53Z</time>
      </trkpt>
      <trkpt lat="49.36164" lon="-1.40096">
        <ele>-0.4</ele>
        <time>2022-01-29T13:47:57Z</time>
      </trkpt>
      <trkpt lat="49.36165" lon="-1.40086">
        <ele>-0.1</ele>
        <time>2022-01-29T13:48:02Z</time>
      </trkpt>
      <trkpt lat="49.36166" lon="-1.40079">
        <ele>2.9</ele>
        <time>2022-01-29T13:48:06Z</time>
      </trkpt>
      <trkpt lat="49.36167" lon="-1.4007">
        <ele>0.5</ele>
        <time>2022-01-29T13:48:10Z</time>
      </trkpt>
      <trkpt lat="49.36167" lon="-1.40063">
        <ele>0.9</ele>
        <time>2022-01-29T13:48:13Z</time>
      </trkpt>
      <trkpt lat="49.36167" lon="-1.40056">
        <ele>1.4</ele>
        <time>2022-01-29T13:48:16Z</time>
      </trkpt>
      <trkpt lat="49.36167" lon="-1.40049">
        <ele>1.7</ele>
        <time>2022-01-29T13:48:20Z</time>
      </trkpt>
      <trkpt lat="49.36168" lon="-1.4004">
        <ele>2</ele>
        <time>2022-01-29T13:48:24Z</time>
      </trkpt>
      <trkpt lat="49.36167" lon="-1.40033">
        <ele>2</ele>
        <time>2022-01-29T13:48:29Z</time>
      </trkpt>
      <trkpt lat="49.36167" lon="-1.40025">
        <ele>2.1</ele>
        <time>2022-01-29T13:48:34Z</time>
      </trkpt>
      <trkpt lat="49.36167" lon="-1.40017">
        <ele>2.5</ele>
        <time>2022-01-29T13:48:38Z</time>
      </trkpt>
      <trkpt lat="49.36167" lon="-1.40009">
        <ele>2.9</ele>
        <time>2022-01-29T13:48:41Z</time>
      </trkpt>
      <trkpt lat="49.36167" lon="-1.40002">
        <ele>3.1</ele>
        <time>2022-01-29T13:48:46Z</time>
      </trkpt>
      <trkpt lat="49.36169" lon="-1.39995">
        <ele>3</ele>
        <time>2022-01-29T13:48:51Z</time>
      </trkpt>
      <trkpt lat="49.36168" lon="-1.39986">
        <ele>2.9</ele>
        <time>2022-01-29T13:48:56Z</time>
      </trkpt>
      <trkpt lat="49.36168" lon="-1.39977">
        <ele>3</ele>
        <time>2022-01-29T13:49:00Z</time>
      </trkpt>
      <trkpt lat="49.36168" lon="-1.39969">
        <ele>3</ele>
        <time>2022-01-29T13:49:04Z</time>
      </trkpt>
      <trkpt lat="49.36169" lon="-1.3996">
        <ele>2.9</ele>
        <time>2022-01-29T13:49:09Z</time>
      </trkpt>
      <trkpt lat="49.36169" lon="-1.39952">
        <ele>2.7</ele>
        <time>2022-01-29T13:49:14Z</time>
      </trkpt>
      <trkpt lat="49.36169" lon="-1.39944">
        <ele>2.6</ele>
        <time>2022-01-29T13:49:17Z</time>
      </trkpt>
      <trkpt lat="49.36169" lon="-1.39936">
        <ele>2.4</ele>
        <time>2022-01-29T13:49:22Z</time>
      </trkpt>
      <trkpt lat="49.36171" lon="-1.39928">
        <ele>2.2</ele>
        <time>2022-01-29T13:49:26Z</time>
      </trkpt>
      <trkpt lat="49.36173" lon="-1.39922">
        <ele>1.9</ele>
        <time>2022-01-29T13:49:30Z</time>
      </trkpt>
      <trkpt lat="49.36175" lon="-1.39915">
        <ele>1.5</ele>
        <time>2022-01-29T13:49:35Z</time>
      </trkpt>
      <trkpt lat="49.36175" lon="-1.39907">
        <ele>1.3</ele>
        <time>2022-01-29T13:49:39Z</time>
      </trkpt>
      <trkpt lat="49.36173" lon="-1.399">
        <ele>1.3</ele>
        <time>2022-01-29T13:49:45Z</time>
      </trkpt>
      <trkpt lat="49.36172" lon="-1.39893">
        <ele>1.4</ele>
        <time>2022-01-29T13:49:52Z</time>
      </trkpt>
      <trkpt lat="49.36173" lon="-1.39886">
        <ele>1.1</ele>
        <time>2022-01-29T13:49:56Z</time>
      </trkpt>
      <trkpt lat="49.36174" lon="-1.39879">
        <ele>0.8</ele>
        <time>2022-01-29T13:49:59Z</time>
      </trkpt>
      <trkpt lat="49.36174" lon="-1.39872">
        <ele>0.4</ele>
        <time>2022-01-29T13:50:04Z</time>
      </trkpt>
      <trkpt lat="49.36172" lon="-1.39864">
        <ele>0.5</ele>
        <time>2022-01-29T13:50:09Z</time>
      </trkpt>
      <trkpt lat="49.36175" lon="-1.39856">
        <ele>0.8</ele>
        <time>2022-01-29T13:50:13Z</time>
      </trkpt>
      <trkpt lat="49.36176" lon="-1.39848">
        <ele>1.3</ele>
        <time>2022-01-29T13:50:17Z</time>
      </trkpt>
      <trkpt lat="49.36177" lon="-1.39839">
        <ele>1.6</ele>
        <time>2022-01-29T13:50:22Z</time>
      </trkpt>
      <trkpt lat="49.3618" lon="-1.39832">
        <ele>1.6</ele>
        <time>2022-01-29T13:50:27Z</time>
      </trkpt>
      <trkpt lat="49.36185" lon="-1.3983">
        <ele>1.4</ele>
        <time>2022-01-29T13:50:32Z</time>
      </trkpt>
      <trkpt lat="49.36189" lon="-1.39834">
        <ele>1.4</ele>
        <time>2022-01-29T13:50:36Z</time>
      </trkpt>
      <trkpt lat="49.36184" lon="-1.39831">
        <ele>1.5</ele>
        <time>2022-01-29T13:50:43Z</time>
      </trkpt>
      <trkpt lat="49.36178" lon="-1.39829">
        <ele>1.2</ele>
        <time>2022-01-29T13:50:47Z</time>
      </trkpt>
      <trkpt lat="49.36173" lon="-1.39827">
        <ele>0.9</ele>
        <time>2022-01-29T13:50:50Z</time>
      </trkpt>
      <trkpt lat="49.36167" lon="-1.39824">
        <ele>0.7</ele>
        <time>2022-01-29T13:50:55Z</time>
      </trkpt>
      <trkpt lat="49.36163" lon="-1.39821">
        <ele>0.8</ele>
        <time>2022-01-29T13:51:00Z</time>
      </trkpt>
      <trkpt lat="49.36166" lon="-1.39828">
        <ele>-1</ele>
        <time>2022-01-29T13:52:32Z</time>
      </trkpt>
      <trkpt lat="49.3617" lon="-1.39831">
        <ele>-1.1</ele>
        <time>2022-01-29T13:52:36Z</time>
      </trkpt>
      <trkpt lat="49.36175" lon="-1.39832">
        <ele>-1.3</ele>
        <time>2022-01-29T13:52:38Z</time>
      </trkpt>
      <trkpt lat="49.3618" lon="-1.39834">
        <ele>-1.6</ele>
        <time>2022-01-29T13:52:41Z</time>
      </trkpt>
      <trkpt lat="49.36186" lon="-1.39836">
        <ele>-2</ele>
        <time>2022-01-29T13:52:45Z</time>
      </trkpt>
      <trkpt lat="49.36191" lon="-1.39838">
        <ele>-1.9</ele>
        <time>2022-01-29T13:52:48Z</time>
      </trkpt>
      <trkpt lat="49.36196" lon="-1.39841">
        <ele>-1.7</ele>
        <time>2022-01-29T13:52:52Z</time>
      </trkpt>
      <trkpt lat="49.36201" lon="-1.39844">
        <ele>-1.6</ele>
        <time>2022-01-29T13:52:55Z</time>
      </trkpt>
      <trkpt lat="49.36204" lon="-1.39849">
        <ele>-1.3</ele>
        <time>2022-01-29T13:53:02Z</time>
      </trkpt>
      <trkpt lat="49.36209" lon="-1.39854">
        <ele>-1.1</ele>
        <time>2022-01-29T13:53:06Z</time>
      </trkpt>
      <trkpt lat="49.36215" lon="-1.39858">
        <ele>-1.1</ele>
        <time>2022-01-29T13:53:10Z</time>
      </trkpt>
      <trkpt lat="49.36219" lon="-1.39862">
        <ele>-1.2</ele>
        <time>2022-01-29T13:53:13Z</time>
      </trkpt>
      <trkpt lat="49.36225" lon="-1.39866">
        <ele>-1</ele>
        <time>2022-01-29T13:53:16Z</time>
      </trkpt>
      <trkpt lat="49.36229" lon="-1.39869">
        <ele>-0.6</ele>
        <time>2022-01-29T13:53:19Z</time>
      </trkpt>
      <trkpt lat="49.36234" lon="-1.39872">
        <ele>-0.4</ele>
        <time>2022-01-29T13:53:24Z</time>
      </trkpt>
      <trkpt lat="49.36239" lon="-1.39874">
        <ele>-0.6</ele>
        <time>2022-01-29T13:53:28Z</time>
      </trkpt>
      <trkpt lat="49.36245" lon="-1.39875">
        <ele>-0.9</ele>
        <time>2022-01-29T13:53:33Z</time>
      </trkpt>
      <trkpt lat="49.36251" lon="-1.39877">
        <ele>-0.8</ele>
        <time>2022-01-29T13:53:37Z</time>
      </trkpt>
      <trkpt lat="49.36255" lon="-1.3988">
        <ele>-0.2</ele>
        <time>2022-01-29T13:53:40Z</time>
      </trkpt>
      <trkpt lat="49.36261" lon="-1.39883">
        <ele>0.9</ele>
        <time>2022-01-29T13:53:43Z</time>
      </trkpt>
      <trkpt lat="49.36266" lon="-1.39887">
        <ele>1.5</ele>
        <time>2022-01-29T13:53:46Z</time>
      </trkpt>
      <trkpt lat="49.36272" lon="-1.39889">
        <ele>1.4</ele>
        <time>2022-01-29T13:53:50Z</time>
      </trkpt>
      <trkpt lat="49.36277" lon="-1.39891">
        <ele>1.4</ele>
        <time>2022-01-29T13:53:54Z</time>
      </trkpt>
      <trkpt lat="49.36282" lon="-1.39894">
        <ele>1.3</ele>
        <time>2022-01-29T13:53:57Z</time>
      </trkpt>
      <trkpt lat="49.36286" lon="-1.39899">
        <ele>1.2</ele>
        <time>2022-01-29T13:54:01Z</time>
      </trkpt>
      <trkpt lat="49.3629" lon="-1.39902">
        <ele>0.8</ele>
        <time>2022-01-29T13:54:04Z</time>
      </trkpt>
      <trkpt lat="49.36294" lon="-1.39904">
        <ele>0.6</ele>
        <time>2022-01-29T13:54:08Z</time>
      </trkpt>
      <trkpt lat="49.363" lon="-1.39904">
        <ele>0.7</ele>
        <time>2022-01-29T13:54:13Z</time>
      </trkpt>
      <trkpt lat="49.36305" lon="-1.39907">
        <ele>0.8</ele>
        <time>2022-01-29T13:54:18Z</time>
      </trkpt>
      <trkpt lat="49.36308" lon="-1.39914">
        <ele>1.2</ele>
        <time>2022-01-29T13:54:28Z</time>
      </trkpt>
      <trkpt lat="49.36305" lon="-1.39921">
        <ele>1.1</ele>
        <time>2022-01-29T13:54:31Z</time>
      </trkpt>
      <trkpt lat="49.36301" lon="-1.39927">
        <ele>1.2</ele>
        <time>2022-01-29T13:54:34Z</time>
      </trkpt>
      <trkpt lat="49.36298" lon="-1.39934">
        <ele>1.2</ele>
        <time>2022-01-29T13:54:38Z</time>
      </trkpt>
      <trkpt lat="49.36295" lon="-1.39941">
        <ele>1.2</ele>
        <time>2022-01-29T13:54:42Z</time>
      </trkpt>
      <trkpt lat="49.36291" lon="-1.39948">
        <ele>0.9</ele>
        <time>2022-01-29T13:54:46Z</time>
      </trkpt>
      <trkpt lat="49.36288" lon="-1.39954">
        <ele>0.8</ele>
        <time>2022-01-29T13:54:50Z</time>
      </trkpt>
      <trkpt lat="49.36285" lon="-1.39962">
        <ele>0.5</ele>
        <time>2022-01-29T13:54:55Z</time>
      </trkpt>
      <trkpt lat="49.36282" lon="-1.39969">
        <ele>0.2</ele>
        <time>2022-01-29T13:54:59Z</time>
      </trkpt>
      <trkpt lat="49.36279" lon="-1.39975">
        <ele>0.7</ele>
        <time>2022-01-29T13:55:03Z</time>
      </trkpt>
      <trkpt lat="49.36276" lon="-1.39981">
        <ele>1.5</ele>
        <time>2022-01-29T13:55:08Z</time>
      </trkpt>
      <trkpt lat="49.36273" lon="-1.39988">
        <ele>1.3</ele>
        <time>2022-01-29T13:55:12Z</time>
      </trkpt>
      <trkpt lat="49.3627" lon="-1.39997">
        <ele>1.1</ele>
        <time>2022-01-29T13:55:17Z</time>
      </trkpt>
      <trkpt lat="49.36267" lon="-1.40006">
        <ele>1.6</ele>
        <time>2022-01-29T13:55:21Z</time>
      </trkpt>
      <trkpt lat="49.36265" lon="-1.40012">
        <ele>1.9</ele>
        <time>2022-01-29T13:55:25Z</time>
      </trkpt>
      <trkpt lat="49.36264" lon="-1.4002">
        <ele>1.8</ele>
        <time>2022-01-29T13:55:28Z</time>
      </trkpt>
      <trkpt lat="49.36262" lon="-1.40028">
        <ele>1.4</ele>
        <time>2022-01-29T13:55:32Z</time>
      </trkpt>
      <trkpt lat="49.3626" lon="-1.40036">
        <ele>1.2</ele>
        <time>2022-01-29T13:55:37Z</time>
      </trkpt>
      <trkpt lat="49.3626" lon="-1.40043">
        <ele>1.4</ele>
        <time>2022-01-29T13:55:40Z</time>
      </trkpt>
      <trkpt lat="49.3626" lon="-1.40052">
        <ele>1.3</ele>
        <time>2022-01-29T13:55:44Z</time>
      </trkpt>
      <trkpt lat="49.36261" lon="-1.4006">
        <ele>1.3</ele>
        <time>2022-01-29T13:55:47Z</time>
      </trkpt>
      <trkpt lat="49.36261" lon="-1.40069">
        <ele>1.2</ele>
        <time>2022-01-29T13:55:52Z</time>
      </trkpt>
      <trkpt lat="49.36262" lon="-1.40079">
        <ele>1</ele>
        <time>2022-01-29T13:55:56Z</time>
      </trkpt>
      <trkpt lat="49.36264" lon="-1.40087">
        <ele>0.7</ele>
        <time>2022-01-29T13:56:00Z</time>
      </trkpt>
      <trkpt lat="49.36263" lon="-1.40096">
        <ele>0.8</ele>
        <time>2022-01-29T13:56:03Z</time>
      </trkpt>
      <trkpt lat="49.36263" lon="-1.40105">
        <ele>1.3</ele>
        <time>2022-01-29T13:56:06Z</time>
      </trkpt>
      <trkpt lat="49.36265" lon="-1.40112">
        <ele>1.5</ele>
        <time>2022-01-29T13:56:10Z</time>
      </trkpt>
      <trkpt lat="49.36267" lon="-1.40119">
        <ele>1.5</ele>
        <time>2022-01-29T13:56:13Z</time>
      </trkpt>
      <trkpt lat="49.3627" lon="-1.40126">
        <ele>1.4</ele>
        <time>2022-01-29T13:56:17Z</time>
      </trkpt>
      <trkpt lat="49.36274" lon="-1.40133">
        <ele>1.6</ele>
        <time>2022-01-29T13:56:21Z</time>
      </trkpt>
      <trkpt lat="49.36277" lon="-1.40141">
        <ele>1.9</ele>
        <time>2022-01-29T13:56:25Z</time>
      </trkpt>
      <trkpt lat="49.3628" lon="-1.40147">
        <ele>2.2</ele>
        <time>2022-01-29T13:56:28Z</time>
      </trkpt>
      <trkpt lat="49.36285" lon="-1.40153">
        <ele>2.7</ele>
        <time>2022-01-29T13:56:32Z</time>
      </trkpt>
      <trkpt lat="49.36289" lon="-1.4016">
        <ele>3.3</ele>
        <time>2022-01-29T13:56:36Z</time>
      </trkpt>
      <trkpt lat="49.36292" lon="-1.40165">
        <ele>3.6</ele>
        <time>2022-01-29T13:56:39Z</time>
      </trkpt>
      <trkpt lat="49.36294" lon="-1.40173">
        <ele>3.6</ele>
        <time>2022-01-29T13:56:43Z</time>
      </trkpt>
      <trkpt lat="49.36297" lon="-1.40179">
        <ele>3.7</ele>
        <time>2022-01-29T13:56:48Z</time>
      </trkpt>
      <trkpt lat="49.36301" lon="-1.40186">
        <ele>3.5</ele>
        <time>2022-01-29T13:56:52Z</time>
      </trkpt>
      <trkpt lat="49.36305" lon="-1.40189">
        <ele>3.4</ele>
        <time>2022-01-29T13:56:55Z</time>
      </trkpt>
      <trkpt lat="49.36309" lon="-1.40195">
        <ele>3.6</ele>
        <time>2022-01-29T13:56:59Z</time>
      </trkpt>
      <trkpt lat="49.36312" lon="-1.40203">
        <ele>3.8</ele>
        <time>2022-01-29T13:57:04Z</time>
      </trkpt>
      <trkpt lat="49.36315" lon="-1.40211">
        <ele>3.8</ele>
        <time>2022-01-29T13:57:08Z</time>
      </trkpt>
      <trkpt lat="49.36318" lon="-1.40219">
        <ele>3.6</ele>
        <time>2022-01-29T13:57:12Z</time>
      </trkpt>
      <trkpt lat="49.3632" lon="-1.40225">
        <ele>3.7</ele>
        <time>2022-01-29T13:57:15Z</time>
      </trkpt>
      <trkpt lat="49.36323" lon="-1.40231">
        <ele>3.7</ele>
        <time>2022-01-29T13:57:18Z</time>
      </trkpt>
      <trkpt lat="49.36325" lon="-1.40238">
        <ele>3.7</ele>
        <time>2022-01-29T13:57:22Z</time>
      </trkpt>
      <trkpt lat="49.36328" lon="-1.40244">
        <ele>3.6</ele>
        <time>2022-01-29T13:57:25Z</time>
      </trkpt>
      <trkpt lat="49.3633" lon="-1.40251">
        <ele>3.3</ele>
        <time>2022-01-29T13:57:29Z</time>
      </trkpt>
      <trkpt lat="49.36331" lon="-1.40257">
        <ele>3</ele>
        <time>2022-01-29T13:57:32Z</time>
      </trkpt>
      <trkpt lat="49.36335" lon="-1.40263">
        <ele>2.9</ele>
        <time>2022-01-29T13:57:36Z</time>
      </trkpt>
      <trkpt lat="49.36339" lon="-1.40267">
        <ele>2.7</ele>
        <time>2022-01-29T13:57:39Z</time>
      </trkpt>
      <trkpt lat="49.36342" lon="-1.40273">
        <ele>2.4</ele>
        <time>2022-01-29T13:57:43Z</time>
      </trkpt>
      <trkpt lat="49.36345" lon="-1.4028">
        <ele>2.1</ele>
        <time>2022-01-29T13:57:46Z</time>
      </trkpt>
      <trkpt lat="49.36348" lon="-1.40286">
        <ele>2</ele>
        <time>2022-01-29T13:57:50Z</time>
      </trkpt>
      <trkpt lat="49.3635" lon="-1.40293">
        <ele>1.9</ele>
        <time>2022-01-29T13:57:53Z</time>
      </trkpt>
      <trkpt lat="49.36354" lon="-1.40297">
        <ele>1.6</ele>
        <time>2022-01-29T13:57:57Z</time>
      </trkpt>
      <trkpt lat="49.36358" lon="-1.40301">
        <ele>1.5</ele>
        <time>2022-01-29T13:58:00Z</time>
      </trkpt>
      <trkpt lat="49.36363" lon="-1.40306">
        <ele>1.4</ele>
        <time>2022-01-29T13:58:04Z</time>
      </trkpt>
      <trkpt lat="49.36367" lon="-1.40312">
        <ele>1.6</ele>
        <time>2022-01-29T13:58:07Z</time>
      </trkpt>
      <trkpt lat="49.36371" lon="-1.40317">
        <ele>1.7</ele>
        <time>2022-01-29T13:58:10Z</time>
      </trkpt>
      <trkpt lat="49.36375" lon="-1.40322">
        <ele>1.9</ele>
        <time>2022-01-29T13:58:13Z</time>
      </trkpt>
      <trkpt lat="49.3638" lon="-1.40323">
        <ele>1.9</ele>
        <time>2022-01-29T13:58:17Z</time>
      </trkpt>
      <trkpt lat="49.36383" lon="-1.40317">
        <ele>2.1</ele>
        <time>2022-01-29T13:58:19Z</time>
      </trkpt>
      <trkpt lat="49.36385" lon="-1.4031">
        <ele>2.4</ele>
        <time>2022-01-29T13:58:22Z</time>
      </trkpt>
      <trkpt lat="49.36387" lon="-1.40301">
        <ele>3</ele>
        <time>2022-01-29T13:58:25Z</time>
      </trkpt>
      <trkpt lat="49.36389" lon="-1.40293">
        <ele>3.5</ele>
        <time>2022-01-29T13:58:29Z</time>
      </trkpt>
      <trkpt lat="49.36391" lon="-1.40284">
        <ele>3.5</ele>
        <time>2022-01-29T13:58:33Z</time>
      </trkpt>
      <trkpt lat="49.36393" lon="-1.40276">
        <ele>3.2</ele>
        <time>2022-01-29T13:58:37Z</time>
      </trkpt>
      <trkpt lat="49.36395" lon="-1.4027">
        <ele>3</ele>
        <time>2022-01-29T13:58:40Z</time>
      </trkpt>
      <trkpt lat="49.36398" lon="-1.40263">
        <ele>3</ele>
        <time>2022-01-29T13:58:43Z</time>
      </trkpt>
      <trkpt lat="49.36399" lon="-1.40256">
        <ele>2.9</ele>
        <time>2022-01-29T13:58:46Z</time>
      </trkpt>
      <trkpt lat="49.36402" lon="-1.40248">
        <ele>2.5</ele>
        <time>2022-01-29T13:58:51Z</time>
      </trkpt>
      <trkpt lat="49.36404" lon="-1.4024">
        <ele>2</ele>
        <time>2022-01-29T13:58:55Z</time>
      </trkpt>
      <trkpt lat="49.36405" lon="-1.40233">
        <ele>1.5</ele>
        <time>2022-01-29T13:58:59Z</time>
      </trkpt>
      <trkpt lat="49.36407" lon="-1.40226">
        <ele>1.2</ele>
        <time>2022-01-29T13:59:03Z</time>
      </trkpt>
      <trkpt lat="49.36408" lon="-1.40218">
        <ele>1</ele>
        <time>2022-01-29T13:59:07Z</time>
      </trkpt>
      <trkpt lat="49.36411" lon="-1.40212">
        <ele>0.9</ele>
        <time>2022-01-29T13:59:11Z</time>
      </trkpt>
      <trkpt lat="49.36414" lon="-1.40204">
        <ele>1.2</ele>
        <time>2022-01-29T13:59:16Z</time>
      </trkpt>
      <trkpt lat="49.36415" lon="-1.40196">
        <ele>1.3</ele>
        <time>2022-01-29T13:59:20Z</time>
      </trkpt>
      <trkpt lat="49.36417" lon="-1.40189">
        <ele>1.3</ele>
        <time>2022-01-29T13:59:24Z</time>
      </trkpt>
      <trkpt lat="49.3642" lon="-1.40182">
        <ele>1.2</ele>
        <time>2022-01-29T13:59:28Z</time>
      </trkpt>
      <trkpt lat="49.36421" lon="-1.40175">
        <ele>1</ele>
        <time>2022-01-29T13:59:32Z</time>
      </trkpt>
      <trkpt lat="49.36423" lon="-1.40167">
        <ele>0.9</ele>
        <time>2022-01-29T13:59:36Z</time>
      </trkpt>
      <trkpt lat="49.36425" lon="-1.40159">
        <ele>1</ele>
        <time>2022-01-29T13:59:41Z</time>
      </trkpt>
      <trkpt lat="49.36428" lon="-1.40151">
        <ele>1.1</ele>
        <time>2022-01-29T13:59:45Z</time>
      </trkpt>
      <trkpt lat="49.3643" lon="-1.40145">
        <ele>1.2</ele>
        <time>2022-01-29T13:59:48Z</time>
      </trkpt>
      <trkpt lat="49.36432" lon="-1.40138">
        <ele>1.5</ele>
        <time>2022-01-29T13:59:52Z</time>
      </trkpt>
      <trkpt lat="49.36435" lon="-1.40132">
        <ele>2</ele>
        <time>2022-01-29T13:59:56Z</time>
      </trkpt>
      <trkpt lat="49.36437" lon="-1.40124">
        <ele>2.8</ele>
        <time>2022-01-29T14:00:00Z</time>
      </trkpt>
      <trkpt lat="49.36439" lon="-1.40118">
        <ele>3.1</ele>
        <time>2022-01-29T14:00:04Z</time>
      </trkpt>
      <trkpt lat="49.3644" lon="-1.40111">
        <ele>3.3</ele>
        <time>2022-01-29T14:00:07Z</time>
      </trkpt>
      <trkpt lat="49.36442" lon="-1.40103">
        <ele>3.3</ele>
        <time>2022-01-29T14:00:12Z</time>
      </trkpt>
      <trkpt lat="49.36443" lon="-1.40095">
        <ele>3.4</ele>
        <time>2022-01-29T14:00:16Z</time>
      </trkpt>
      <trkpt lat="49.36446" lon="-1.40089">
        <ele>3.5</ele>
        <time>2022-01-29T14:00:19Z</time>
      </trkpt>
      <trkpt lat="49.36448" lon="-1.40083">
        <ele>3.5</ele>
        <time>2022-01-29T14:00:23Z</time>
      </trkpt>
      <trkpt lat="49.36451" lon="-1.40077">
        <ele>3.6</ele>
        <time>2022-01-29T14:00:26Z</time>
      </trkpt>
      <trkpt lat="49.36452" lon="-1.4007">
        <ele>3.8</ele>
        <time>2022-01-29T14:00:29Z</time>
      </trkpt>
      <trkpt lat="49.36453" lon="-1.40063">
        <ele>4</ele>
        <time>2022-01-29T14:00:33Z</time>
      </trkpt>
      <trkpt lat="49.36454" lon="-1.40055">
        <ele>3.9</ele>
        <time>2022-01-29T14:00:36Z</time>
      </trkpt>
      <trkpt lat="49.36455" lon="-1.40046">
        <ele>3.6</ele>
        <time>2022-01-29T14:00:41Z</time>
      </trkpt>
      <trkpt lat="49.36459" lon="-1.4004">
        <ele>3.6</ele>
        <time>2022-01-29T14:00:44Z</time>
      </trkpt>
      <trkpt lat="49.3646" lon="-1.40033">
        <ele>3.5</ele>
        <time>2022-01-29T14:00:48Z</time>
      </trkpt>
      <trkpt lat="49.36464" lon="-1.40028">
        <ele>3.5</ele>
        <time>2022-01-29T14:00:52Z</time>
      </trkpt>
      <trkpt lat="49.36469" lon="-1.40029">
        <ele>3.7</ele>
        <time>2022-01-29T14:00:55Z</time>
      </trkpt>
      <trkpt lat="49.36474" lon="-1.40031">
        <ele>4.1</ele>
        <time>2022-01-29T14:00:59Z</time>
      </trkpt>
      <trkpt lat="49.36477" lon="-1.40036">
        <ele>4.5</ele>
        <time>2022-01-29T14:01:02Z</time>
      </trkpt>
      <trkpt lat="49.36481" lon="-1.40041">
        <ele>5.4</ele>
        <time>2022-01-29T14:01:12Z</time>
      </trkpt>
      <trkpt lat="49.36485" lon="-1.40041">
        <ele>5.3</ele>
        <time>2022-01-29T14:01:16Z</time>
      </trkpt>
      <trkpt lat="49.3649" lon="-1.40043">
        <ele>5.2</ele>
        <time>2022-01-29T14:01:20Z</time>
      </trkpt>
      <trkpt lat="49.36496" lon="-1.40044">
        <ele>5.2</ele>
        <time>2022-01-29T14:01:25Z</time>
      </trkpt>
      <trkpt lat="49.36501" lon="-1.40045">
        <ele>5.1</ele>
        <time>2022-01-29T14:01:29Z</time>
      </trkpt>
      <trkpt lat="49.36506" lon="-1.40046">
        <ele>4.7</ele>
        <time>2022-01-29T14:01:34Z</time>
      </trkpt>
      <trkpt lat="49.36511" lon="-1.40049">
        <ele>4.1</ele>
        <time>2022-01-29T14:01:38Z</time>
      </trkpt>
      <trkpt lat="49.36515" lon="-1.40051">
        <ele>4.5</ele>
        <time>2022-01-29T14:01:44Z</time>
      </trkpt>
      <trkpt lat="49.3652" lon="-1.40052">
        <ele>4.9</ele>
        <time>2022-01-29T14:01:47Z</time>
      </trkpt>
      <trkpt lat="49.36526" lon="-1.40054">
        <ele>5</ele>
        <time>2022-01-29T14:01:50Z</time>
      </trkpt>
      <trkpt lat="49.36532" lon="-1.40056">
        <ele>5</ele>
        <time>2022-01-29T14:01:54Z</time>
      </trkpt>
      <trkpt lat="49.36538" lon="-1.40057">
        <ele>5.2</ele>
        <time>2022-01-29T14:01:57Z</time>
      </trkpt>
      <trkpt lat="49.36543" lon="-1.40058">
        <ele>5.6</ele>
        <time>2022-01-29T14:02:00Z</time>
      </trkpt>
      <trkpt lat="49.36548" lon="-1.40058">
        <ele>6</ele>
        <time>2022-01-29T14:02:04Z</time>
      </trkpt>
      <trkpt lat="49.36553" lon="-1.40061">
        <ele>6.4</ele>
        <time>2022-01-29T14:02:08Z</time>
      </trkpt>
      <trkpt lat="49.36558" lon="-1.40062">
        <ele>6.8</ele>
        <time>2022-01-29T14:02:12Z</time>
      </trkpt>
      <trkpt lat="49.36564" lon="-1.40063">
        <ele>7.2</ele>
        <time>2022-01-29T14:02:16Z</time>
      </trkpt>
      <trkpt lat="49.36569" lon="-1.40064">
        <ele>7.5</ele>
        <time>2022-01-29T14:02:19Z</time>
      </trkpt>
      <trkpt lat="49.36574" lon="-1.40065">
        <ele>7.7</ele>
        <time>2022-01-29T14:02:23Z</time>
      </trkpt>
      <trkpt lat="49.36579" lon="-1.40067">
        <ele>8.1</ele>
        <time>2022-01-29T14:02:26Z</time>
      </trkpt>
      <trkpt lat="49.36584" lon="-1.40067">
        <ele>8.7</ele>
        <time>2022-01-29T14:02:29Z</time>
      </trkpt>
      <trkpt lat="49.36589" lon="-1.40069">
        <ele>9.3</ele>
        <time>2022-01-29T14:02:33Z</time>
      </trkpt>
      <trkpt lat="49.36594" lon="-1.40066">
        <ele>9.4</ele>
        <time>2022-01-29T14:02:39Z</time>
      </trkpt>
      <trkpt lat="49.36599" lon="-1.40066">
        <ele>9.3</ele>
        <time>2022-01-29T14:02:43Z</time>
      </trkpt>
      <trkpt lat="49.36604" lon="-1.40069">
        <ele>8.9</ele>
        <time>2022-01-29T14:02:47Z</time>
      </trkpt>
      <trkpt lat="49.36609" lon="-1.40071">
        <ele>8.4</ele>
        <time>2022-01-29T14:02:50Z</time>
      </trkpt>
      <trkpt lat="49.36614" lon="-1.40074">
        <ele>7.9</ele>
        <time>2022-01-29T14:02:54Z</time>
      </trkpt>
      <trkpt lat="49.36618" lon="-1.40076">
        <ele>8</ele>
        <time>2022-01-29T14:02:57Z</time>
      </trkpt>
      <trkpt lat="49.36624" lon="-1.40079">
        <ele>8.1</ele>
        <time>2022-01-29T14:03:02Z</time>
      </trkpt>
      <trkpt lat="49.3663" lon="-1.4008">
        <ele>8.2</ele>
        <time>2022-01-29T14:03:06Z</time>
      </trkpt>
      <trkpt lat="49.36635" lon="-1.40077">
        <ele>8.1</ele>
        <time>2022-01-29T14:03:11Z</time>
      </trkpt>
      <trkpt lat="49.36641" lon="-1.40077">
        <ele>8.1</ele>
        <time>2022-01-29T14:03:15Z</time>
      </trkpt>
      <trkpt lat="49.36646" lon="-1.40076">
        <ele>8.3</ele>
        <time>2022-01-29T14:03:20Z</time>
      </trkpt>
      <trkpt lat="49.36652" lon="-1.40077">
        <ele>8.8</ele>
        <time>2022-01-29T14:03:23Z</time>
      </trkpt>
      <trkpt lat="49.36658" lon="-1.40076">
        <ele>9.3</ele>
        <time>2022-01-29T14:03:26Z</time>
      </trkpt>
      <trkpt lat="49.36664" lon="-1.40075">
        <ele>9.8</ele>
        <time>2022-01-29T14:03:30Z</time>
      </trkpt>
      <trkpt lat="49.36669" lon="-1.40074">
        <ele>10</ele>
        <time>2022-01-29T14:03:32Z</time>
      </trkpt>
      <trkpt lat="49.36675" lon="-1.40072">
        <ele>10.4</ele>
        <time>2022-01-29T14:03:36Z</time>
      </trkpt>
      <trkpt lat="49.3668" lon="-1.4007">
        <ele>10.5</ele>
        <time>2022-01-29T14:03:39Z</time>
      </trkpt>
      <trkpt lat="49.36686" lon="-1.40066">
        <ele>10.6</ele>
        <time>2022-01-29T14:03:43Z</time>
      </trkpt>
      <trkpt lat="49.36691" lon="-1.40061">
        <ele>10.5</ele>
        <time>2022-01-29T14:03:48Z</time>
      </trkpt>
      <trkpt lat="49.36695" lon="-1.40055">
        <ele>10.6</ele>
        <time>2022-01-29T14:03:52Z</time>
      </trkpt>
      <trkpt lat="49.367" lon="-1.40049">
        <ele>10.8</ele>
        <time>2022-01-29T14:03:57Z</time>
      </trkpt>
      <trkpt lat="49.36704" lon="-1.40046">
        <ele>10.9</ele>
        <time>2022-01-29T14:04:01Z</time>
      </trkpt>
      <trkpt lat="49.36709" lon="-1.4004">
        <ele>11.1</ele>
        <time>2022-01-29T14:04:05Z</time>
      </trkpt>
      <trkpt lat="49.36713" lon="-1.40036">
        <ele>11.4</ele>
        <time>2022-01-29T14:04:09Z</time>
      </trkpt>
      <trkpt lat="49.36717" lon="-1.4003">
        <ele>11.7</ele>
        <time>2022-01-29T14:04:13Z</time>
      </trkpt>
      <trkpt lat="49.36721" lon="-1.40026">
        <ele>11.8</ele>
        <time>2022-01-29T14:04:17Z</time>
      </trkpt>
      <trkpt lat="49.36726" lon="-1.40024">
        <ele>11.9</ele>
        <time>2022-01-29T14:04:21Z</time>
      </trkpt>
      <trkpt lat="49.3673" lon="-1.40021">
        <ele>11.9</ele>
        <time>2022-01-29T14:04:24Z</time>
      </trkpt>
      <trkpt lat="49.36736" lon="-1.40017">
        <ele>12.1</ele>
        <time>2022-01-29T14:04:28Z</time>
      </trkpt>
      <trkpt lat="49.3674" lon="-1.40016">
        <ele>12.2</ele>
        <time>2022-01-29T14:04:31Z</time>
      </trkpt>
      <trkpt lat="49.36746" lon="-1.40016">
        <ele>12.5</ele>
        <time>2022-01-29T14:04:36Z</time>
      </trkpt>
      <trkpt lat="49.36751" lon="-1.40017">
        <ele>12.6</ele>
        <time>2022-01-29T14:04:40Z</time>
      </trkpt>
      <trkpt lat="49.36757" lon="-1.40017">
        <ele>12.7</ele>
        <time>2022-01-29T14:04:45Z</time>
      </trkpt>
      <trkpt lat="49.36762" lon="-1.40016">
        <ele>12.8</ele>
        <time>2022-01-29T14:04:48Z</time>
      </trkpt>
      <trkpt lat="49.36767" lon="-1.40017">
        <ele>13</ele>
        <time>2022-01-29T14:04:51Z</time>
      </trkpt>
      <trkpt lat="49.36772" lon="-1.40019">
        <ele>13.2</ele>
        <time>2022-01-29T14:04:54Z</time>
      </trkpt>
      <trkpt lat="49.36776" lon="-1.40022">
        <ele>13.2</ele>
        <time>2022-01-29T14:04:58Z</time>
      </trkpt>
      <trkpt lat="49.36782" lon="-1.40023">
        <ele>13.2</ele>
        <time>2022-01-29T14:05:03Z</time>
      </trkpt>
      <trkpt lat="49.36788" lon="-1.40025">
        <ele>13.7</ele>
        <time>2022-01-29T14:05:08Z</time>
      </trkpt>
      <trkpt lat="49.36792" lon="-1.40025">
        <ele>14.2</ele>
        <time>2022-01-29T14:05:12Z</time>
      </trkpt>
      <trkpt lat="49.36798" lon="-1.40029">
        <ele>14.4</ele>
        <time>2022-01-29T14:05:16Z</time>
      </trkpt>
      <trkpt lat="49.36804" lon="-1.40031">
        <ele>14.4</ele>
        <time>2022-01-29T14:05:21Z</time>
      </trkpt>
      <trkpt lat="49.36809" lon="-1.40029">
        <ele>13.9</ele>
        <time>2022-01-29T14:05:24Z</time>
      </trkpt>
      <trkpt lat="49.36814" lon="-1.40028">
        <ele>13.7</ele>
        <time>2022-01-29T14:05:27Z</time>
      </trkpt>
      <trkpt lat="49.3682" lon="-1.40027">
        <ele>13.3</ele>
        <time>2022-01-29T14:05:31Z</time>
      </trkpt>
      <trkpt lat="49.36825" lon="-1.40027">
        <ele>13.2</ele>
        <time>2022-01-29T14:05:34Z</time>
      </trkpt>
      <trkpt lat="49.3683" lon="-1.40027">
        <ele>12.8</ele>
        <time>2022-01-29T14:05:37Z</time>
      </trkpt>
      <trkpt lat="49.36835" lon="-1.40027">
        <ele>12.5</ele>
        <time>2022-01-29T14:05:41Z</time>
      </trkpt>
      <trkpt lat="49.36841" lon="-1.40027">
        <ele>12.6</ele>
        <time>2022-01-29T14:05:44Z</time>
      </trkpt>
      <trkpt lat="49.36846" lon="-1.40027">
        <ele>12.7</ele>
        <time>2022-01-29T14:05:47Z</time>
      </trkpt>
      <trkpt lat="49.36852" lon="-1.40027">
        <ele>12.9</ele>
        <time>2022-01-29T14:05:51Z</time>
      </trkpt>
      <trkpt lat="49.36858" lon="-1.40026">
        <ele>12.8</ele>
        <time>2022-01-29T14:05:55Z</time>
      </trkpt>
      <trkpt lat="49.36863" lon="-1.40027">
        <ele>12.6</ele>
        <time>2022-01-29T14:05:59Z</time>
      </trkpt>
      <trkpt lat="49.36868" lon="-1.40027">
        <ele>12.6</ele>
        <time>2022-01-29T14:06:03Z</time>
      </trkpt>
      <trkpt lat="49.36874" lon="-1.40028">
        <ele>12.9</ele>
        <time>2022-01-29T14:06:08Z</time>
      </trkpt>
      <trkpt lat="49.36878" lon="-1.40028">
        <ele>13.1</ele>
        <time>2022-01-29T14:06:11Z</time>
      </trkpt>
      <trkpt lat="49.36885" lon="-1.40027">
        <ele>13.3</ele>
        <time>2022-01-29T14:06:15Z</time>
      </trkpt>
      <trkpt lat="49.3689" lon="-1.40027">
        <ele>13.4</ele>
        <time>2022-01-29T14:06:19Z</time>
      </trkpt>
      <trkpt lat="49.36895" lon="-1.40027">
        <ele>13.4</ele>
        <time>2022-01-29T14:06:22Z</time>
      </trkpt>
      <trkpt lat="49.369" lon="-1.40027">
        <ele>13.5</ele>
        <time>2022-01-29T14:06:26Z</time>
      </trkpt>
      <trkpt lat="49.36905" lon="-1.40027">
        <ele>13.5</ele>
        <time>2022-01-29T14:06:29Z</time>
      </trkpt>
      <trkpt lat="49.3691" lon="-1.40027">
        <ele>13.7</ele>
        <time>2022-01-29T14:06:32Z</time>
      </trkpt>
      <trkpt lat="49.36915" lon="-1.40028">
        <ele>13.6</ele>
        <time>2022-01-29T14:06:37Z</time>
      </trkpt>
      <trkpt lat="49.36921" lon="-1.40029">
        <ele>13.6</ele>
        <time>2022-01-29T14:06:41Z</time>
      </trkpt>
      <trkpt lat="49.36926" lon="-1.40027">
        <ele>13.3</ele>
        <time>2022-01-29T14:06:46Z</time>
      </trkpt>
      <trkpt lat="49.36931" lon="-1.40025">
        <ele>12.8</ele>
        <time>2022-01-29T14:06:51Z</time>
      </trkpt>
      <trkpt lat="49.36936" lon="-1.40026">
        <ele>12.5</ele>
        <time>2022-01-29T14:06:54Z</time>
      </trkpt>
      <trkpt lat="49.36941" lon="-1.40027">
        <ele>12.6</ele>
        <time>2022-01-29T14:06:57Z</time>
      </trkpt>
      <trkpt lat="49.36946" lon="-1.40026">
        <ele>12.7</ele>
        <time>2022-01-29T14:07:01Z</time>
      </trkpt>
      <trkpt lat="49.3695" lon="-1.40023">
        <ele>12.9</ele>
        <time>2022-01-29T14:07:04Z</time>
      </trkpt>
      <trkpt lat="49.36956" lon="-1.40022">
        <ele>13.4</ele>
        <time>2022-01-29T14:07:09Z</time>
      </trkpt>
      <trkpt lat="49.36961" lon="-1.40022">
        <ele>13.8</ele>
        <time>2022-01-29T14:07:12Z</time>
      </trkpt>
      <trkpt lat="49.36966" lon="-1.40023">
        <ele>14.1</ele>
        <time>2022-01-29T14:07:16Z</time>
      </trkpt>
      <trkpt lat="49.36971" lon="-1.40021">
        <ele>14.2</ele>
        <time>2022-01-29T14:07:20Z</time>
      </trkpt>
      <trkpt lat="49.36976" lon="-1.40018">
        <ele>14.3</ele>
        <time>2022-01-29T14:07:25Z</time>
      </trkpt>
      <trkpt lat="49.36982" lon="-1.40017">
        <ele>14.4</ele>
        <time>2022-01-29T14:07:29Z</time>
      </trkpt>
      <trkpt lat="49.36987" lon="-1.40014">
        <ele>14.9</ele>
        <time>2022-01-29T14:07:34Z</time>
      </trkpt>
      <trkpt lat="49.36992" lon="-1.40012">
        <ele>15.2</ele>
        <time>2022-01-29T14:07:38Z</time>
      </trkpt>
      <trkpt lat="49.36997" lon="-1.4001">
        <ele>15.3</ele>
        <time>2022-01-29T14:07:47Z</time>
      </trkpt>
      <trkpt lat="49.37003" lon="-1.40006">
        <ele>15.3</ele>
        <time>2022-01-29T14:07:52Z</time>
      </trkpt>
      <trkpt lat="49.37008" lon="-1.40001">
        <ele>15.2</ele>
        <time>2022-01-29T14:07:56Z</time>
      </trkpt>
      <trkpt lat="49.37012" lon="-1.4">
        <ele>15.3</ele>
        <time>2022-01-29T14:07:59Z</time>
      </trkpt>
      <trkpt lat="49.37017" lon="-1.39999">
        <ele>15.4</ele>
        <time>2022-01-29T14:08:02Z</time>
      </trkpt>
      <trkpt lat="49.37023" lon="-1.39998">
        <ele>15.4</ele>
        <time>2022-01-29T14:08:06Z</time>
      </trkpt>
      <trkpt lat="49.37029" lon="-1.39996">
        <ele>15.3</ele>
        <time>2022-01-29T14:08:10Z</time>
      </trkpt>
      <trkpt lat="49.37033" lon="-1.39994">
        <ele>15.3</ele>
        <time>2022-01-29T14:08:13Z</time>
      </trkpt>
      <trkpt lat="49.37038" lon="-1.39991">
        <ele>15.5</ele>
        <time>2022-01-29T14:08:16Z</time>
      </trkpt>
      <trkpt lat="49.37043" lon="-1.39988">
        <ele>15.7</ele>
        <time>2022-01-29T14:08:20Z</time>
      </trkpt>
      <trkpt lat="49.37048" lon="-1.39986">
        <ele>15.8</ele>
        <time>2022-01-29T14:08:23Z</time>
      </trkpt>
      <trkpt lat="49.37052" lon="-1.39984">
        <ele>15.8</ele>
        <time>2022-01-29T14:08:27Z</time>
      </trkpt>
      <trkpt lat="49.37058" lon="-1.39982">
        <ele>15.7</ele>
        <time>2022-01-29T14:08:31Z</time>
      </trkpt>
      <trkpt lat="49.37062" lon="-1.39979">
        <ele>15.9</ele>
        <time>2022-01-29T14:08:34Z</time>
      </trkpt>
      <trkpt lat="49.37069" lon="-1.39978">
        <ele>16.3</ele>
        <time>2022-01-29T14:08:38Z</time>
      </trkpt>
      <trkpt lat="49.37074" lon="-1.39979">
        <ele>16.7</ele>
        <time>2022-01-29T14:08:41Z</time>
      </trkpt>
      <trkpt lat="49.3708" lon="-1.39983">
        <ele>17</ele>
        <time>2022-01-29T14:08:45Z</time>
      </trkpt>
      <trkpt lat="49.37083" lon="-1.39989">
        <ele>17.1</ele>
        <time>2022-01-29T14:08:48Z</time>
      </trkpt>
      <trkpt lat="49.37085" lon="-1.39997">
        <ele>17.1</ele>
        <time>2022-01-29T14:08:52Z</time>
      </trkpt>
      <trkpt lat="49.37087" lon="-1.40006">
        <ele>17.1</ele>
        <time>2022-01-29T14:08:55Z</time>
      </trkpt>
      <trkpt lat="49.37088" lon="-1.40014">
        <ele>17.1</ele>
        <time>2022-01-29T14:08:59Z</time>
      </trkpt>
      <trkpt lat="49.37088" lon="-1.40023">
        <ele>17</ele>
        <time>2022-01-29T14:09:03Z</time>
      </trkpt>
      <trkpt lat="49.3709" lon="-1.40031">
        <ele>17.1</ele>
        <time>2022-01-29T14:09:07Z</time>
      </trkpt>
      <trkpt lat="49.37091" lon="-1.40038">
        <ele>17.1</ele>
        <time>2022-01-29T14:09:10Z</time>
      </trkpt>
      <trkpt lat="49.37092" lon="-1.40045">
        <ele>17.2</ele>
        <time>2022-01-29T14:09:14Z</time>
      </trkpt>
      <trkpt lat="49.37093" lon="-1.40052">
        <ele>17.2</ele>
        <time>2022-01-29T14:09:17Z</time>
      </trkpt>
      <trkpt lat="49.37096" lon="-1.40057">
        <ele>17.5</ele>
        <time>2022-01-29T14:09:20Z</time>
      </trkpt>
      <trkpt lat="49.371" lon="-1.40061">
        <ele>17.6</ele>
        <time>2022-01-29T14:09:22Z</time>
      </trkpt>
      <trkpt lat="49.37106" lon="-1.4006">
        <ele>17.8</ele>
        <time>2022-01-29T14:09:26Z</time>
      </trkpt>
      <trkpt lat="49.37111" lon="-1.40059">
        <ele>17.9</ele>
        <time>2022-01-29T14:09:28Z</time>
      </trkpt>
      <trkpt lat="49.37116" lon="-1.40057">
        <ele>18</ele>
        <time>2022-01-29T14:09:31Z</time>
      </trkpt>
      <trkpt lat="49.37121" lon="-1.40053">
        <ele>18.3</ele>
        <time>2022-01-29T14:09:35Z</time>
      </trkpt>
      <trkpt lat="49.37126" lon="-1.40048">
        <ele>18.3</ele>
        <time>2022-01-29T14:09:39Z</time>
      </trkpt>
      <trkpt lat="49.3713" lon="-1.40046">
        <ele>18.4</ele>
        <time>2022-01-29T14:09:42Z</time>
      </trkpt>
      <trkpt lat="49.37135" lon="-1.40044">
        <ele>18.5</ele>
        <time>2022-01-29T14:09:45Z</time>
      </trkpt>
      <trkpt lat="49.3714" lon="-1.40042">
        <ele>18.6</ele>
        <time>2022-01-29T14:09:48Z</time>
      </trkpt>
      <trkpt lat="49.37144" lon="-1.40039">
        <ele>18.8</ele>
        <time>2022-01-29T14:09:52Z</time>
      </trkpt>
      <trkpt lat="49.37149" lon="-1.40036">
        <ele>18.5</ele>
        <time>2022-01-29T14:09:56Z</time>
      </trkpt>
      <trkpt lat="49.37155" lon="-1.40033">
        <ele>18.1</ele>
        <time>2022-01-29T14:10:00Z</time>
      </trkpt>
      <trkpt lat="49.3716" lon="-1.40031">
        <ele>17.9</ele>
        <time>2022-01-29T14:10:04Z</time>
      </trkpt>
      <trkpt lat="49.37165" lon="-1.40029">
        <ele>18</ele>
        <time>2022-01-29T14:10:07Z</time>
      </trkpt>
      <trkpt lat="49.37169" lon="-1.40026">
        <ele>18.2</ele>
        <time>2022-01-29T14:10:11Z</time>
      </trkpt>
      <trkpt lat="49.37175" lon="-1.40023">
        <ele>18.3</ele>
        <time>2022-01-29T14:10:15Z</time>
      </trkpt>
      <trkpt lat="49.37179" lon="-1.4002">
        <ele>18.3</ele>
        <time>2022-01-29T14:10:18Z</time>
      </trkpt>
      <trkpt lat="49.37183" lon="-1.40018">
        <ele>18.4</ele>
        <time>2022-01-29T14:10:21Z</time>
      </trkpt>
      <trkpt lat="49.37188" lon="-1.40016">
        <ele>18.5</ele>
        <time>2022-01-29T14:10:24Z</time>
      </trkpt>
      <trkpt lat="49.37193" lon="-1.40015">
        <ele>18.7</ele>
        <time>2022-01-29T14:10:27Z</time>
      </trkpt>
      <trkpt lat="49.37198" lon="-1.40013">
        <ele>18.9</ele>
        <time>2022-01-29T14:10:31Z</time>
      </trkpt>
      <trkpt lat="49.37203" lon="-1.40011">
        <ele>19.2</ele>
        <time>2022-01-29T14:10:33Z</time>
      </trkpt>
      <trkpt lat="49.37208" lon="-1.40008">
        <ele>19.3</ele>
        <time>2022-01-29T14:10:37Z</time>
      </trkpt>
      <trkpt lat="49.37213" lon="-1.40006">
        <ele>19.5</ele>
        <time>2022-01-29T14:10:40Z</time>
      </trkpt>
      <trkpt lat="49.37218" lon="-1.40004">
        <ele>19.4</ele>
        <time>2022-01-29T14:10:44Z</time>
      </trkpt>
      <trkpt lat="49.37224" lon="-1.40003">
        <ele>19.2</ele>
        <time>2022-01-29T14:10:48Z</time>
      </trkpt>
      <trkpt lat="49.37229" lon="-1.40001">
        <ele>19</ele>
        <time>2022-01-29T14:10:52Z</time>
      </trkpt>
      <trkpt lat="49.37234" lon="-1.39999">
        <ele>19.1</ele>
        <time>2022-01-29T14:10:55Z</time>
      </trkpt>
      <trkpt lat="49.37239" lon="-1.39999">
        <ele>19.2</ele>
        <time>2022-01-29T14:10:58Z</time>
      </trkpt>
      <trkpt lat="49.37244" lon="-1.39998">
        <ele>19.4</ele>
        <time>2022-01-29T14:11:02Z</time>
      </trkpt>
      <trkpt lat="49.37251" lon="-1.39997">
        <ele>19.5</ele>
        <time>2022-01-29T14:11:07Z</time>
      </trkpt>
      <trkpt lat="49.37256" lon="-1.39997">
        <ele>19.2</ele>
        <time>2022-01-29T14:11:15Z</time>
      </trkpt>
      <trkpt lat="49.3726" lon="-1.39999">
        <ele>19.3</ele>
        <time>2022-01-29T14:11:20Z</time>
      </trkpt>
      <trkpt lat="49.37266" lon="-1.4">
        <ele>19.4</ele>
        <time>2022-01-29T14:11:24Z</time>
      </trkpt>
      <trkpt lat="49.37271" lon="-1.4">
        <ele>19.4</ele>
        <time>2022-01-29T14:11:28Z</time>
      </trkpt>
      <trkpt lat="49.37276" lon="-1.4">
        <ele>19.3</ele>
        <time>2022-01-29T14:11:32Z</time>
      </trkpt>
      <trkpt lat="49.37282" lon="-1.40001">
        <ele>19.2</ele>
        <time>2022-01-29T14:11:36Z</time>
      </trkpt>
      <trkpt lat="49.37287" lon="-1.40001">
        <ele>19.1</ele>
        <time>2022-01-29T14:11:39Z</time>
      </trkpt>
      <trkpt lat="49.37291" lon="-1.40001">
        <ele>19.1</ele>
        <time>2022-01-29T14:11:42Z</time>
      </trkpt>
      <trkpt lat="49.37298" lon="-1.40002">
        <ele>19.2</ele>
        <time>2022-01-29T14:11:47Z</time>
      </trkpt>
      <trkpt lat="49.37303" lon="-1.40003">
        <ele>19.3</ele>
        <time>2022-01-29T14:11:50Z</time>
      </trkpt>
      <trkpt lat="49.37308" lon="-1.40004">
        <ele>19.4</ele>
        <time>2022-01-29T14:11:54Z</time>
      </trkpt>
      <trkpt lat="49.37314" lon="-1.40005">
        <ele>19.1</ele>
        <time>2022-01-29T14:11:58Z</time>
      </trkpt>
      <trkpt lat="49.3732" lon="-1.40006">
        <ele>19</ele>
        <time>2022-01-29T14:12:02Z</time>
      </trkpt>
      <trkpt lat="49.37325" lon="-1.40006">
        <ele>19</ele>
        <time>2022-01-29T14:12:05Z</time>
      </trkpt>
      <trkpt lat="49.3733" lon="-1.40006">
        <ele>19</ele>
        <time>2022-01-29T14:12:09Z</time>
      </trkpt>
      <trkpt lat="49.37335" lon="-1.40005">
        <ele>17.3</ele>
        <time>2022-01-29T14:12:32Z</time>
      </trkpt>
      <trkpt lat="49.37339" lon="-1.40001">
        <ele>16.8</ele>
        <time>2022-01-29T14:12:51Z</time>
      </trkpt>
      <trkpt lat="49.37344" lon="-1.39995">
        <ele>16.8</ele>
        <time>2022-01-29T14:12:54Z</time>
      </trkpt>
      <trkpt lat="49.37346" lon="-1.39986">
        <ele>16.9</ele>
        <time>2022-01-29T14:12:58Z</time>
      </trkpt>
      <trkpt lat="49.37341" lon="-1.39981">
        <ele>17.3</ele>
        <time>2022-01-29T14:13:14Z</time>
      </trkpt>
      <trkpt lat="49.37337" lon="-1.39973">
        <ele>17.4</ele>
        <time>2022-01-29T14:13:19Z</time>
      </trkpt>
      <trkpt lat="49.37337" lon="-1.39966">
        <ele>17.3</ele>
        <time>2022-01-29T14:13:21Z</time>
      </trkpt>
      <trkpt lat="49.37339" lon="-1.39958">
        <ele>16.2</ele>
        <time>2022-01-29T14:13:33Z</time>
      </trkpt>
      <trkpt lat="49.37336" lon="-1.39951">
        <ele>16.1</ele>
        <time>2022-01-29T14:13:35Z</time>
      </trkpt>
      <trkpt lat="49.37334" lon="-1.39945">
        <ele>15.9</ele>
        <time>2022-01-29T14:13:37Z</time>
      </trkpt>
      <trkpt lat="49.37331" lon="-1.39938">
        <ele>15.7</ele>
        <time>2022-01-29T14:13:41Z</time>
      </trkpt>
      <trkpt lat="49.37328" lon="-1.39928">
        <ele>15.7</ele>
        <time>2022-01-29T14:13:46Z</time>
      </trkpt>
      <trkpt lat="49.37326" lon="-1.39921">
        <ele>15.7</ele>
        <time>2022-01-29T14:13:50Z</time>
      </trkpt>
      <trkpt lat="49.37324" lon="-1.39913">
        <ele>15.8</ele>
        <time>2022-01-29T14:13:53Z</time>
      </trkpt>
      <trkpt lat="49.37321" lon="-1.39905">
        <ele>15.7</ele>
        <time>2022-01-29T14:13:57Z</time>
      </trkpt>
      <trkpt lat="49.37319" lon="-1.39897">
        <ele>15.5</ele>
        <time>2022-01-29T14:14:01Z</time>
      </trkpt>
      <trkpt lat="49.37315" lon="-1.39893">
        <ele>15.5</ele>
        <time>2022-01-29T14:14:05Z</time>
      </trkpt>
      <trkpt lat="49.37317" lon="-1.39885">
        <ele>15.5</ele>
        <time>2022-01-29T14:14:08Z</time>
      </trkpt>
      <trkpt lat="49.37316" lon="-1.39878">
        <ele>15.2</ele>
        <time>2022-01-29T14:14:15Z</time>
      </trkpt>
      <trkpt lat="49.37316" lon="-1.39871">
        <ele>14.8</ele>
        <time>2022-01-29T14:14:18Z</time>
      </trkpt>
      <trkpt lat="49.37312" lon="-1.39864">
        <ele>14.6</ele>
        <time>2022-01-29T14:14:23Z</time>
      </trkpt>
      <trkpt lat="49.3731" lon="-1.39858">
        <ele>14.5</ele>
        <time>2022-01-29T14:14:26Z</time>
      </trkpt>
      <trkpt lat="49.3731" lon="-1.3985">
        <ele>14.5</ele>
        <time>2022-01-29T14:14:28Z</time>
      </trkpt>
      <trkpt lat="49.3731" lon="-1.39841">
        <ele>14.6</ele>
        <time>2022-01-29T14:14:32Z</time>
      </trkpt>
      <trkpt lat="49.37313" lon="-1.39835">
        <ele>14.5</ele>
        <time>2022-01-29T14:14:36Z</time>
      </trkpt>
      <trkpt lat="49.37318" lon="-1.39831">
        <ele>14.3</ele>
        <time>2022-01-29T14:14:40Z</time>
      </trkpt>
      <trkpt lat="49.37321" lon="-1.39824">
        <ele>13.9</ele>
        <time>2022-01-29T14:14:55Z</time>
      </trkpt>
      <trkpt lat="49.37324" lon="-1.39813">
        <ele>13.9</ele>
        <time>2022-01-29T14:14:58Z</time>
      </trkpt>
      <trkpt lat="49.37325" lon="-1.39804">
        <ele>13.9</ele>
        <time>2022-01-29T14:15:00Z</time>
      </trkpt>
      <trkpt lat="49.37326" lon="-1.39796">
        <ele>13.8</ele>
        <time>2022-01-29T14:15:03Z</time>
      </trkpt>
      <trkpt lat="49.37328" lon="-1.39787">
        <ele>13.7</ele>
        <time>2022-01-29T14:15:07Z</time>
      </trkpt>
      <trkpt lat="49.37328" lon="-1.3978">
        <ele>13.5</ele>
        <time>2022-01-29T14:15:11Z</time>
      </trkpt>
      <trkpt lat="49.37329" lon="-1.39772">
        <ele>13.3</ele>
        <time>2022-01-29T14:15:15Z</time>
      </trkpt>
      <trkpt lat="49.3733" lon="-1.39765">
        <ele>13.1</ele>
        <time>2022-01-29T14:15:19Z</time>
      </trkpt>
      <trkpt lat="49.37331" lon="-1.39758">
        <ele>13.1</ele>
        <time>2022-01-29T14:15:22Z</time>
      </trkpt>
      <trkpt lat="49.37331" lon="-1.3975">
        <ele>13</ele>
        <time>2022-01-29T14:15:26Z</time>
      </trkpt>
      <trkpt lat="49.37333" lon="-1.39741">
        <ele>13</ele>
        <time>2022-01-29T14:15:30Z</time>
      </trkpt>
      <trkpt lat="49.37334" lon="-1.39734">
        <ele>13</ele>
        <time>2022-01-29T14:15:33Z</time>
      </trkpt>
      <trkpt lat="49.37334" lon="-1.39726">
        <ele>13</ele>
        <time>2022-01-29T14:15:37Z</time>
      </trkpt>
      <trkpt lat="49.37334" lon="-1.39719">
        <ele>13.1</ele>
        <time>2022-01-29T14:15:40Z</time>
      </trkpt>
      <trkpt lat="49.37335" lon="-1.39711">
        <ele>13.2</ele>
        <time>2022-01-29T14:15:43Z</time>
      </trkpt>
      <trkpt lat="49.37335" lon="-1.39703">
        <ele>13.2</ele>
        <time>2022-01-29T14:15:48Z</time>
      </trkpt>
      <trkpt lat="49.37335" lon="-1.39694">
        <ele>12.9</ele>
        <time>2022-01-29T14:15:52Z</time>
      </trkpt>
      <trkpt lat="49.37335" lon="-1.39687">
        <ele>12.7</ele>
        <time>2022-01-29T14:15:55Z</time>
      </trkpt>
      <trkpt lat="49.37336" lon="-1.39679">
        <ele>12.7</ele>
        <time>2022-01-29T14:15:59Z</time>
      </trkpt>
      <trkpt lat="49.37339" lon="-1.39672">
        <ele>12.7</ele>
        <time>2022-01-29T14:16:05Z</time>
      </trkpt>
      <trkpt lat="49.37338" lon="-1.39664">
        <ele>12.7</ele>
        <time>2022-01-29T14:16:08Z</time>
      </trkpt>
      <trkpt lat="49.37338" lon="-1.39655">
        <ele>12.4</ele>
        <time>2022-01-29T14:16:12Z</time>
      </trkpt>
      <trkpt lat="49.3734" lon="-1.39647">
        <ele>12.7</ele>
        <time>2022-01-29T14:16:16Z</time>
      </trkpt>
      <trkpt lat="49.3734" lon="-1.39639">
        <ele>12.8</ele>
        <time>2022-01-29T14:16:19Z</time>
      </trkpt>
      <trkpt lat="49.37341" lon="-1.39631">
        <ele>13.5</ele>
        <time>2022-01-29T14:16:22Z</time>
      </trkpt>
      <trkpt lat="49.37341" lon="-1.39623">
        <ele>13.6</ele>
        <time>2022-01-29T14:16:26Z</time>
      </trkpt>
      <trkpt lat="49.37343" lon="-1.39615">
        <ele>13.8</ele>
        <time>2022-01-29T14:16:30Z</time>
      </trkpt>
      <trkpt lat="49.37343" lon="-1.39607">
        <ele>13.5</ele>
        <time>2022-01-29T14:16:33Z</time>
      </trkpt>
      <trkpt lat="49.37344" lon="-1.396">
        <ele>13.2</ele>
        <time>2022-01-29T14:16:37Z</time>
      </trkpt>
      <trkpt lat="49.37344" lon="-1.39592">
        <ele>13</ele>
        <time>2022-01-29T14:16:41Z</time>
      </trkpt>
      <trkpt lat="49.37345" lon="-1.39585">
        <ele>12.9</ele>
        <time>2022-01-29T14:16:44Z</time>
      </trkpt>
      <trkpt lat="49.37346" lon="-1.39576">
        <ele>12.9</ele>
        <time>2022-01-29T14:16:49Z</time>
      </trkpt>
      <trkpt lat="49.37346" lon="-1.39567">
        <ele>12.9</ele>
        <time>2022-01-29T14:16:53Z</time>
      </trkpt>
      <trkpt lat="49.37346" lon="-1.3956">
        <ele>12.7</ele>
        <time>2022-01-29T14:16:57Z</time>
      </trkpt>
      <trkpt lat="49.37346" lon="-1.39551">
        <ele>12.4</ele>
        <time>2022-01-29T14:17:02Z</time>
      </trkpt>
      <trkpt lat="49.37347" lon="-1.39544">
        <ele>12.1</ele>
        <time>2022-01-29T14:17:05Z</time>
      </trkpt>
      <trkpt lat="49.37347" lon="-1.39537">
        <ele>11.8</ele>
        <time>2022-01-29T14:17:08Z</time>
      </trkpt>
      <trkpt lat="49.37347" lon="-1.39528">
        <ele>11.6</ele>
        <time>2022-01-29T14:17:12Z</time>
      </trkpt>
      <trkpt lat="49.37347" lon="-1.39519">
        <ele>11.3</ele>
        <time>2022-01-29T14:17:17Z</time>
      </trkpt>
      <trkpt lat="49.37348" lon="-1.39511">
        <ele>11.1</ele>
        <time>2022-01-29T14:17:21Z</time>
      </trkpt>
      <trkpt lat="49.37349" lon="-1.39502">
        <ele>11</ele>
        <time>2022-01-29T14:17:25Z</time>
      </trkpt>
      <trkpt lat="49.37349" lon="-1.39494">
        <ele>10.9</ele>
        <time>2022-01-29T14:17:29Z</time>
      </trkpt>
      <trkpt lat="49.37351" lon="-1.39486">
        <ele>11</ele>
        <time>2022-01-29T14:17:33Z</time>
      </trkpt>
      <trkpt lat="49.37351" lon="-1.39478">
        <ele>11.1</ele>
        <time>2022-01-29T14:17:38Z</time>
      </trkpt>
      <trkpt lat="49.37352" lon="-1.39469">
        <ele>11.2</ele>
        <time>2022-01-29T14:17:42Z</time>
      </trkpt>
      <trkpt lat="49.37351" lon="-1.39462">
        <ele>11.1</ele>
        <time>2022-01-29T14:17:46Z</time>
      </trkpt>
      <trkpt lat="49.3735" lon="-1.39454">
        <ele>11</ele>
        <time>2022-01-29T14:17:49Z</time>
      </trkpt>
      <trkpt lat="49.3735" lon="-1.39446">
        <ele>10.8</ele>
        <time>2022-01-29T14:17:52Z</time>
      </trkpt>
      <trkpt lat="49.3735" lon="-1.39437">
        <ele>10.8</ele>
        <time>2022-01-29T14:17:56Z</time>
      </trkpt>
      <trkpt lat="49.37351" lon="-1.3943">
        <ele>11</ele>
        <time>2022-01-29T14:17:59Z</time>
      </trkpt>
      <trkpt lat="49.37352" lon="-1.39422">
        <ele>11</ele>
        <time>2022-01-29T14:18:03Z</time>
      </trkpt>
      <trkpt lat="49.37353" lon="-1.39414">
        <ele>11.1</ele>
        <time>2022-01-29T14:18:07Z</time>
      </trkpt>
      <trkpt lat="49.37353" lon="-1.39406">
        <ele>10.9</ele>
        <time>2022-01-29T14:18:10Z</time>
      </trkpt>
      <trkpt lat="49.37353" lon="-1.39397">
        <ele>10.8</ele>
        <time>2022-01-29T14:18:15Z</time>
      </trkpt>
      <trkpt lat="49.37352" lon="-1.39389">
        <ele>10.9</ele>
        <time>2022-01-29T14:18:19Z</time>
      </trkpt>
      <trkpt lat="49.37352" lon="-1.3938">
        <ele>11.1</ele>
        <time>2022-01-29T14:18:24Z</time>
      </trkpt>
      <trkpt lat="49.37351" lon="-1.39372">
        <ele>11</ele>
        <time>2022-01-29T14:18:28Z</time>
      </trkpt>
      <trkpt lat="49.37351" lon="-1.39363">
        <ele>10.8</ele>
        <time>2022-01-29T14:18:33Z</time>
      </trkpt>
      <trkpt lat="49.37351" lon="-1.39354">
        <ele>10.8</ele>
        <time>2022-01-29T14:18:37Z</time>
      </trkpt>
      <trkpt lat="49.37351" lon="-1.39347">
        <ele>10.8</ele>
        <time>2022-01-29T14:18:41Z</time>
      </trkpt>
      <trkpt lat="49.37351" lon="-1.39339">
        <ele>10.8</ele>
        <time>2022-01-29T14:18:45Z</time>
      </trkpt>
      <trkpt lat="49.37352" lon="-1.39329">
        <ele>10.7</ele>
        <time>2022-01-29T14:18:50Z</time>
      </trkpt>
      <trkpt lat="49.37351" lon="-1.39321">
        <ele>10.6</ele>
        <time>2022-01-29T14:18:53Z</time>
      </trkpt>
      <trkpt lat="49.37351" lon="-1.39312">
        <ele>10.6</ele>
        <time>2022-01-29T14:18:57Z</time>
      </trkpt>
      <trkpt lat="49.37351" lon="-1.39303">
        <ele>10.7</ele>
        <time>2022-01-29T14:19:01Z</time>
      </trkpt>
      <trkpt lat="49.3735" lon="-1.39296">
        <ele>10.5</ele>
        <time>2022-01-29T14:19:05Z</time>
      </trkpt>
      <trkpt lat="49.3735" lon="-1.39289">
        <ele>10.3</ele>
        <time>2022-01-29T14:19:09Z</time>
      </trkpt>
      <trkpt lat="49.3735" lon="-1.39281">
        <ele>10</ele>
        <time>2022-01-29T14:19:13Z</time>
      </trkpt>
      <trkpt lat="49.3735" lon="-1.39274">
        <ele>9.7</ele>
        <time>2022-01-29T14:19:16Z</time>
      </trkpt>
      <trkpt lat="49.37349" lon="-1.39267">
        <ele>9.5</ele>
        <time>2022-01-29T14:19:19Z</time>
      </trkpt>
      <trkpt lat="49.37348" lon="-1.39259">
        <ele>9.4</ele>
        <time>2022-01-29T14:19:23Z</time>
      </trkpt>
      <trkpt lat="49.37348" lon="-1.39252">
        <ele>9</ele>
        <time>2022-01-29T14:19:26Z</time>
      </trkpt>
      <trkpt lat="49.37347" lon="-1.39245">
        <ele>8.6</ele>
        <time>2022-01-29T14:19:29Z</time>
      </trkpt>
      <trkpt lat="49.37345" lon="-1.39239">
        <ele>8.4</ele>
        <time>2022-01-29T14:19:33Z</time>
      </trkpt>
      <trkpt lat="49.37344" lon="-1.39231">
        <ele>8.3</ele>
        <time>2022-01-29T14:19:36Z</time>
      </trkpt>
      <trkpt lat="49.37343" lon="-1.39223">
        <ele>8.3</ele>
        <time>2022-01-29T14:19:40Z</time>
      </trkpt>
      <trkpt lat="49.3734" lon="-1.39217">
        <ele>8.3</ele>
        <time>2022-01-29T14:19:44Z</time>
      </trkpt>
      <trkpt lat="49.37338" lon="-1.3921">
        <ele>8.3</ele>
        <time>2022-01-29T14:19:48Z</time>
      </trkpt>
      <trkpt lat="49.37336" lon="-1.39201">
        <ele>8.2</ele>
        <time>2022-01-29T14:19:52Z</time>
      </trkpt>
      <trkpt lat="49.37333" lon="-1.39194">
        <ele>8</ele>
        <time>2022-01-29T14:19:56Z</time>
      </trkpt>
      <trkpt lat="49.37331" lon="-1.39187">
        <ele>7.9</ele>
        <time>2022-01-29T14:20:00Z</time>
      </trkpt>
      <trkpt lat="49.3733" lon="-1.39179">
        <ele>7.8</ele>
        <time>2022-01-29T14:20:04Z</time>
      </trkpt>
      <trkpt lat="49.37329" lon="-1.39171">
        <ele>7.6</ele>
        <time>2022-01-29T14:20:08Z</time>
      </trkpt>
      <trkpt lat="49.37329" lon="-1.39163">
        <ele>7.5</ele>
        <time>2022-01-29T14:20:11Z</time>
      </trkpt>
      <trkpt lat="49.37329" lon="-1.39155">
        <ele>7.2</ele>
        <time>2022-01-29T14:20:16Z</time>
      </trkpt>
      <trkpt lat="49.37328" lon="-1.39146">
        <ele>6.6</ele>
        <time>2022-01-29T14:20:20Z</time>
      </trkpt>
      <trkpt lat="49.37328" lon="-1.39137">
        <ele>6.2</ele>
        <time>2022-01-29T14:20:24Z</time>
      </trkpt>
      <trkpt lat="49.37328" lon="-1.3913">
        <ele>5.9</ele>
        <time>2022-01-29T14:20:27Z</time>
      </trkpt>
      <trkpt lat="49.37328" lon="-1.39122">
        <ele>5.9</ele>
        <time>2022-01-29T14:20:31Z</time>
      </trkpt>
      <trkpt lat="49.37328" lon="-1.39115">
        <ele>6</ele>
        <time>2022-01-29T14:20:34Z</time>
      </trkpt>
      <trkpt lat="49.37328" lon="-1.39105">
        <ele>6.2</ele>
        <time>2022-01-29T14:20:39Z</time>
      </trkpt>
      <trkpt lat="49.37329" lon="-1.39096">
        <ele>6.2</ele>
        <time>2022-01-29T14:20:43Z</time>
      </trkpt>
      <trkpt lat="49.37332" lon="-1.39088">
        <ele>5.7</ele>
        <time>2022-01-29T14:20:47Z</time>
      </trkpt>
      <trkpt lat="49.37335" lon="-1.39082">
        <ele>5.6</ele>
        <time>2022-01-29T14:20:51Z</time>
      </trkpt>
      <trkpt lat="49.3734" lon="-1.39078">
        <ele>5.7</ele>
        <time>2022-01-29T14:20:54Z</time>
      </trkpt>
      <trkpt lat="49.37344" lon="-1.39076">
        <ele>5.7</ele>
        <time>2022-01-29T14:20:57Z</time>
      </trkpt>
      <trkpt lat="49.37349" lon="-1.39074">
        <ele>5.6</ele>
        <time>2022-01-29T14:21:01Z</time>
      </trkpt>
      <trkpt lat="49.37353" lon="-1.39072">
        <ele>5.5</ele>
        <time>2022-01-29T14:21:05Z</time>
      </trkpt>
      <trkpt lat="49.37358" lon="-1.3907">
        <ele>5.2</ele>
        <time>2022-01-29T14:21:10Z</time>
      </trkpt>
      <trkpt lat="49.37363" lon="-1.39073">
        <ele>5.2</ele>
        <time>2022-01-29T14:21:13Z</time>
      </trkpt>
      <trkpt lat="49.37369" lon="-1.39075">
        <ele>5.3</ele>
        <time>2022-01-29T14:21:17Z</time>
      </trkpt>
      <trkpt lat="49.37373" lon="-1.39078">
        <ele>5.4</ele>
        <time>2022-01-29T14:21:21Z</time>
      </trkpt>
      <trkpt lat="49.37379" lon="-1.39075">
        <ele>5.3</ele>
        <time>2022-01-29T14:21:25Z</time>
      </trkpt>
      <trkpt lat="49.37383" lon="-1.39072">
        <ele>5</ele>
        <time>2022-01-29T14:21:27Z</time>
      </trkpt>
      <trkpt lat="49.37388" lon="-1.39067">
        <ele>4.7</ele>
        <time>2022-01-29T14:21:30Z</time>
      </trkpt>
      <trkpt lat="49.37392" lon="-1.39062">
        <ele>4.6</ele>
        <time>2022-01-29T14:21:34Z</time>
      </trkpt>
      <trkpt lat="49.37397" lon="-1.39058">
        <ele>4.6</ele>
        <time>2022-01-29T14:21:38Z</time>
      </trkpt>
      <trkpt lat="49.37402" lon="-1.39055">
        <ele>4.5</ele>
        <time>2022-01-29T14:21:41Z</time>
      </trkpt>
      <trkpt lat="49.37406" lon="-1.39053">
        <ele>4.2</ele>
        <time>2022-01-29T14:21:46Z</time>
      </trkpt>
      <trkpt lat="49.37402" lon="-1.39049">
        <ele>3.3</ele>
        <time>2022-01-29T14:21:54Z</time>
      </trkpt>
      <trkpt lat="49.37399" lon="-1.39042">
        <ele>3.1</ele>
        <time>2022-01-29T14:21:56Z</time>
      </trkpt>
      <trkpt lat="49.37398" lon="-1.39035">
        <ele>2.9</ele>
        <time>2022-01-29T14:21:58Z</time>
      </trkpt>
      <trkpt lat="49.37399" lon="-1.39027">
        <ele>2.8</ele>
        <time>2022-01-29T14:22:01Z</time>
      </trkpt>
      <trkpt lat="49.37399" lon="-1.39019">
        <ele>2.4</ele>
        <time>2022-01-29T14:22:04Z</time>
      </trkpt>
      <trkpt lat="49.37398" lon="-1.3901">
        <ele>2.2</ele>
        <time>2022-01-29T14:22:09Z</time>
      </trkpt>
      <trkpt lat="49.37397" lon="-1.39003">
        <ele>2.1</ele>
        <time>2022-01-29T14:22:12Z</time>
      </trkpt>
      <trkpt lat="49.37396" lon="-1.38995">
        <ele>2.3</ele>
        <time>2022-01-29T14:22:15Z</time>
      </trkpt>
      <trkpt lat="49.37394" lon="-1.38987">
        <ele>2.3</ele>
        <time>2022-01-29T14:22:19Z</time>
      </trkpt>
      <trkpt lat="49.37396" lon="-1.38978">
        <ele>2.2</ele>
        <time>2022-01-29T14:22:23Z</time>
      </trkpt>
      <trkpt lat="49.37395" lon="-1.38969">
        <ele>2.2</ele>
        <time>2022-01-29T14:22:28Z</time>
      </trkpt>
      <trkpt lat="49.37394" lon="-1.38961">
        <ele>2.2</ele>
        <time>2022-01-29T14:22:31Z</time>
      </trkpt>
      <trkpt lat="49.37394" lon="-1.38953">
        <ele>2.1</ele>
        <time>2022-01-29T14:22:34Z</time>
      </trkpt>
      <trkpt lat="49.37393" lon="-1.38946">
        <ele>2</ele>
        <time>2022-01-29T14:22:38Z</time>
      </trkpt>
      <trkpt lat="49.37388" lon="-1.38944">
        <ele>1.7</ele>
        <time>2022-01-29T14:22:43Z</time>
      </trkpt>
      <trkpt lat="49.37387" lon="-1.38937">
        <ele>1.5</ele>
        <time>2022-01-29T14:22:46Z</time>
      </trkpt>
      <trkpt lat="49.37387" lon="-1.38927">
        <ele>1.4</ele>
        <time>2022-01-29T14:22:49Z</time>
      </trkpt>
      <trkpt lat="49.37388" lon="-1.38917">
        <ele>1.4</ele>
        <time>2022-01-29T14:22:52Z</time>
      </trkpt>
      <trkpt lat="49.37387" lon="-1.38909">
        <ele>1.2</ele>
        <time>2022-01-29T14:22:56Z</time>
      </trkpt>
      <trkpt lat="49.37387" lon="-1.389">
        <ele>1.2</ele>
        <time>2022-01-29T14:23:00Z</time>
      </trkpt>
      <trkpt lat="49.37386" lon="-1.38892">
        <ele>1.2</ele>
        <time>2022-01-29T14:23:04Z</time>
      </trkpt>
      <trkpt lat="49.37385" lon="-1.38885">
        <ele>1.2</ele>
        <time>2022-01-29T14:23:07Z</time>
      </trkpt>
      <trkpt lat="49.37385" lon="-1.38877">
        <ele>1.4</ele>
        <time>2022-01-29T14:23:11Z</time>
      </trkpt>
      <trkpt lat="49.37385" lon="-1.38869">
        <ele>1.6</ele>
        <time>2022-01-29T14:23:14Z</time>
      </trkpt>
      <trkpt lat="49.37385" lon="-1.38862">
        <ele>1.4</ele>
        <time>2022-01-29T14:23:17Z</time>
      </trkpt>
      <trkpt lat="49.37383" lon="-1.38855">
        <ele>1.1</ele>
        <time>2022-01-29T14:23:20Z</time>
      </trkpt>
      <trkpt lat="49.37381" lon="-1.38848">
        <ele>0.8</ele>
        <time>2022-01-29T14:23:23Z</time>
      </trkpt>
      <trkpt lat="49.37381" lon="-1.38841">
        <ele>0.4</ele>
        <time>2022-01-29T14:23:26Z</time>
      </trkpt>
      <trkpt lat="49.37382" lon="-1.38831">
        <ele>0.1</ele>
        <time>2022-01-29T14:23:29Z</time>
      </trkpt>
      <trkpt lat="49.37382" lon="-1.38823">
        <ele>-0.2</ele>
        <time>2022-01-29T14:23:33Z</time>
      </trkpt>
      <trkpt lat="49.37382" lon="-1.38816">
        <ele>-0.2</ele>
        <time>2022-01-29T14:23:36Z</time>
      </trkpt>
      <trkpt lat="49.37382" lon="-1.38809">
        <ele>5.3</ele>
        <time>2022-01-29T14:23:39Z</time>
      </trkpt>
      <trkpt lat="49.37381" lon="-1.38801">
        <ele>0.2</ele>
        <time>2022-01-29T14:23:43Z</time>
      </trkpt>
      <trkpt lat="49.37379" lon="-1.38794">
        <ele>0.3</ele>
        <time>2022-01-29T14:23:47Z</time>
      </trkpt>
      <trkpt lat="49.37378" lon="-1.38787">
        <ele>0.2</ele>
        <time>2022-01-29T14:23:50Z</time>
      </trkpt>
      <trkpt lat="49.37379" lon="-1.38777">
        <ele>0.1</ele>
        <time>2022-01-29T14:23:55Z</time>
      </trkpt>
      <trkpt lat="49.37381" lon="-1.3877">
        <ele>5.1</ele>
        <time>2022-01-29T14:23:58Z</time>
      </trkpt>
      <trkpt lat="49.37385" lon="-1.38765">
        <ele>1</ele>
        <time>2022-01-29T14:24:08Z</time>
      </trkpt>
      <trkpt lat="49.37386" lon="-1.38758">
        <ele>0.4</ele>
        <time>2022-01-29T14:24:21Z</time>
      </trkpt>
      <trkpt lat="49.37385" lon="-1.38751">
        <ele>0.3</ele>
        <time>2022-01-29T14:25:13Z</time>
      </trkpt>
      <trkpt lat="49.37384" lon="-1.38743">
        <ele>0.3</ele>
        <time>2022-01-29T14:25:17Z</time>
      </trkpt>
      <trkpt lat="49.37381" lon="-1.38737">
        <ele>0.3</ele>
        <time>2022-01-29T14:25:20Z</time>
      </trkpt>
      <trkpt lat="49.3738" lon="-1.38729">
        <ele>5.3</ele>
        <time>2022-01-29T14:25:24Z</time>
      </trkpt>
      <trkpt lat="49.37379" lon="-1.3872">
        <ele>-0.3</ele>
        <time>2022-01-29T14:25:29Z</time>
      </trkpt>
      <trkpt lat="49.37379" lon="-1.38712">
        <ele>-0.4</ele>
        <time>2022-01-29T14:25:32Z</time>
      </trkpt>
      <trkpt lat="49.37379" lon="-1.38704">
        <ele>-0.4</ele>
        <time>2022-01-29T14:25:35Z</time>
      </trkpt>
      <trkpt lat="49.37381" lon="-1.38697">
        <ele>-0.2</ele>
        <time>2022-01-29T14:25:39Z</time>
      </trkpt>
      <trkpt lat="49.37382" lon="-1.3869">
        <ele>-0.2</ele>
        <time>2022-01-29T14:25:42Z</time>
      </trkpt>
      <trkpt lat="49.37383" lon="-1.38682">
        <ele>-0.4</ele>
        <time>2022-01-29T14:25:46Z</time>
      </trkpt>
      <trkpt lat="49.37384" lon="-1.38675">
        <ele>-0.4</ele>
        <time>2022-01-29T14:25:50Z</time>
      </trkpt>
      <trkpt lat="49.37384" lon="-1.38666">
        <ele>-0.2</ele>
        <time>2022-01-29T14:25:54Z</time>
      </trkpt>
      <trkpt lat="49.37383" lon="-1.38658">
        <ele>0.1</ele>
        <time>2022-01-29T14:25:58Z</time>
      </trkpt>
      <trkpt lat="49.37386" lon="-1.3865">
        <ele>0.3</ele>
        <time>2022-01-29T14:26:02Z</time>
      </trkpt>
      <trkpt lat="49.37385" lon="-1.38643">
        <ele>0.6</ele>
        <time>2022-01-29T14:26:05Z</time>
      </trkpt>
      <trkpt lat="49.37386" lon="-1.38635">
        <ele>0.7</ele>
        <time>2022-01-29T14:26:09Z</time>
      </trkpt>
      <trkpt lat="49.37387" lon="-1.38627">
        <ele>0.2</ele>
        <time>2022-01-29T14:26:13Z</time>
      </trkpt>
      <trkpt lat="49.37389" lon="-1.38619">
        <ele>-0.3</ele>
        <time>2022-01-29T14:26:17Z</time>
      </trkpt>
      <trkpt lat="49.37391" lon="-1.38612">
        <ele>-0.6</ele>
        <time>2022-01-29T14:26:20Z</time>
      </trkpt>
      <trkpt lat="49.37391" lon="-1.38605">
        <ele>-0.8</ele>
        <time>2022-01-29T14:26:24Z</time>
      </trkpt>
      <trkpt lat="49.37393" lon="-1.38598">
        <ele>-1.1</ele>
        <time>2022-01-29T14:26:27Z</time>
      </trkpt>
      <trkpt lat="49.37393" lon="-1.38591">
        <ele>-1.2</ele>
        <time>2022-01-29T14:26:30Z</time>
      </trkpt>
      <trkpt lat="49.37392" lon="-1.38582">
        <ele>-1.3</ele>
        <time>2022-01-29T14:26:34Z</time>
      </trkpt>
      <trkpt lat="49.37395" lon="-1.38574">
        <ele>-1.5</ele>
        <time>2022-01-29T14:26:38Z</time>
      </trkpt>
      <trkpt lat="49.37399" lon="-1.38569">
        <ele>-1.7</ele>
        <time>2022-01-29T14:26:43Z</time>
      </trkpt>
      <trkpt lat="49.37402" lon="-1.38563">
        <ele>-1.6</ele>
        <time>2022-01-29T14:26:48Z</time>
      </trkpt>
      <trkpt lat="49.37407" lon="-1.3856">
        <ele>-1</ele>
        <time>2022-01-29T14:26:54Z</time>
      </trkpt>
      <trkpt lat="49.3741" lon="-1.38567">
        <ele>-0.5</ele>
        <time>2022-01-29T14:26:58Z</time>
      </trkpt>
      <trkpt lat="49.37413" lon="-1.38573">
        <ele>-0.5</ele>
        <time>2022-01-29T14:27:01Z</time>
      </trkpt>
      <trkpt lat="49.37418" lon="-1.38576">
        <ele>-0.6</ele>
        <time>2022-01-29T14:27:11Z</time>
      </trkpt>
      <trkpt lat="49.37424" lon="-1.38574">
        <ele>-0.5</ele>
        <time>2022-01-29T14:27:15Z</time>
      </trkpt>
      <trkpt lat="49.37429" lon="-1.3857">
        <ele>-0.6</ele>
        <time>2022-01-29T14:27:18Z</time>
      </trkpt>
      <trkpt lat="49.37435" lon="-1.38568">
        <ele>-0.7</ele>
        <time>2022-01-29T14:27:22Z</time>
      </trkpt>
      <trkpt lat="49.3744" lon="-1.38566">
        <ele>-0.6</ele>
        <time>2022-01-29T14:27:26Z</time>
      </trkpt>
      <trkpt lat="49.37445" lon="-1.38567">
        <ele>-0.4</ele>
        <time>2022-01-29T14:27:30Z</time>
      </trkpt>
      <trkpt lat="49.3745" lon="-1.38567">
        <ele>-0.4</ele>
        <time>2022-01-29T14:27:35Z</time>
      </trkpt>
      <trkpt lat="49.37455" lon="-1.38566">
        <ele>-0.7</ele>
        <time>2022-01-29T14:27:38Z</time>
      </trkpt>
      <trkpt lat="49.3746" lon="-1.38564">
        <ele>-0.9</ele>
        <time>2022-01-29T14:27:43Z</time>
      </trkpt>
      <trkpt lat="49.37465" lon="-1.3856">
        <ele>-0.6</ele>
        <time>2022-01-29T14:27:58Z</time>
      </trkpt>
      <trkpt lat="49.37469" lon="-1.38559">
        <ele>-0.6</ele>
        <time>2022-01-29T14:28:01Z</time>
      </trkpt>
      <trkpt lat="49.37475" lon="-1.38559">
        <ele>-0.7</ele>
        <time>2022-01-29T14:28:04Z</time>
      </trkpt>
      <trkpt lat="49.3748" lon="-1.38559">
        <ele>-1.2</ele>
        <time>2022-01-29T14:28:09Z</time>
      </trkpt>
      <trkpt lat="49.37485" lon="-1.38559">
        <ele>-1.7</ele>
        <time>2022-01-29T14:28:14Z</time>
      </trkpt>
      <trkpt lat="49.3749" lon="-1.38559">
        <ele>-1.7</ele>
        <time>2022-01-29T14:28:18Z</time>
      </trkpt>
      <trkpt lat="49.37495" lon="-1.38558">
        <ele>-1.4</ele>
        <time>2022-01-29T14:28:21Z</time>
      </trkpt>
      <trkpt lat="49.37499" lon="-1.38558">
        <ele>-1</ele>
        <time>2022-01-29T14:28:25Z</time>
      </trkpt>
      <trkpt lat="49.37504" lon="-1.38557">
        <ele>-0.3</ele>
        <time>2022-01-29T14:28:46Z</time>
      </trkpt>
      <trkpt lat="49.37509" lon="-1.38556">
        <ele>0.4</ele>
        <time>2022-01-29T14:28:55Z</time>
      </trkpt>
      <trkpt lat="49.37515" lon="-1.38558">
        <ele>0.9</ele>
        <time>2022-01-29T14:29:01Z</time>
      </trkpt>
      <trkpt lat="49.3752" lon="-1.3856">
        <ele>1.1</ele>
        <time>2022-01-29T14:29:03Z</time>
      </trkpt>
      <trkpt lat="49.37525" lon="-1.38561">
        <ele>1.4</ele>
        <time>2022-01-29T14:29:05Z</time>
      </trkpt>
      <trkpt lat="49.3753" lon="-1.38563">
        <ele>1.8</ele>
        <time>2022-01-29T14:29:08Z</time>
      </trkpt>
      <trkpt lat="49.37536" lon="-1.38564">
        <ele>2.5</ele>
        <time>2022-01-29T14:29:11Z</time>
      </trkpt>
      <trkpt lat="49.37542" lon="-1.38565">
        <ele>3.1</ele>
        <time>2022-01-29T14:29:15Z</time>
      </trkpt>
      <trkpt lat="49.37546" lon="-1.38568">
        <ele>3.6</ele>
        <time>2022-01-29T14:29:19Z</time>
      </trkpt>
      <trkpt lat="49.37549" lon="-1.38573">
        <ele>4.2</ele>
        <time>2022-01-29T14:29:24Z</time>
      </trkpt>
      <trkpt lat="49.37554" lon="-1.38571">
        <ele>4.4</ele>
        <time>2022-01-29T14:29:29Z</time>
      </trkpt>
      <trkpt lat="49.37558" lon="-1.3857">
        <ele>4.4</ele>
        <time>2022-01-29T14:29:34Z</time>
      </trkpt>
      <trkpt lat="49.37563" lon="-1.38571">
        <ele>4.3</ele>
        <time>2022-01-29T14:29:37Z</time>
      </trkpt>
      <trkpt lat="49.37568" lon="-1.38572">
        <ele>4</ele>
        <time>2022-01-29T14:29:42Z</time>
      </trkpt>
      <trkpt lat="49.37572" lon="-1.38572">
        <ele>3.8</ele>
        <time>2022-01-29T14:29:46Z</time>
      </trkpt>
      <trkpt lat="49.37577" lon="-1.38571">
        <ele>4.1</ele>
        <time>2022-01-29T14:29:51Z</time>
      </trkpt>
      <trkpt lat="49.37583" lon="-1.38567">
        <ele>4.6</ele>
        <time>2022-01-29T14:29:54Z</time>
      </trkpt>
      <trkpt lat="49.37587" lon="-1.38564">
        <ele>5</ele>
        <time>2022-01-29T14:29:58Z</time>
      </trkpt>
      <trkpt lat="49.37591" lon="-1.3856">
        <ele>5.4</ele>
        <time>2022-01-29T14:30:12Z</time>
      </trkpt>
      <trkpt lat="49.3759" lon="-1.38553">
        <ele>5.9</ele>
        <time>2022-01-29T14:31:43Z</time>
      </trkpt>
      <trkpt lat="49.37591" lon="-1.38561">
        <ele>4.5</ele>
        <time>2022-01-29T14:33:22Z</time>
      </trkpt>
      <trkpt lat="49.37594" lon="-1.38566">
        <ele>4.7</ele>
        <time>2022-01-29T14:33:29Z</time>
      </trkpt>
      <trkpt lat="49.37599" lon="-1.38566">
        <ele>5</ele>
        <time>2022-01-29T14:33:35Z</time>
      </trkpt>
      <trkpt lat="49.37604" lon="-1.38565">
        <ele>5.1</ele>
        <time>2022-01-29T14:33:42Z</time>
      </trkpt>
      <trkpt lat="49.37609" lon="-1.38564">
        <ele>5.1</ele>
        <time>2022-01-29T14:33:45Z</time>
      </trkpt>
      <trkpt lat="49.37614" lon="-1.38564">
        <ele>5</ele>
        <time>2022-01-29T14:33:47Z</time>
      </trkpt>
      <trkpt lat="49.3762" lon="-1.38565">
        <ele>5</ele>
        <time>2022-01-29T14:33:50Z</time>
      </trkpt>
      <trkpt lat="49.37625" lon="-1.38565">
        <ele>4.7</ele>
        <time>2022-01-29T14:33:55Z</time>
      </trkpt>
      <trkpt lat="49.37633" lon="-1.38564">
        <ele>5.3</ele>
        <time>2022-01-29T14:34:08Z</time>
      </trkpt>
      <trkpt lat="49.37637" lon="-1.38563">
        <ele>5.1</ele>
        <time>2022-01-29T14:34:10Z</time>
      </trkpt>
      <trkpt lat="49.37642" lon="-1.38563">
        <ele>4.8</ele>
        <time>2022-01-29T14:34:14Z</time>
      </trkpt>
      <trkpt lat="49.37647" lon="-1.38563">
        <ele>4.7</ele>
        <time>2022-01-29T14:34:18Z</time>
      </trkpt>
      <trkpt lat="49.37651" lon="-1.38563">
        <ele>5.2</ele>
        <time>2022-01-29T14:34:29Z</time>
      </trkpt>
      <trkpt lat="49.37656" lon="-1.38561">
        <ele>5.1</ele>
        <time>2022-01-29T14:34:32Z</time>
      </trkpt>
      <trkpt lat="49.37662" lon="-1.3856">
        <ele>5</ele>
        <time>2022-01-29T14:34:34Z</time>
      </trkpt>
      <trkpt lat="49.37667" lon="-1.38559">
        <ele>5</ele>
        <time>2022-01-29T14:34:36Z</time>
      </trkpt>
      <trkpt lat="49.37675" lon="-1.38557">
        <ele>5.1</ele>
        <time>2022-01-29T14:34:37Z</time>
      </trkpt>
      <trkpt lat="49.37681" lon="-1.38557">
        <ele>5.3</ele>
        <time>2022-01-29T14:34:40Z</time>
      </trkpt>
      <trkpt lat="49.37686" lon="-1.38556">
        <ele>5.5</ele>
        <time>2022-01-29T14:34:42Z</time>
      </trkpt>
      <trkpt lat="49.37691" lon="-1.38556">
        <ele>5.8</ele>
        <time>2022-01-29T14:34:44Z</time>
      </trkpt>
      <trkpt lat="49.37697" lon="-1.38555">
        <ele>6</ele>
        <time>2022-01-29T14:34:48Z</time>
      </trkpt>
      <trkpt lat="49.37702" lon="-1.38555">
        <ele>6</ele>
        <time>2022-01-29T14:34:51Z</time>
      </trkpt>
      <trkpt lat="49.37707" lon="-1.38554">
        <ele>6.1</ele>
        <time>2022-01-29T14:34:55Z</time>
      </trkpt>
      <trkpt lat="49.37712" lon="-1.38553">
        <ele>6</ele>
        <time>2022-01-29T14:34:59Z</time>
      </trkpt>
      <trkpt lat="49.37717" lon="-1.38552">
        <ele>6.1</ele>
        <time>2022-01-29T14:35:02Z</time>
      </trkpt>
      <trkpt lat="49.37722" lon="-1.38552">
        <ele>6.4</ele>
        <time>2022-01-29T14:35:05Z</time>
      </trkpt>
      <trkpt lat="49.37727" lon="-1.38552">
        <ele>6.4</ele>
        <time>2022-01-29T14:35:09Z</time>
      </trkpt>
      <trkpt lat="49.37732" lon="-1.38552">
        <ele>6.3</ele>
        <time>2022-01-29T14:35:15Z</time>
      </trkpt>
      <trkpt lat="49.37737" lon="-1.38551">
        <ele>6.4</ele>
        <time>2022-01-29T14:35:21Z</time>
      </trkpt>
      <trkpt lat="49.37741" lon="-1.3855">
        <ele>6.2</ele>
        <time>2022-01-29T14:35:24Z</time>
      </trkpt>
      <trkpt lat="49.37746" lon="-1.3855">
        <ele>6</ele>
        <time>2022-01-29T14:35:28Z</time>
      </trkpt>
      <trkpt lat="49.37751" lon="-1.3855">
        <ele>5.9</ele>
        <time>2022-01-29T14:35:31Z</time>
      </trkpt>
      <trkpt lat="49.37756" lon="-1.3855">
        <ele>6</ele>
        <time>2022-01-29T14:35:35Z</time>
      </trkpt>
      <trkpt lat="49.37762" lon="-1.38548">
        <ele>6.2</ele>
        <time>2022-01-29T14:35:39Z</time>
      </trkpt>
      <trkpt lat="49.37767" lon="-1.38547">
        <ele>6.4</ele>
        <time>2022-01-29T14:35:42Z</time>
      </trkpt>
      <trkpt lat="49.37773" lon="-1.38547">
        <ele>6.8</ele>
        <time>2022-01-29T14:35:46Z</time>
      </trkpt>
      <trkpt lat="49.37778" lon="-1.38546">
        <ele>7</ele>
        <time>2022-01-29T14:35:49Z</time>
      </trkpt>
      <trkpt lat="49.37783" lon="-1.38546">
        <ele>7.2</ele>
        <time>2022-01-29T14:35:54Z</time>
      </trkpt>
      <trkpt lat="49.37789" lon="-1.38544">
        <ele>7.6</ele>
        <time>2022-01-29T14:36:00Z</time>
      </trkpt>
      <trkpt lat="49.37795" lon="-1.38544">
        <ele>8.3</ele>
        <time>2022-01-29T14:36:03Z</time>
      </trkpt>
      <trkpt lat="49.37801" lon="-1.38543">
        <ele>8.9</ele>
        <time>2022-01-29T14:36:06Z</time>
      </trkpt>
      <trkpt lat="49.37806" lon="-1.38542">
        <ele>9.4</ele>
        <time>2022-01-29T14:36:10Z</time>
      </trkpt>
      <trkpt lat="49.37811" lon="-1.38542">
        <ele>9.5</ele>
        <time>2022-01-29T14:36:13Z</time>
      </trkpt>
      <trkpt lat="49.37816" lon="-1.38541">
        <ele>9.6</ele>
        <time>2022-01-29T14:36:16Z</time>
      </trkpt>
      <trkpt lat="49.37822" lon="-1.38541">
        <ele>9.7</ele>
        <time>2022-01-29T14:36:20Z</time>
      </trkpt>
      <trkpt lat="49.37826" lon="-1.38542">
        <ele>9.9</ele>
        <time>2022-01-29T14:36:23Z</time>
      </trkpt>
      <trkpt lat="49.37831" lon="-1.38542">
        <ele>10.2</ele>
        <time>2022-01-29T14:36:26Z</time>
      </trkpt>
      <trkpt lat="49.37837" lon="-1.38541">
        <ele>10.6</ele>
        <time>2022-01-29T14:36:31Z</time>
      </trkpt>
      <trkpt lat="49.37842" lon="-1.38537">
        <ele>10.7</ele>
        <time>2022-01-29T14:36:36Z</time>
      </trkpt>
      <trkpt lat="49.37847" lon="-1.38537">
        <ele>10.7</ele>
        <time>2022-01-29T14:36:40Z</time>
      </trkpt>
      <trkpt lat="49.37852" lon="-1.3854">
        <ele>10.4</ele>
        <time>2022-01-29T14:36:45Z</time>
      </trkpt>
      <trkpt lat="49.37856" lon="-1.38537">
        <ele>10</ele>
        <time>2022-01-29T14:36:57Z</time>
      </trkpt>
      <trkpt lat="49.37861" lon="-1.38539">
        <ele>10</ele>
        <time>2022-01-29T14:37:03Z</time>
      </trkpt>
      <trkpt lat="49.37865" lon="-1.3854">
        <ele>9.9</ele>
        <time>2022-01-29T14:37:09Z</time>
      </trkpt>
      <trkpt lat="49.3787" lon="-1.38538">
        <ele>9.7</ele>
        <time>2022-01-29T14:37:16Z</time>
      </trkpt>
      <trkpt lat="49.37875" lon="-1.38538">
        <ele>8.6</ele>
        <time>2022-01-29T14:37:42Z</time>
      </trkpt>
      <trkpt lat="49.37882" lon="-1.38537">
        <ele>8.3</ele>
        <time>2022-01-29T14:37:45Z</time>
      </trkpt>
      <trkpt lat="49.37886" lon="-1.38535">
        <ele>8</ele>
        <time>2022-01-29T14:37:50Z</time>
      </trkpt>
      <trkpt lat="49.3789" lon="-1.38533">
        <ele>8.3</ele>
        <time>2022-01-29T14:37:59Z</time>
      </trkpt>
      <trkpt lat="49.37896" lon="-1.38533">
        <ele>8.3</ele>
        <time>2022-01-29T14:38:02Z</time>
      </trkpt>
      <trkpt lat="49.37902" lon="-1.38533">
        <ele>8.2</ele>
        <time>2022-01-29T14:38:06Z</time>
      </trkpt>
      <trkpt lat="49.37908" lon="-1.38533">
        <ele>8</ele>
        <time>2022-01-29T14:38:09Z</time>
      </trkpt>
      <trkpt lat="49.37913" lon="-1.38532">
        <ele>7.9</ele>
        <time>2022-01-29T14:38:13Z</time>
      </trkpt>
      <trkpt lat="49.37919" lon="-1.3853">
        <ele>7.8</ele>
        <time>2022-01-29T14:38:15Z</time>
      </trkpt>
      <trkpt lat="49.37925" lon="-1.38529">
        <ele>7.7</ele>
        <time>2022-01-29T14:38:19Z</time>
      </trkpt>
      <trkpt lat="49.3793" lon="-1.38531">
        <ele>7.4</ele>
        <time>2022-01-29T14:38:27Z</time>
      </trkpt>
      <trkpt lat="49.37935" lon="-1.38529">
        <ele>7.4</ele>
        <time>2022-01-29T14:38:38Z</time>
      </trkpt>
      <trkpt lat="49.3794" lon="-1.38529">
        <ele>7.3</ele>
        <time>2022-01-29T14:38:40Z</time>
      </trkpt>
      <trkpt lat="49.37946" lon="-1.38529">
        <ele>7.1</ele>
        <time>2022-01-29T14:38:42Z</time>
      </trkpt>
      <trkpt lat="49.37952" lon="-1.38529">
        <ele>7</ele>
        <time>2022-01-29T14:38:45Z</time>
      </trkpt>
      <trkpt lat="49.37956" lon="-1.38529">
        <ele>6.7</ele>
        <time>2022-01-29T14:38:47Z</time>
      </trkpt>
      <trkpt lat="49.37961" lon="-1.38529">
        <ele>6.4</ele>
        <time>2022-01-29T14:38:49Z</time>
      </trkpt>
      <trkpt lat="49.37967" lon="-1.3853">
        <ele>6.1</ele>
        <time>2022-01-29T14:38:52Z</time>
      </trkpt>
      <trkpt lat="49.37973" lon="-1.38531">
        <ele>5.6</ele>
        <time>2022-01-29T14:38:56Z</time>
      </trkpt>
      <trkpt lat="49.37978" lon="-1.38531">
        <ele>5.2</ele>
        <time>2022-01-29T14:38:59Z</time>
      </trkpt>
      <trkpt lat="49.37983" lon="-1.38531">
        <ele>4.8</ele>
        <time>2022-01-29T14:39:03Z</time>
      </trkpt>
      <trkpt lat="49.37988" lon="-1.38531">
        <ele>4.3</ele>
        <time>2022-01-29T14:39:07Z</time>
      </trkpt>
      <trkpt lat="49.37993" lon="-1.38532">
        <ele>3.9</ele>
        <time>2022-01-29T14:39:11Z</time>
      </trkpt>
      <trkpt lat="49.37998" lon="-1.38532">
        <ele>3.6</ele>
        <time>2022-01-29T14:39:15Z</time>
      </trkpt>
      <trkpt lat="49.38004" lon="-1.38531">
        <ele>3.1</ele>
        <time>2022-01-29T14:39:19Z</time>
      </trkpt>
      <trkpt lat="49.3801" lon="-1.38529">
        <ele>3.1</ele>
        <time>2022-01-29T14:39:23Z</time>
      </trkpt>
      <trkpt lat="49.38016" lon="-1.38527">
        <ele>2.9</ele>
        <time>2022-01-29T14:39:28Z</time>
      </trkpt>
      <trkpt lat="49.38021" lon="-1.38524">
        <ele>2.7</ele>
        <time>2022-01-29T14:39:32Z</time>
      </trkpt>
      <trkpt lat="49.38027" lon="-1.38522">
        <ele>2.4</ele>
        <time>2022-01-29T14:39:36Z</time>
      </trkpt>
      <trkpt lat="49.38032" lon="-1.3852">
        <ele>2.2</ele>
        <time>2022-01-29T14:39:40Z</time>
      </trkpt>
      <trkpt lat="49.38037" lon="-1.38518">
        <ele>2</ele>
        <time>2022-01-29T14:39:44Z</time>
      </trkpt>
      <trkpt lat="49.38044" lon="-1.38515">
        <ele>1.9</ele>
        <time>2022-01-29T14:39:49Z</time>
      </trkpt>
      <trkpt lat="49.38048" lon="-1.38513">
        <ele>1.8</ele>
        <time>2022-01-29T14:39:52Z</time>
      </trkpt>
      <trkpt lat="49.38053" lon="-1.38511">
        <ele>1.8</ele>
        <time>2022-01-29T14:39:56Z</time>
      </trkpt>
      <trkpt lat="49.38059" lon="-1.38509">
        <ele>1.7</ele>
        <time>2022-01-29T14:40:01Z</time>
      </trkpt>
      <trkpt lat="49.38063" lon="-1.38507">
        <ele>1.6</ele>
        <time>2022-01-29T14:40:04Z</time>
      </trkpt>
      <trkpt lat="49.38069" lon="-1.38506">
        <ele>1.5</ele>
        <time>2022-01-29T14:40:09Z</time>
      </trkpt>
      <trkpt lat="49.38073" lon="-1.385">
        <ele>1.6</ele>
        <time>2022-01-29T14:40:15Z</time>
      </trkpt>
      <trkpt lat="49.38078" lon="-1.38501">
        <ele>1.7</ele>
        <time>2022-01-29T14:40:18Z</time>
      </trkpt>
      <trkpt lat="49.38084" lon="-1.38501">
        <ele>1.9</ele>
        <time>2022-01-29T14:40:22Z</time>
      </trkpt>
      <trkpt lat="49.38088" lon="-1.38502">
        <ele>2.2</ele>
        <time>2022-01-29T14:40:25Z</time>
      </trkpt>
      <trkpt lat="49.38094" lon="-1.38501">
        <ele>2.5</ele>
        <time>2022-01-29T14:40:31Z</time>
      </trkpt>
      <trkpt lat="49.38098" lon="-1.385">
        <ele>2.2</ele>
        <time>2022-01-29T14:40:35Z</time>
      </trkpt>
      <trkpt lat="49.38103" lon="-1.38498">
        <ele>1.8</ele>
        <time>2022-01-29T14:40:40Z</time>
      </trkpt>
      <trkpt lat="49.38109" lon="-1.38497">
        <ele>1.6</ele>
        <time>2022-01-29T14:40:46Z</time>
      </trkpt>
      <trkpt lat="49.38113" lon="-1.38499">
        <ele>1.6</ele>
        <time>2022-01-29T14:40:51Z</time>
      </trkpt>
      <trkpt lat="49.38119" lon="-1.38498">
        <ele>1.6</ele>
        <time>2022-01-29T14:40:54Z</time>
      </trkpt>
      <trkpt lat="49.38123" lon="-1.38494">
        <ele>1.2</ele>
        <time>2022-01-29T14:40:59Z</time>
      </trkpt>
      <trkpt lat="49.38128" lon="-1.38492">
        <ele>0.6</ele>
        <time>2022-01-29T14:41:23Z</time>
      </trkpt>
      <trkpt lat="49.38133" lon="-1.38495">
        <ele>0.3</ele>
        <time>2022-01-29T14:41:34Z</time>
      </trkpt>
      <trkpt lat="49.38139" lon="-1.38497">
        <ele>0.1</ele>
        <time>2022-01-29T14:41:39Z</time>
      </trkpt>
      <trkpt lat="49.38144" lon="-1.38501">
        <ele>0.1</ele>
        <time>2022-01-29T14:41:44Z</time>
      </trkpt>
      <trkpt lat="49.38148" lon="-1.38503">
        <ele>0.1</ele>
        <time>2022-01-29T14:41:47Z</time>
      </trkpt>
      <trkpt lat="49.38152" lon="-1.38507">
        <ele>0.7</ele>
        <time>2022-01-29T14:42:00Z</time>
      </trkpt>
      <trkpt lat="49.38157" lon="-1.38509">
        <ele>0.6</ele>
        <time>2022-01-29T14:42:06Z</time>
      </trkpt>
      <trkpt lat="49.38162" lon="-1.38511">
        <ele>1.3</ele>
        <time>2022-01-29T14:42:13Z</time>
      </trkpt>
      <trkpt lat="49.38167" lon="-1.38511">
        <ele>1.8</ele>
        <time>2022-01-29T14:42:18Z</time>
      </trkpt>
      <trkpt lat="49.38172" lon="-1.38512">
        <ele>2.4</ele>
        <time>2022-01-29T14:42:38Z</time>
      </trkpt>
      <trkpt lat="49.38177" lon="-1.38516">
        <ele>2</ele>
        <time>2022-01-29T14:42:49Z</time>
      </trkpt>
      <trkpt lat="49.38181" lon="-1.3852">
        <ele>1.7</ele>
        <time>2022-01-29T14:42:55Z</time>
      </trkpt>
      <trkpt lat="49.38185" lon="-1.38524">
        <ele>1.6</ele>
        <time>2022-01-29T14:43:00Z</time>
      </trkpt>
      <trkpt lat="49.38189" lon="-1.3853">
        <ele>1.1</ele>
        <time>2022-01-29T14:43:09Z</time>
      </trkpt>
      <trkpt lat="49.38193" lon="-1.38536">
        <ele>0.9</ele>
        <time>2022-01-29T14:43:13Z</time>
      </trkpt>
      <trkpt lat="49.38197" lon="-1.38542">
        <ele>0.5</ele>
        <time>2022-01-29T14:43:15Z</time>
      </trkpt>
      <trkpt lat="49.38202" lon="-1.38545">
        <ele>0.1</ele>
        <time>2022-01-29T14:43:18Z</time>
      </trkpt>
      <trkpt lat="49.38207" lon="-1.38544">
        <ele>-0.2</ele>
        <time>2022-01-29T14:43:21Z</time>
      </trkpt>
      <trkpt lat="49.38212" lon="-1.38547">
        <ele>0.3</ele>
        <time>2022-01-29T14:43:27Z</time>
      </trkpt>
      <trkpt lat="49.38216" lon="-1.38549">
        <ele>0.8</ele>
        <time>2022-01-29T14:43:33Z</time>
      </trkpt>
      <trkpt lat="49.38221" lon="-1.3855">
        <ele>0.9</ele>
        <time>2022-01-29T14:43:36Z</time>
      </trkpt>
      <trkpt lat="49.38227" lon="-1.38551">
        <ele>1.1</ele>
        <time>2022-01-29T14:43:40Z</time>
      </trkpt>
      <trkpt lat="49.38231" lon="-1.38552">
        <ele>1.8</ele>
        <time>2022-01-29T14:43:47Z</time>
      </trkpt>
      <trkpt lat="49.38237" lon="-1.3855">
        <ele>3.1</ele>
        <time>2022-01-29T14:44:01Z</time>
      </trkpt>
      <trkpt lat="49.38243" lon="-1.38549">
        <ele>3</ele>
        <time>2022-01-29T14:44:05Z</time>
      </trkpt>
      <trkpt lat="49.38248" lon="-1.38548">
        <ele>3</ele>
        <time>2022-01-29T14:44:08Z</time>
      </trkpt>
      <trkpt lat="49.38253" lon="-1.38548">
        <ele>3.3</ele>
        <time>2022-01-29T14:44:13Z</time>
      </trkpt>
      <trkpt lat="49.38258" lon="-1.38551">
        <ele>3.8</ele>
        <time>2022-01-29T14:44:21Z</time>
      </trkpt>
      <trkpt lat="49.38264" lon="-1.38549">
        <ele>4.2</ele>
        <time>2022-01-29T14:44:25Z</time>
      </trkpt>
      <trkpt lat="49.38269" lon="-1.38547">
        <ele>4.3</ele>
        <time>2022-01-29T14:44:27Z</time>
      </trkpt>
      <trkpt lat="49.3828" lon="-1.38544">
        <ele>4.7</ele>
        <time>2022-01-29T14:44:33Z</time>
      </trkpt>
      <trkpt lat="49.38285" lon="-1.38545">
        <ele>5.3</ele>
        <time>2022-01-29T14:44:38Z</time>
      </trkpt>
      <trkpt lat="49.3829" lon="-1.38544">
        <ele>5.8</ele>
        <time>2022-01-29T14:44:41Z</time>
      </trkpt>
      <trkpt lat="49.38296" lon="-1.38545">
        <ele>6.5</ele>
        <time>2022-01-29T14:44:44Z</time>
      </trkpt>
      <trkpt lat="49.38302" lon="-1.38545">
        <ele>7.3</ele>
        <time>2022-01-29T14:44:48Z</time>
      </trkpt>
      <trkpt lat="49.38307" lon="-1.38545">
        <ele>8.3</ele>
        <time>2022-01-29T14:44:53Z</time>
      </trkpt>
      <trkpt lat="49.38313" lon="-1.38543">
        <ele>8.8</ele>
        <time>2022-01-29T14:44:58Z</time>
      </trkpt>
      <trkpt lat="49.38318" lon="-1.38542">
        <ele>9</ele>
        <time>2022-01-29T14:45:01Z</time>
      </trkpt>
      <trkpt lat="49.38325" lon="-1.38543">
        <ele>9.2</ele>
        <time>2022-01-29T14:45:05Z</time>
      </trkpt>
      <trkpt lat="49.38332" lon="-1.38543">
        <ele>9.8</ele>
        <time>2022-01-29T14:45:08Z</time>
      </trkpt>
      <trkpt lat="49.38337" lon="-1.38543">
        <ele>10.6</ele>
        <time>2022-01-29T14:45:13Z</time>
      </trkpt>
      <trkpt lat="49.38342" lon="-1.38543">
        <ele>12.5</ele>
        <time>2022-01-29T14:45:26Z</time>
      </trkpt>
      <trkpt lat="49.38348" lon="-1.38542">
        <ele>12.3</ele>
        <time>2022-01-29T14:45:31Z</time>
      </trkpt>
      <trkpt lat="49.38353" lon="-1.38542">
        <ele>12.1</ele>
        <time>2022-01-29T14:45:35Z</time>
      </trkpt>
      <trkpt lat="49.38359" lon="-1.38543">
        <ele>12</ele>
        <time>2022-01-29T14:45:39Z</time>
      </trkpt>
      <trkpt lat="49.38365" lon="-1.38542">
        <ele>12</ele>
        <time>2022-01-29T14:45:42Z</time>
      </trkpt>
      <trkpt lat="49.3837" lon="-1.38542">
        <ele>12.1</ele>
        <time>2022-01-29T14:45:44Z</time>
      </trkpt>
      <trkpt lat="49.38374" lon="-1.38542">
        <ele>12.3</ele>
        <time>2022-01-29T14:45:47Z</time>
      </trkpt>
      <trkpt lat="49.38381" lon="-1.38542">
        <ele>12.5</ele>
        <time>2022-01-29T14:45:50Z</time>
      </trkpt>
      <trkpt lat="49.38386" lon="-1.38542">
        <ele>12.6</ele>
        <time>2022-01-29T14:45:52Z</time>
      </trkpt>
      <trkpt lat="49.38391" lon="-1.38543">
        <ele>12.7</ele>
        <time>2022-01-29T14:45:54Z</time>
      </trkpt>
      <trkpt lat="49.38395" lon="-1.38544">
        <ele>13.1</ele>
        <time>2022-01-29T14:45:59Z</time>
      </trkpt>
      <trkpt lat="49.38403" lon="-1.38547">
        <ele>14</ele>
        <time>2022-01-29T14:46:05Z</time>
      </trkpt>
      <trkpt lat="49.38408" lon="-1.38546">
        <ele>14.7</ele>
        <time>2022-01-29T14:46:08Z</time>
      </trkpt>
      <trkpt lat="49.38413" lon="-1.38542">
        <ele>15.3</ele>
        <time>2022-01-29T14:46:12Z</time>
      </trkpt>
      <trkpt lat="49.38418" lon="-1.3854">
        <ele>15.5</ele>
        <time>2022-01-29T14:46:16Z</time>
      </trkpt>
      <trkpt lat="49.38422" lon="-1.38541">
        <ele>15.8</ele>
        <time>2022-01-29T14:46:20Z</time>
      </trkpt>
      <trkpt lat="49.38428" lon="-1.38544">
        <ele>16.1</ele>
        <time>2022-01-29T14:46:23Z</time>
      </trkpt>
      <trkpt lat="49.38433" lon="-1.38545">
        <ele>16.6</ele>
        <time>2022-01-29T14:46:26Z</time>
      </trkpt>
      <trkpt lat="49.38438" lon="-1.38547">
        <ele>16.8</ele>
        <time>2022-01-29T14:46:29Z</time>
      </trkpt>
      <trkpt lat="49.38444" lon="-1.38547">
        <ele>17.1</ele>
        <time>2022-01-29T14:46:33Z</time>
      </trkpt>
      <trkpt lat="49.38449" lon="-1.38545">
        <ele>17.3</ele>
        <time>2022-01-29T14:46:37Z</time>
      </trkpt>
      <trkpt lat="49.38453" lon="-1.38545">
        <ele>17.6</ele>
        <time>2022-01-29T14:46:40Z</time>
      </trkpt>
      <trkpt lat="49.38458" lon="-1.38544">
        <ele>18</ele>
        <time>2022-01-29T14:46:43Z</time>
      </trkpt>
      <trkpt lat="49.38463" lon="-1.38544">
        <ele>18.4</ele>
        <time>2022-01-29T14:46:47Z</time>
      </trkpt>
      <trkpt lat="49.38468" lon="-1.38544">
        <ele>18.6</ele>
        <time>2022-01-29T14:46:51Z</time>
      </trkpt>
      <trkpt lat="49.38473" lon="-1.38546">
        <ele>18.6</ele>
        <time>2022-01-29T14:46:55Z</time>
      </trkpt>
      <trkpt lat="49.38477" lon="-1.38547">
        <ele>18.7</ele>
        <time>2022-01-29T14:46:58Z</time>
      </trkpt>
      <trkpt lat="49.38482" lon="-1.38548">
        <ele>18.9</ele>
        <time>2022-01-29T14:47:02Z</time>
      </trkpt>
      <trkpt lat="49.38487" lon="-1.38548">
        <ele>19.1</ele>
        <time>2022-01-29T14:47:05Z</time>
      </trkpt>
      <trkpt lat="49.38492" lon="-1.38548">
        <ele>19.4</ele>
        <time>2022-01-29T14:47:08Z</time>
      </trkpt>
      <trkpt lat="49.38498" lon="-1.3855">
        <ele>19.6</ele>
        <time>2022-01-29T14:47:13Z</time>
      </trkpt>
      <trkpt lat="49.38502" lon="-1.3855">
        <ele>19.6</ele>
        <time>2022-01-29T14:47:16Z</time>
      </trkpt>
      <trkpt lat="49.38507" lon="-1.38551">
        <ele>19.7</ele>
        <time>2022-01-29T14:47:20Z</time>
      </trkpt>
      <trkpt lat="49.38512" lon="-1.38552">
        <ele>19.8</ele>
        <time>2022-01-29T14:47:24Z</time>
      </trkpt>
      <trkpt lat="49.38518" lon="-1.38553">
        <ele>20</ele>
        <time>2022-01-29T14:47:28Z</time>
      </trkpt>
      <trkpt lat="49.38523" lon="-1.38553">
        <ele>19.9</ele>
        <time>2022-01-29T14:47:33Z</time>
      </trkpt>
      <trkpt lat="49.38528" lon="-1.38556">
        <ele>19.8</ele>
        <time>2022-01-29T14:47:36Z</time>
      </trkpt>
      <trkpt lat="49.38532" lon="-1.3856">
        <ele>19.6</ele>
        <time>2022-01-29T14:47:41Z</time>
      </trkpt>
      <trkpt lat="49.38537" lon="-1.3856">
        <ele>19.4</ele>
        <time>2022-01-29T14:47:44Z</time>
      </trkpt>
      <trkpt lat="49.38542" lon="-1.38559">
        <ele>19.2</ele>
        <time>2022-01-29T14:47:48Z</time>
      </trkpt>
      <trkpt lat="49.38546" lon="-1.3856">
        <ele>18.7</ele>
        <time>2022-01-29T14:47:54Z</time>
      </trkpt>
      <trkpt lat="49.38551" lon="-1.38562">
        <ele>18.6</ele>
        <time>2022-01-29T14:47:58Z</time>
      </trkpt>
      <trkpt lat="49.38556" lon="-1.38566">
        <ele>18.4</ele>
        <time>2022-01-29T14:48:02Z</time>
      </trkpt>
      <trkpt lat="49.3856" lon="-1.38569">
        <ele>18.4</ele>
        <time>2022-01-29T14:48:06Z</time>
      </trkpt>
      <trkpt lat="49.38565" lon="-1.38573">
        <ele>18.4</ele>
        <time>2022-01-29T14:48:12Z</time>
      </trkpt>
      <trkpt lat="49.3857" lon="-1.38577">
        <ele>18.5</ele>
        <time>2022-01-29T14:48:18Z</time>
      </trkpt>
      <trkpt lat="49.38575" lon="-1.38579">
        <ele>18.5</ele>
        <time>2022-01-29T14:48:22Z</time>
      </trkpt>
      <trkpt lat="49.3858" lon="-1.38583">
        <ele>18.6</ele>
        <time>2022-01-29T14:48:26Z</time>
      </trkpt>
      <trkpt lat="49.38584" lon="-1.38587">
        <ele>18.4</ele>
        <time>2022-01-29T14:48:31Z</time>
      </trkpt>
      <trkpt lat="49.38589" lon="-1.38591">
        <ele>18.3</ele>
        <time>2022-01-29T14:48:35Z</time>
      </trkpt>
      <trkpt lat="49.38594" lon="-1.38595">
        <ele>18.3</ele>
        <time>2022-01-29T14:48:40Z</time>
      </trkpt>
      <trkpt lat="49.38599" lon="-1.38599">
        <ele>18.4</ele>
        <time>2022-01-29T14:48:44Z</time>
      </trkpt>
      <trkpt lat="49.38604" lon="-1.38602">
        <ele>18.2</ele>
        <time>2022-01-29T14:48:49Z</time>
      </trkpt>
      <trkpt lat="49.38609" lon="-1.38606">
        <ele>18</ele>
        <time>2022-01-29T14:48:53Z</time>
      </trkpt>
      <trkpt lat="49.38613" lon="-1.38611">
        <ele>17.9</ele>
        <time>2022-01-29T14:48:58Z</time>
      </trkpt>
      <trkpt lat="49.38619" lon="-1.38613">
        <ele>18.1</ele>
        <time>2022-01-29T14:49:02Z</time>
      </trkpt>
      <trkpt lat="49.38624" lon="-1.38617">
        <ele>18.5</ele>
        <time>2022-01-29T14:49:07Z</time>
      </trkpt>
      <trkpt lat="49.38629" lon="-1.3862">
        <ele>18.9</ele>
        <time>2022-01-29T14:49:11Z</time>
      </trkpt>
      <trkpt lat="49.38633" lon="-1.38622">
        <ele>19.2</ele>
        <time>2022-01-29T14:49:15Z</time>
      </trkpt>
      <trkpt lat="49.38638" lon="-1.38625">
        <ele>19.7</ele>
        <time>2022-01-29T14:49:20Z</time>
      </trkpt>
      <trkpt lat="49.38642" lon="-1.38629">
        <ele>19.5</ele>
        <time>2022-01-29T14:49:25Z</time>
      </trkpt>
      <trkpt lat="49.38646" lon="-1.38633">
        <ele>19.2</ele>
        <time>2022-01-29T14:49:29Z</time>
      </trkpt>
      <trkpt lat="49.3865" lon="-1.38636">
        <ele>19.3</ele>
        <time>2022-01-29T14:49:32Z</time>
      </trkpt>
      <trkpt lat="49.38654" lon="-1.38641">
        <ele>19.6</ele>
        <time>2022-01-29T14:49:36Z</time>
      </trkpt>
      <trkpt lat="49.38659" lon="-1.38646">
        <ele>19.8</ele>
        <time>2022-01-29T14:49:40Z</time>
      </trkpt>
      <trkpt lat="49.38664" lon="-1.3865">
        <ele>20</ele>
        <time>2022-01-29T14:49:45Z</time>
      </trkpt>
      <trkpt lat="49.38668" lon="-1.38652">
        <ele>20.6</ele>
        <time>2022-01-29T14:49:49Z</time>
      </trkpt>
      <trkpt lat="49.38673" lon="-1.38657">
        <ele>21</ele>
        <time>2022-01-29T14:49:53Z</time>
      </trkpt>
      <trkpt lat="49.38678" lon="-1.38661">
        <ele>20.9</ele>
        <time>2022-01-29T14:49:58Z</time>
      </trkpt>
      <trkpt lat="49.38682" lon="-1.38664">
        <ele>21</ele>
        <time>2022-01-29T14:50:02Z</time>
      </trkpt>
      <trkpt lat="49.38687" lon="-1.3866">
        <ele>20.8</ele>
        <time>2022-01-29T14:50:07Z</time>
      </trkpt>
      <trkpt lat="49.3869" lon="-1.38653">
        <ele>20.7</ele>
        <time>2022-01-29T14:50:11Z</time>
      </trkpt>
      <trkpt lat="49.38692" lon="-1.38646">
        <ele>20.5</ele>
        <time>2022-01-29T14:50:15Z</time>
      </trkpt>
      <trkpt lat="49.38695" lon="-1.3864">
        <ele>20.5</ele>
        <time>2022-01-29T14:50:18Z</time>
      </trkpt>
      <trkpt lat="49.38699" lon="-1.38635">
        <ele>20.9</ele>
        <time>2022-01-29T14:50:21Z</time>
      </trkpt>
      <trkpt lat="49.38703" lon="-1.3863">
        <ele>21.2</ele>
        <time>2022-01-29T14:50:25Z</time>
      </trkpt>
      <trkpt lat="49.38707" lon="-1.38625">
        <ele>21</ele>
        <time>2022-01-29T14:50:29Z</time>
      </trkpt>
      <trkpt lat="49.38711" lon="-1.38619">
        <ele>20.7</ele>
        <time>2022-01-29T14:50:34Z</time>
      </trkpt>
      <trkpt lat="49.38713" lon="-1.38613">
        <ele>20.6</ele>
        <time>2022-01-29T14:50:37Z</time>
      </trkpt>
      <trkpt lat="49.38715" lon="-1.38607">
        <ele>20.7</ele>
        <time>2022-01-29T14:50:41Z</time>
      </trkpt>
      <trkpt lat="49.38719" lon="-1.38601">
        <ele>20.6</ele>
        <time>2022-01-29T14:50:44Z</time>
      </trkpt>
      <trkpt lat="49.38722" lon="-1.38596">
        <ele>20.7</ele>
        <time>2022-01-29T14:50:48Z</time>
      </trkpt>
      <trkpt lat="49.38726" lon="-1.38588">
        <ele>20.9</ele>
        <time>2022-01-29T14:50:53Z</time>
      </trkpt>
      <trkpt lat="49.3873" lon="-1.38582">
        <ele>21.2</ele>
        <time>2022-01-29T14:50:57Z</time>
      </trkpt>
      <trkpt lat="49.38733" lon="-1.38574">
        <ele>20.6</ele>
        <time>2022-01-29T14:51:01Z</time>
      </trkpt>
      <trkpt lat="49.38736" lon="-1.38567">
        <ele>20.2</ele>
        <time>2022-01-29T14:51:07Z</time>
      </trkpt>
      <trkpt lat="49.38739" lon="-1.38561">
        <ele>20.1</ele>
        <time>2022-01-29T14:51:19Z</time>
      </trkpt>
      <trkpt lat="49.38743" lon="-1.38554">
        <ele>20.1</ele>
        <time>2022-01-29T14:51:23Z</time>
      </trkpt>
      <trkpt lat="49.38746" lon="-1.38545">
        <ele>20</ele>
        <time>2022-01-29T14:51:28Z</time>
      </trkpt>
      <trkpt lat="49.3875" lon="-1.38538">
        <ele>20.1</ele>
        <time>2022-01-29T14:51:32Z</time>
      </trkpt>
      <trkpt lat="49.38754" lon="-1.38534">
        <ele>20</ele>
        <time>2022-01-29T14:51:36Z</time>
      </trkpt>
      <trkpt lat="49.38757" lon="-1.38529">
        <ele>20</ele>
        <time>2022-01-29T14:51:39Z</time>
      </trkpt>
      <trkpt lat="49.38761" lon="-1.38521">
        <ele>20</ele>
        <time>2022-01-29T14:51:43Z</time>
      </trkpt>
      <trkpt lat="49.38764" lon="-1.38513">
        <ele>20</ele>
        <time>2022-01-29T14:51:47Z</time>
      </trkpt>
      <trkpt lat="49.38767" lon="-1.38505">
        <ele>20</ele>
        <time>2022-01-29T14:51:52Z</time>
      </trkpt>
      <trkpt lat="49.38771" lon="-1.385">
        <ele>20</ele>
        <time>2022-01-29T14:51:55Z</time>
      </trkpt>
      <trkpt lat="49.38774" lon="-1.38495">
        <ele>20</ele>
        <time>2022-01-29T14:51:58Z</time>
      </trkpt>
      <trkpt lat="49.38778" lon="-1.3849">
        <ele>20.1</ele>
        <time>2022-01-29T14:52:02Z</time>
      </trkpt>
      <trkpt lat="49.38781" lon="-1.38482">
        <ele>20.3</ele>
        <time>2022-01-29T14:52:06Z</time>
      </trkpt>
      <trkpt lat="49.38783" lon="-1.38476">
        <ele>20.3</ele>
        <time>2022-01-29T14:52:11Z</time>
      </trkpt>
      <trkpt lat="49.38785" lon="-1.38468">
        <ele>20.2</ele>
        <time>2022-01-29T14:52:16Z</time>
      </trkpt>
      <trkpt lat="49.38788" lon="-1.38461">
        <ele>20.3</ele>
        <time>2022-01-29T14:52:19Z</time>
      </trkpt>
      <trkpt lat="49.3879" lon="-1.38454">
        <ele>20.5</ele>
        <time>2022-01-29T14:52:23Z</time>
      </trkpt>
      <trkpt lat="49.38792" lon="-1.38448">
        <ele>20.3</ele>
        <time>2022-01-29T14:52:26Z</time>
      </trkpt>
      <trkpt lat="49.38795" lon="-1.38441">
        <ele>19.8</ele>
        <time>2022-01-29T14:52:32Z</time>
      </trkpt>
      <trkpt lat="49.38797" lon="-1.38435">
        <ele>19.9</ele>
        <time>2022-01-29T14:52:36Z</time>
      </trkpt>
      <trkpt lat="49.388" lon="-1.38427">
        <ele>20.2</ele>
        <time>2022-01-29T14:52:40Z</time>
      </trkpt>
      <trkpt lat="49.38803" lon="-1.3842">
        <ele>20.1</ele>
        <time>2022-01-29T14:52:43Z</time>
      </trkpt>
      <trkpt lat="49.38805" lon="-1.38414">
        <ele>20.8</ele>
        <time>2022-01-29T14:52:52Z</time>
      </trkpt>
      <trkpt lat="49.38807" lon="-1.38405">
        <ele>20.8</ele>
        <time>2022-01-29T14:52:58Z</time>
      </trkpt>
      <trkpt lat="49.38809" lon="-1.38398">
        <ele>20.7</ele>
        <time>2022-01-29T14:53:00Z</time>
      </trkpt>
      <trkpt lat="49.38812" lon="-1.38389">
        <ele>20.6</ele>
        <time>2022-01-29T14:53:03Z</time>
      </trkpt>
      <trkpt lat="49.38815" lon="-1.38382">
        <ele>20.6</ele>
        <time>2022-01-29T14:53:05Z</time>
      </trkpt>
      <trkpt lat="49.38818" lon="-1.38376">
        <ele>20.4</ele>
        <time>2022-01-29T14:53:08Z</time>
      </trkpt>
      <trkpt lat="49.38819" lon="-1.38369">
        <ele>20.1</ele>
        <time>2022-01-29T14:53:15Z</time>
      </trkpt>
      <trkpt lat="49.38821" lon="-1.38362">
        <ele>20</ele>
        <time>2022-01-29T14:53:20Z</time>
      </trkpt>
      <trkpt lat="49.38824" lon="-1.38356">
        <ele>19.9</ele>
        <time>2022-01-29T14:53:23Z</time>
      </trkpt>
      <trkpt lat="49.38826" lon="-1.38348">
        <ele>19.7</ele>
        <time>2022-01-29T14:53:26Z</time>
      </trkpt>
      <trkpt lat="49.38829" lon="-1.3834">
        <ele>19.4</ele>
        <time>2022-01-29T14:53:29Z</time>
      </trkpt>
      <trkpt lat="49.3883" lon="-1.38331">
        <ele>19.2</ele>
        <time>2022-01-29T14:53:33Z</time>
      </trkpt>
      <trkpt lat="49.38831" lon="-1.38323">
        <ele>19</ele>
        <time>2022-01-29T14:53:37Z</time>
      </trkpt>
      <trkpt lat="49.38833" lon="-1.38317">
        <ele>19</ele>
        <time>2022-01-29T14:53:40Z</time>
      </trkpt>
      <trkpt lat="49.38837" lon="-1.38311">
        <ele>18.8</ele>
        <time>2022-01-29T14:53:44Z</time>
      </trkpt>
      <trkpt lat="49.38842" lon="-1.38306">
        <ele>18.9</ele>
        <time>2022-01-29T14:53:48Z</time>
      </trkpt>
      <trkpt lat="49.38847" lon="-1.38303">
        <ele>19.2</ele>
        <time>2022-01-29T14:53:52Z</time>
      </trkpt>
      <trkpt lat="49.38852" lon="-1.383">
        <ele>20.2</ele>
        <time>2022-01-29T14:54:03Z</time>
      </trkpt>
      <trkpt lat="49.38857" lon="-1.38294">
        <ele>20.1</ele>
        <time>2022-01-29T14:54:06Z</time>
      </trkpt>
      <trkpt lat="49.38861" lon="-1.3829">
        <ele>20</ele>
        <time>2022-01-29T14:54:10Z</time>
      </trkpt>
      <trkpt lat="49.38865" lon="-1.38287">
        <ele>19.3</ele>
        <time>2022-01-29T14:54:20Z</time>
      </trkpt>
      <trkpt lat="49.3887" lon="-1.38284">
        <ele>19</ele>
        <time>2022-01-29T14:54:24Z</time>
      </trkpt>
      <trkpt lat="49.38874" lon="-1.38278">
        <ele>18.7</ele>
        <time>2022-01-29T14:54:26Z</time>
      </trkpt>
      <trkpt lat="49.38876" lon="-1.38272">
        <ele>18.1</ele>
        <time>2022-01-29T14:54:29Z</time>
      </trkpt>
      <trkpt lat="49.3888" lon="-1.38266">
        <ele>17.4</ele>
        <time>2022-01-29T14:54:34Z</time>
      </trkpt>
      <trkpt lat="49.38885" lon="-1.38263">
        <ele>16.9</ele>
        <time>2022-01-29T14:54:37Z</time>
      </trkpt>
      <trkpt lat="49.38891" lon="-1.38259">
        <ele>16.5</ele>
        <time>2022-01-29T14:54:40Z</time>
      </trkpt>
      <trkpt lat="49.38896" lon="-1.38255">
        <ele>16.2</ele>
        <time>2022-01-29T14:54:44Z</time>
      </trkpt>
      <trkpt lat="49.389" lon="-1.3825">
        <ele>16</ele>
        <time>2022-01-29T14:54:46Z</time>
      </trkpt>
      <trkpt lat="49.38904" lon="-1.38243">
        <ele>15.9</ele>
        <time>2022-01-29T14:54:49Z</time>
      </trkpt>
      <trkpt lat="49.38908" lon="-1.38239">
        <ele>15.9</ele>
        <time>2022-01-29T14:54:53Z</time>
      </trkpt>
      <trkpt lat="49.38912" lon="-1.38237">
        <ele>15.8</ele>
        <time>2022-01-29T14:54:57Z</time>
      </trkpt>
      <trkpt lat="49.38917" lon="-1.38237">
        <ele>15.6</ele>
        <time>2022-01-29T14:55:03Z</time>
      </trkpt>
      <trkpt lat="49.38921" lon="-1.38233">
        <ele>15.5</ele>
        <time>2022-01-29T14:55:06Z</time>
      </trkpt>
      <trkpt lat="49.38925" lon="-1.38227">
        <ele>15.2</ele>
        <time>2022-01-29T14:55:09Z</time>
      </trkpt>
      <trkpt lat="49.38928" lon="-1.38221">
        <ele>15.1</ele>
        <time>2022-01-29T14:55:12Z</time>
      </trkpt>
      <trkpt lat="49.38933" lon="-1.38218">
        <ele>15.2</ele>
        <time>2022-01-29T14:55:18Z</time>
      </trkpt>
      <trkpt lat="49.38935" lon="-1.3821">
        <ele>15.2</ele>
        <time>2022-01-29T14:55:21Z</time>
      </trkpt>
      <trkpt lat="49.3894" lon="-1.38208">
        <ele>15.4</ele>
        <time>2022-01-29T14:55:24Z</time>
      </trkpt>
      <trkpt lat="49.38944" lon="-1.38203">
        <ele>15.5</ele>
        <time>2022-01-29T14:55:27Z</time>
      </trkpt>
      <trkpt lat="49.38948" lon="-1.38199">
        <ele>15.7</ele>
        <time>2022-01-29T14:55:30Z</time>
      </trkpt>
      <trkpt lat="49.38953" lon="-1.38193">
        <ele>15.9</ele>
        <time>2022-01-29T14:55:35Z</time>
      </trkpt>
      <trkpt lat="49.38957" lon="-1.38191">
        <ele>15.9</ele>
        <time>2022-01-29T14:55:38Z</time>
      </trkpt>
      <trkpt lat="49.38961" lon="-1.38187">
        <ele>15.9</ele>
        <time>2022-01-29T14:55:42Z</time>
      </trkpt>
      <trkpt lat="49.38965" lon="-1.38182">
        <ele>16</ele>
        <time>2022-01-29T14:55:46Z</time>
      </trkpt>
      <trkpt lat="49.38969" lon="-1.38178">
        <ele>16.3</ele>
        <time>2022-01-29T14:55:49Z</time>
      </trkpt>
      <trkpt lat="49.38974" lon="-1.38174">
        <ele>16.8</ele>
        <time>2022-01-29T14:55:52Z</time>
      </trkpt>
      <trkpt lat="49.38979" lon="-1.38168">
        <ele>17.2</ele>
        <time>2022-01-29T14:55:56Z</time>
      </trkpt>
      <trkpt lat="49.38983" lon="-1.38164">
        <ele>17.3</ele>
        <time>2022-01-29T14:55:59Z</time>
      </trkpt>
      <trkpt lat="49.38987" lon="-1.3816">
        <ele>17.4</ele>
        <time>2022-01-29T14:56:03Z</time>
      </trkpt>
      <trkpt lat="49.38991" lon="-1.38156">
        <ele>17.5</ele>
        <time>2022-01-29T14:56:07Z</time>
      </trkpt>
      <trkpt lat="49.38995" lon="-1.3815">
        <ele>17.6</ele>
        <time>2022-01-29T14:56:11Z</time>
      </trkpt>
      <trkpt lat="49.39" lon="-1.38148">
        <ele>17.6</ele>
        <time>2022-01-29T14:56:14Z</time>
      </trkpt>
      <trkpt lat="49.39004" lon="-1.38143">
        <ele>17.3</ele>
        <time>2022-01-29T14:56:18Z</time>
      </trkpt>
      <trkpt lat="49.39008" lon="-1.38139">
        <ele>16.7</ele>
        <time>2022-01-29T14:56:21Z</time>
      </trkpt>
      <trkpt lat="49.39011" lon="-1.38135">
        <ele>16.1</ele>
        <time>2022-01-29T14:56:25Z</time>
      </trkpt>
      <trkpt lat="49.39016" lon="-1.3813">
        <ele>16</ele>
        <time>2022-01-29T14:56:29Z</time>
      </trkpt>
      <trkpt lat="49.39022" lon="-1.38125">
        <ele>15.9</ele>
        <time>2022-01-29T14:56:33Z</time>
      </trkpt>
      <trkpt lat="49.39027" lon="-1.38121">
        <ele>15.7</ele>
        <time>2022-01-29T14:56:37Z</time>
      </trkpt>
      <trkpt lat="49.39031" lon="-1.38117">
        <ele>15.3</ele>
        <time>2022-01-29T14:56:40Z</time>
      </trkpt>
      <trkpt lat="49.39036" lon="-1.38112">
        <ele>15</ele>
        <time>2022-01-29T14:56:43Z</time>
      </trkpt>
      <trkpt lat="49.3904" lon="-1.38107">
        <ele>14.9</ele>
        <time>2022-01-29T14:56:46Z</time>
      </trkpt>
      <trkpt lat="49.39044" lon="-1.38102">
        <ele>14.8</ele>
        <time>2022-01-29T14:56:50Z</time>
      </trkpt>
      <trkpt lat="49.39049" lon="-1.38097">
        <ele>14.9</ele>
        <time>2022-01-29T14:56:53Z</time>
      </trkpt>
      <trkpt lat="49.39053" lon="-1.38093">
        <ele>14.9</ele>
        <time>2022-01-29T14:56:56Z</time>
      </trkpt>
      <trkpt lat="49.39057" lon="-1.38086">
        <ele>14.9</ele>
        <time>2022-01-29T14:57:01Z</time>
      </trkpt>
      <trkpt lat="49.3906" lon="-1.3808">
        <ele>14.9</ele>
        <time>2022-01-29T14:57:05Z</time>
      </trkpt>
      <trkpt lat="49.39064" lon="-1.38075">
        <ele>14.7</ele>
        <time>2022-01-29T14:57:08Z</time>
      </trkpt>
      <trkpt lat="49.39067" lon="-1.38068">
        <ele>14.3</ele>
        <time>2022-01-29T14:57:13Z</time>
      </trkpt>
      <trkpt lat="49.3907" lon="-1.38062">
        <ele>14</ele>
        <time>2022-01-29T14:57:17Z</time>
      </trkpt>
      <trkpt lat="49.39075" lon="-1.38056">
        <ele>13.8</ele>
        <time>2022-01-29T14:57:21Z</time>
      </trkpt>
      <trkpt lat="49.3908" lon="-1.38051">
        <ele>13.7</ele>
        <time>2022-01-29T14:57:24Z</time>
      </trkpt>
      <trkpt lat="49.39085" lon="-1.38046">
        <ele>13.4</ele>
        <time>2022-01-29T14:57:28Z</time>
      </trkpt>
      <trkpt lat="49.39088" lon="-1.3804">
        <ele>13.2</ele>
        <time>2022-01-29T14:57:31Z</time>
      </trkpt>
      <trkpt lat="49.39091" lon="-1.38035">
        <ele>13.1</ele>
        <time>2022-01-29T14:57:34Z</time>
      </trkpt>
      <trkpt lat="49.39095" lon="-1.38031">
        <ele>13</ele>
        <time>2022-01-29T14:57:37Z</time>
      </trkpt>
      <trkpt lat="49.39098" lon="-1.38025">
        <ele>12.9</ele>
        <time>2022-01-29T14:57:41Z</time>
      </trkpt>
      <trkpt lat="49.39104" lon="-1.38019">
        <ele>13.3</ele>
        <time>2022-01-29T14:57:46Z</time>
      </trkpt>
      <trkpt lat="49.39108" lon="-1.38014">
        <ele>13.7</ele>
        <time>2022-01-29T14:57:50Z</time>
      </trkpt>
      <trkpt lat="49.39112" lon="-1.38008">
        <ele>14</ele>
        <time>2022-01-29T14:57:54Z</time>
      </trkpt>
      <trkpt lat="49.39116" lon="-1.38003">
        <ele>14</ele>
        <time>2022-01-29T14:57:58Z</time>
      </trkpt>
      <trkpt lat="49.3912" lon="-1.37996">
        <ele>14.2</ele>
        <time>2022-01-29T14:58:02Z</time>
      </trkpt>
      <trkpt lat="49.39123" lon="-1.37991">
        <ele>14.5</ele>
        <time>2022-01-29T14:58:07Z</time>
      </trkpt>
      <trkpt lat="49.39128" lon="-1.37985">
        <ele>14.4</ele>
        <time>2022-01-29T14:58:11Z</time>
      </trkpt>
      <trkpt lat="49.39132" lon="-1.3798">
        <ele>14.3</ele>
        <time>2022-01-29T14:58:14Z</time>
      </trkpt>
      <trkpt lat="49.39136" lon="-1.37976">
        <ele>14.1</ele>
        <time>2022-01-29T14:58:18Z</time>
      </trkpt>
      <trkpt lat="49.3914" lon="-1.37972">
        <ele>13.8</ele>
        <time>2022-01-29T14:58:21Z</time>
      </trkpt>
      <trkpt lat="49.39143" lon="-1.37967">
        <ele>13.3</ele>
        <time>2022-01-29T14:58:24Z</time>
      </trkpt>
      <trkpt lat="49.39147" lon="-1.37964">
        <ele>12.8</ele>
        <time>2022-01-29T14:58:28Z</time>
      </trkpt>
      <trkpt lat="49.39151" lon="-1.37959">
        <ele>12.3</ele>
        <time>2022-01-29T14:58:31Z</time>
      </trkpt>
      <trkpt lat="49.39155" lon="-1.37953">
        <ele>12</ele>
        <time>2022-01-29T14:58:35Z</time>
      </trkpt>
      <trkpt lat="49.3916" lon="-1.37948">
        <ele>12</ele>
        <time>2022-01-29T14:58:39Z</time>
      </trkpt>
      <trkpt lat="49.39164" lon="-1.37945">
        <ele>11.9</ele>
        <time>2022-01-29T14:58:42Z</time>
      </trkpt>
      <trkpt lat="49.39168" lon="-1.3794">
        <ele>11.8</ele>
        <time>2022-01-29T14:58:46Z</time>
      </trkpt>
      <trkpt lat="49.39173" lon="-1.37935">
        <ele>11.6</ele>
        <time>2022-01-29T14:58:50Z</time>
      </trkpt>
      <trkpt lat="49.39177" lon="-1.37931">
        <ele>11.4</ele>
        <time>2022-01-29T14:58:54Z</time>
      </trkpt>
      <trkpt lat="49.39182" lon="-1.37926">
        <ele>11.4</ele>
        <time>2022-01-29T14:58:58Z</time>
      </trkpt>
      <trkpt lat="49.39188" lon="-1.37923">
        <ele>11.3</ele>
        <time>2022-01-29T14:59:02Z</time>
      </trkpt>
      <trkpt lat="49.39191" lon="-1.37918">
        <ele>11</ele>
        <time>2022-01-29T14:59:06Z</time>
      </trkpt>
      <trkpt lat="49.39197" lon="-1.37915">
        <ele>10.5</ele>
        <time>2022-01-29T14:59:10Z</time>
      </trkpt>
      <trkpt lat="49.39203" lon="-1.37914">
        <ele>10.3</ele>
        <time>2022-01-29T14:59:14Z</time>
      </trkpt>
      <trkpt lat="49.39208" lon="-1.37912">
        <ele>10.1</ele>
        <time>2022-01-29T14:59:18Z</time>
      </trkpt>
      <trkpt lat="49.39214" lon="-1.37911">
        <ele>9.9</ele>
        <time>2022-01-29T14:59:22Z</time>
      </trkpt>
      <trkpt lat="49.3922" lon="-1.37913">
        <ele>9.7</ele>
        <time>2022-01-29T14:59:26Z</time>
      </trkpt>
      <trkpt lat="49.39224" lon="-1.37918">
        <ele>9.5</ele>
        <time>2022-01-29T14:59:30Z</time>
      </trkpt>
      <trkpt lat="49.39229" lon="-1.37921">
        <ele>9</ele>
        <time>2022-01-29T14:59:34Z</time>
      </trkpt>
      <trkpt lat="49.39235" lon="-1.37925">
        <ele>8.3</ele>
        <time>2022-01-29T14:59:38Z</time>
      </trkpt>
      <trkpt lat="49.3924" lon="-1.37927">
        <ele>7.7</ele>
        <time>2022-01-29T14:59:43Z</time>
      </trkpt>
      <trkpt lat="49.39246" lon="-1.37926">
        <ele>7.4</ele>
        <time>2022-01-29T14:59:47Z</time>
      </trkpt>
      <trkpt lat="49.3925" lon="-1.37929">
        <ele>7.3</ele>
        <time>2022-01-29T14:59:50Z</time>
      </trkpt>
      <trkpt lat="49.39255" lon="-1.37932">
        <ele>7.5</ele>
        <time>2022-01-29T14:59:54Z</time>
      </trkpt>
      <trkpt lat="49.39261" lon="-1.37932">
        <ele>7.4</ele>
        <time>2022-01-29T14:59:58Z</time>
      </trkpt>
      <trkpt lat="49.39266" lon="-1.37933">
        <ele>7.5</ele>
        <time>2022-01-29T15:00:02Z</time>
      </trkpt>
      <trkpt lat="49.39271" lon="-1.37933">
        <ele>7.3</ele>
        <time>2022-01-29T15:00:05Z</time>
      </trkpt>
      <trkpt lat="49.39276" lon="-1.37933">
        <ele>7.3</ele>
        <time>2022-01-29T15:00:09Z</time>
      </trkpt>
      <trkpt lat="49.39281" lon="-1.37932">
        <ele>7.5</ele>
        <time>2022-01-29T15:00:12Z</time>
      </trkpt>
      <trkpt lat="49.39287" lon="-1.37936">
        <ele>7.8</ele>
        <time>2022-01-29T15:00:16Z</time>
      </trkpt>
      <trkpt lat="49.39291" lon="-1.37941">
        <ele>8</ele>
        <time>2022-01-29T15:00:19Z</time>
      </trkpt>
      <trkpt lat="49.39293" lon="-1.37948">
        <ele>7.4</ele>
        <time>2022-01-29T15:00:25Z</time>
      </trkpt>
      <trkpt lat="49.39294" lon="-1.37958">
        <ele>6</ele>
        <time>2022-01-29T15:00:29Z</time>
      </trkpt>
      <trkpt lat="49.39293" lon="-1.37965">
        <ele>5.3</ele>
        <time>2022-01-29T15:00:32Z</time>
      </trkpt>
      <trkpt lat="49.39293" lon="-1.37972">
        <ele>5.1</ele>
        <time>2022-01-29T15:00:35Z</time>
      </trkpt>
      <trkpt lat="49.39296" lon="-1.37979">
        <ele>5.2</ele>
        <time>2022-01-29T15:00:39Z</time>
      </trkpt>
      <trkpt lat="49.39302" lon="-1.37981">
        <ele>5.1</ele>
        <time>2022-01-29T15:00:44Z</time>
      </trkpt>
      <trkpt lat="49.39308" lon="-1.3798">
        <ele>4.8</ele>
        <time>2022-01-29T15:00:49Z</time>
      </trkpt>
      <trkpt lat="49.39314" lon="-1.37981">
        <ele>4.7</ele>
        <time>2022-01-29T15:00:53Z</time>
      </trkpt>
      <trkpt lat="49.3932" lon="-1.37982">
        <ele>4.5</ele>
        <time>2022-01-29T15:00:57Z</time>
      </trkpt>
      <trkpt lat="49.39325" lon="-1.37985">
        <ele>3.9</ele>
        <time>2022-01-29T15:01:00Z</time>
      </trkpt>
      <trkpt lat="49.3933" lon="-1.37986">
        <ele>3.3</ele>
        <time>2022-01-29T15:01:04Z</time>
      </trkpt>
      <trkpt lat="49.39336" lon="-1.37986">
        <ele>2.9</ele>
        <time>2022-01-29T15:01:07Z</time>
      </trkpt>
      <trkpt lat="49.39341" lon="-1.37987">
        <ele>3</ele>
        <time>2022-01-29T15:01:11Z</time>
      </trkpt>
      <trkpt lat="49.39345" lon="-1.37987">
        <ele>3.2</ele>
        <time>2022-01-29T15:01:15Z</time>
      </trkpt>
      <trkpt lat="49.39351" lon="-1.37989">
        <ele>3.3</ele>
        <time>2022-01-29T15:01:19Z</time>
      </trkpt>
      <trkpt lat="49.39356" lon="-1.37992">
        <ele>3.2</ele>
        <time>2022-01-29T15:01:23Z</time>
      </trkpt>
      <trkpt lat="49.39361" lon="-1.37997">
        <ele>3.5</ele>
        <time>2022-01-29T15:01:28Z</time>
      </trkpt>
      <trkpt lat="49.39365" lon="-1.37999">
        <ele>3.7</ele>
        <time>2022-01-29T15:01:31Z</time>
      </trkpt>
      <trkpt lat="49.3937" lon="-1.38">
        <ele>4.2</ele>
        <time>2022-01-29T15:01:35Z</time>
      </trkpt>
      <trkpt lat="49.39376" lon="-1.38003">
        <ele>4.5</ele>
        <time>2022-01-29T15:01:39Z</time>
      </trkpt>
      <trkpt lat="49.3938" lon="-1.38006">
        <ele>4.5</ele>
        <time>2022-01-29T15:01:42Z</time>
      </trkpt>
      <trkpt lat="49.39384" lon="-1.38007">
        <ele>4.4</ele>
        <time>2022-01-29T15:01:46Z</time>
      </trkpt>
      <trkpt lat="49.39389" lon="-1.38009">
        <ele>4.3</ele>
        <time>2022-01-29T15:01:49Z</time>
      </trkpt>
      <trkpt lat="49.39393" lon="-1.38012">
        <ele>4.2</ele>
        <time>2022-01-29T15:01:52Z</time>
      </trkpt>
      <trkpt lat="49.39398" lon="-1.38014">
        <ele>3.9</ele>
        <time>2022-01-29T15:01:56Z</time>
      </trkpt>
      <trkpt lat="49.39403" lon="-1.38018">
        <ele>3.6</ele>
        <time>2022-01-29T15:02:00Z</time>
      </trkpt>
      <trkpt lat="49.39407" lon="-1.38022">
        <ele>3.6</ele>
        <time>2022-01-29T15:02:04Z</time>
      </trkpt>
      <trkpt lat="49.39411" lon="-1.38025">
        <ele>4</ele>
        <time>2022-01-29T15:02:07Z</time>
      </trkpt>
      <trkpt lat="49.39415" lon="-1.3803">
        <ele>4.5</ele>
        <time>2022-01-29T15:02:10Z</time>
      </trkpt>
      <trkpt lat="49.39419" lon="-1.38034">
        <ele>4.9</ele>
        <time>2022-01-29T15:02:34Z</time>
      </trkpt>
      <trkpt lat="49.39422" lon="-1.38038">
        <ele>4.8</ele>
        <time>2022-01-29T15:02:37Z</time>
      </trkpt>
      <trkpt lat="49.39426" lon="-1.38046">
        <ele>4.8</ele>
        <time>2022-01-29T15:02:41Z</time>
      </trkpt>
      <trkpt lat="49.39431" lon="-1.3805">
        <ele>4.7</ele>
        <time>2022-01-29T15:02:44Z</time>
      </trkpt>
      <trkpt lat="49.39434" lon="-1.38055">
        <ele>4.9</ele>
        <time>2022-01-29T15:02:47Z</time>
      </trkpt>
      <trkpt lat="49.39438" lon="-1.38062">
        <ele>5.3</ele>
        <time>2022-01-29T15:02:52Z</time>
      </trkpt>
      <trkpt lat="49.39441" lon="-1.38069">
        <ele>5.6</ele>
        <time>2022-01-29T15:02:56Z</time>
      </trkpt>
      <trkpt lat="49.39443" lon="-1.38075">
        <ele>5.5</ele>
        <time>2022-01-29T15:03:00Z</time>
      </trkpt>
      <trkpt lat="49.39446" lon="-1.38081">
        <ele>5.4</ele>
        <time>2022-01-29T15:03:03Z</time>
      </trkpt>
      <trkpt lat="49.39449" lon="-1.38088">
        <ele>5.3</ele>
        <time>2022-01-29T15:03:07Z</time>
      </trkpt>
      <trkpt lat="49.39452" lon="-1.38094">
        <ele>5.2</ele>
        <time>2022-01-29T15:03:10Z</time>
      </trkpt>
      <trkpt lat="49.39454" lon="-1.381">
        <ele>5.1</ele>
        <time>2022-01-29T15:03:14Z</time>
      </trkpt>
      <trkpt lat="49.39456" lon="-1.38109">
        <ele>5</ele>
        <time>2022-01-29T15:03:18Z</time>
      </trkpt>
      <trkpt lat="49.39461" lon="-1.38114">
        <ele>4.7</ele>
        <time>2022-01-29T15:03:23Z</time>
      </trkpt>
      <trkpt lat="49.39464" lon="-1.38121">
        <ele>4.7</ele>
        <time>2022-01-29T15:03:26Z</time>
      </trkpt>
      <trkpt lat="49.39468" lon="-1.38126">
        <ele>5</ele>
        <time>2022-01-29T15:03:30Z</time>
      </trkpt>
      <trkpt lat="49.39469" lon="-1.38134">
        <ele>5.3</ele>
        <time>2022-01-29T15:03:33Z</time>
      </trkpt>
      <trkpt lat="49.39471" lon="-1.38142">
        <ele>5.7</ele>
        <time>2022-01-29T15:03:37Z</time>
      </trkpt>
      <trkpt lat="49.39474" lon="-1.38148">
        <ele>6.1</ele>
        <time>2022-01-29T15:03:41Z</time>
      </trkpt>
      <trkpt lat="49.39476" lon="-1.38155">
        <ele>6.8</ele>
        <time>2022-01-29T15:03:46Z</time>
      </trkpt>
      <trkpt lat="49.39475" lon="-1.38164">
        <ele>7.1</ele>
        <time>2022-01-29T15:03:51Z</time>
      </trkpt>
      <trkpt lat="49.39476" lon="-1.38173">
        <ele>7.3</ele>
        <time>2022-01-29T15:03:55Z</time>
      </trkpt>
      <trkpt lat="49.39477" lon="-1.3818">
        <ele>7.3</ele>
        <time>2022-01-29T15:04:00Z</time>
      </trkpt>
      <trkpt lat="49.39479" lon="-1.38187">
        <ele>7.9</ele>
        <time>2022-01-29T15:04:15Z</time>
      </trkpt>
      <trkpt lat="49.39481" lon="-1.38194">
        <ele>7.9</ele>
        <time>2022-01-29T15:04:17Z</time>
      </trkpt>
      <trkpt lat="49.39483" lon="-1.382">
        <ele>7.8</ele>
        <time>2022-01-29T15:04:19Z</time>
      </trkpt>
      <trkpt lat="49.39485" lon="-1.38209">
        <ele>8</ele>
        <time>2022-01-29T15:04:23Z</time>
      </trkpt>
      <trkpt lat="49.39487" lon="-1.38216">
        <ele>8.3</ele>
        <time>2022-01-29T15:04:26Z</time>
      </trkpt>
      <trkpt lat="49.3949" lon="-1.38224">
        <ele>8.5</ele>
        <time>2022-01-29T15:04:30Z</time>
      </trkpt>
      <trkpt lat="49.39491" lon="-1.38231">
        <ele>8.1</ele>
        <time>2022-01-29T15:04:34Z</time>
      </trkpt>
      <trkpt lat="49.39494" lon="-1.38239">
        <ele>7.2</ele>
        <time>2022-01-29T15:04:39Z</time>
      </trkpt>
      <trkpt lat="49.39495" lon="-1.38246">
        <ele>6.8</ele>
        <time>2022-01-29T15:04:42Z</time>
      </trkpt>
      <trkpt lat="49.39497" lon="-1.38253">
        <ele>6.9</ele>
        <time>2022-01-29T15:04:46Z</time>
      </trkpt>
      <trkpt lat="49.39499" lon="-1.38261">
        <ele>7.1</ele>
        <time>2022-01-29T15:04:50Z</time>
      </trkpt>
      <trkpt lat="49.395" lon="-1.38268">
        <ele>7.3</ele>
        <time>2022-01-29T15:04:53Z</time>
      </trkpt>
      <trkpt lat="49.39502" lon="-1.38276">
        <ele>7.4</ele>
        <time>2022-01-29T15:04:58Z</time>
      </trkpt>
      <trkpt lat="49.39504" lon="-1.38285">
        <ele>7.3</ele>
        <time>2022-01-29T15:05:02Z</time>
      </trkpt>
      <trkpt lat="49.39505" lon="-1.38292">
        <ele>7.2</ele>
        <time>2022-01-29T15:05:05Z</time>
      </trkpt>
      <trkpt lat="49.39506" lon="-1.38299">
        <ele>7</ele>
        <time>2022-01-29T15:05:09Z</time>
      </trkpt>
      <trkpt lat="49.39507" lon="-1.38306">
        <ele>7</ele>
        <time>2022-01-29T15:05:12Z</time>
      </trkpt>
      <trkpt lat="49.39509" lon="-1.38313">
        <ele>7.2</ele>
        <time>2022-01-29T15:05:16Z</time>
      </trkpt>
      <trkpt lat="49.39511" lon="-1.38321">
        <ele>7.5</ele>
        <time>2022-01-29T15:05:20Z</time>
      </trkpt>
      <trkpt lat="49.39513" lon="-1.38328">
        <ele>7.7</ele>
        <time>2022-01-29T15:05:24Z</time>
      </trkpt>
      <trkpt lat="49.39516" lon="-1.38336">
        <ele>7.9</ele>
        <time>2022-01-29T15:05:29Z</time>
      </trkpt>
      <trkpt lat="49.39518" lon="-1.38344">
        <ele>7.9</ele>
        <time>2022-01-29T15:05:33Z</time>
      </trkpt>
      <trkpt lat="49.39518" lon="-1.38351">
        <ele>8</ele>
        <time>2022-01-29T15:05:36Z</time>
      </trkpt>
      <trkpt lat="49.39519" lon="-1.38359">
        <ele>8</ele>
        <time>2022-01-29T15:05:40Z</time>
      </trkpt>
      <trkpt lat="49.3952" lon="-1.38367">
        <ele>8.1</ele>
        <time>2022-01-29T15:05:44Z</time>
      </trkpt>
      <trkpt lat="49.39521" lon="-1.38375">
        <ele>8</ele>
        <time>2022-01-29T15:05:48Z</time>
      </trkpt>
      <trkpt lat="49.39523" lon="-1.38382">
        <ele>7.9</ele>
        <time>2022-01-29T15:05:53Z</time>
      </trkpt>
      <trkpt lat="49.39525" lon="-1.3839">
        <ele>7.8</ele>
        <time>2022-01-29T15:05:58Z</time>
      </trkpt>
      <trkpt lat="49.39527" lon="-1.38397">
        <ele>7.7</ele>
        <time>2022-01-29T15:06:02Z</time>
      </trkpt>
      <trkpt lat="49.39529" lon="-1.38405">
        <ele>7.7</ele>
        <time>2022-01-29T15:06:07Z</time>
      </trkpt>
      <trkpt lat="49.39529" lon="-1.38413">
        <ele>7.6</ele>
        <time>2022-01-29T15:06:12Z</time>
      </trkpt>
      <trkpt lat="49.39528" lon="-1.38422">
        <ele>7.5</ele>
        <time>2022-01-29T15:06:16Z</time>
      </trkpt>
      <trkpt lat="49.39528" lon="-1.3843">
        <ele>7.5</ele>
        <time>2022-01-29T15:06:20Z</time>
      </trkpt>
      <trkpt lat="49.39529" lon="-1.38438">
        <ele>7.6</ele>
        <time>2022-01-29T15:06:24Z</time>
      </trkpt>
      <trkpt lat="49.39528" lon="-1.38445">
        <ele>7.7</ele>
        <time>2022-01-29T15:06:27Z</time>
      </trkpt>
      <trkpt lat="49.39529" lon="-1.38453">
        <ele>7.9</ele>
        <time>2022-01-29T15:06:31Z</time>
      </trkpt>
      <trkpt lat="49.39529" lon="-1.38462">
        <ele>8.1</ele>
        <time>2022-01-29T15:06:35Z</time>
      </trkpt>
      <trkpt lat="49.3953" lon="-1.38472">
        <ele>8.2</ele>
        <time>2022-01-29T15:06:40Z</time>
      </trkpt>
      <trkpt lat="49.39532" lon="-1.38479">
        <ele>8.3</ele>
        <time>2022-01-29T15:06:44Z</time>
      </trkpt>
      <trkpt lat="49.39531" lon="-1.38488">
        <ele>8.6</ele>
        <time>2022-01-29T15:06:48Z</time>
      </trkpt>
      <trkpt lat="49.3953" lon="-1.38497">
        <ele>9</ele>
        <time>2022-01-29T15:06:52Z</time>
      </trkpt>
      <trkpt lat="49.3953" lon="-1.38505">
        <ele>9.1</ele>
        <time>2022-01-29T15:06:56Z</time>
      </trkpt>
      <trkpt lat="49.3953" lon="-1.38514">
        <ele>9.4</ele>
        <time>2022-01-29T15:07:00Z</time>
      </trkpt>
      <trkpt lat="49.3953" lon="-1.38523">
        <ele>9.7</ele>
        <time>2022-01-29T15:07:04Z</time>
      </trkpt>
      <trkpt lat="49.3953" lon="-1.3853">
        <ele>10.2</ele>
        <time>2022-01-29T15:07:07Z</time>
      </trkpt>
      <trkpt lat="49.3953" lon="-1.38537">
        <ele>10.6</ele>
        <time>2022-01-29T15:07:11Z</time>
      </trkpt>
      <trkpt lat="49.39529" lon="-1.38545">
        <ele>10.8</ele>
        <time>2022-01-29T15:07:14Z</time>
      </trkpt>
      <trkpt lat="49.39527" lon="-1.38554">
        <ele>11</ele>
        <time>2022-01-29T15:07:18Z</time>
      </trkpt>
      <trkpt lat="49.39526" lon="-1.38561">
        <ele>11.3</ele>
        <time>2022-01-29T15:07:23Z</time>
      </trkpt>
      <trkpt lat="49.39523" lon="-1.38566">
        <ele>11.8</ele>
        <time>2022-01-29T15:07:27Z</time>
      </trkpt>
      <trkpt lat="49.39522" lon="-1.38575">
        <ele>12.6</ele>
        <time>2022-01-29T15:07:35Z</time>
      </trkpt>
      <trkpt lat="49.39523" lon="-1.38583">
        <ele>12.7</ele>
        <time>2022-01-29T15:07:38Z</time>
      </trkpt>
      <trkpt lat="49.39524" lon="-1.38591">
        <ele>12.9</ele>
        <time>2022-01-29T15:07:42Z</time>
      </trkpt>
      <trkpt lat="49.3952" lon="-1.38598">
        <ele>13.1</ele>
        <time>2022-01-29T15:07:47Z</time>
      </trkpt>
      <trkpt lat="49.39518" lon="-1.38606">
        <ele>13</ele>
        <time>2022-01-29T15:07:51Z</time>
      </trkpt>
      <trkpt lat="49.39519" lon="-1.38615">
        <ele>12.9</ele>
        <time>2022-01-29T15:07:55Z</time>
      </trkpt>
      <trkpt lat="49.39519" lon="-1.38623">
        <ele>13</ele>
        <time>2022-01-29T15:07:58Z</time>
      </trkpt>
      <trkpt lat="49.39519" lon="-1.3863">
        <ele>13.1</ele>
        <time>2022-01-29T15:08:02Z</time>
      </trkpt>
      <trkpt lat="49.39518" lon="-1.38637">
        <ele>13.1</ele>
        <time>2022-01-29T15:08:05Z</time>
      </trkpt>
      <trkpt lat="49.39516" lon="-1.38644">
        <ele>12.8</ele>
        <time>2022-01-29T15:08:08Z</time>
      </trkpt>
      <trkpt lat="49.39515" lon="-1.38653">
        <ele>12.4</ele>
        <time>2022-01-29T15:08:12Z</time>
      </trkpt>
      <trkpt lat="49.39513" lon="-1.38661">
        <ele>11.9</ele>
        <time>2022-01-29T15:08:15Z</time>
      </trkpt>
      <trkpt lat="49.39512" lon="-1.38668">
        <ele>11.6</ele>
        <time>2022-01-29T15:08:19Z</time>
      </trkpt>
      <trkpt lat="49.3951" lon="-1.38676">
        <ele>11.3</ele>
        <time>2022-01-29T15:08:23Z</time>
      </trkpt>
      <trkpt lat="49.39509" lon="-1.38684">
        <ele>11.1</ele>
        <time>2022-01-29T15:08:28Z</time>
      </trkpt>
      <trkpt lat="49.39508" lon="-1.38693">
        <ele>11.1</ele>
        <time>2022-01-29T15:08:32Z</time>
      </trkpt>
      <trkpt lat="49.39508" lon="-1.38701">
        <ele>10.9</ele>
        <time>2022-01-29T15:08:35Z</time>
      </trkpt>
      <trkpt lat="49.39508" lon="-1.38709">
        <ele>10.9</ele>
        <time>2022-01-29T15:08:39Z</time>
      </trkpt>
      <trkpt lat="49.39508" lon="-1.38717">
        <ele>10.7</ele>
        <time>2022-01-29T15:08:42Z</time>
      </trkpt>
      <trkpt lat="49.39507" lon="-1.38724">
        <ele>10.7</ele>
        <time>2022-01-29T15:08:45Z</time>
      </trkpt>
      <trkpt lat="49.39507" lon="-1.38732">
        <ele>10.4</ele>
        <time>2022-01-29T15:08:49Z</time>
      </trkpt>
      <trkpt lat="49.39505" lon="-1.38741">
        <ele>9.8</ele>
        <time>2022-01-29T15:08:53Z</time>
      </trkpt>
      <trkpt lat="49.39505" lon="-1.38749">
        <ele>9.7</ele>
        <time>2022-01-29T15:08:57Z</time>
      </trkpt>
      <trkpt lat="49.39505" lon="-1.38757">
        <ele>9.7</ele>
        <time>2022-01-29T15:09:00Z</time>
      </trkpt>
      <trkpt lat="49.39504" lon="-1.38764">
        <ele>9.8</ele>
        <time>2022-01-29T15:09:03Z</time>
      </trkpt>
      <trkpt lat="49.39504" lon="-1.38772">
        <ele>10.2</ele>
        <time>2022-01-29T15:09:07Z</time>
      </trkpt>
      <trkpt lat="49.39503" lon="-1.38781">
        <ele>10.9</ele>
        <time>2022-01-29T15:09:11Z</time>
      </trkpt>
      <trkpt lat="49.39503" lon="-1.38788">
        <ele>11.1</ele>
        <time>2022-01-29T15:09:15Z</time>
      </trkpt>
      <trkpt lat="49.39504" lon="-1.38795">
        <ele>11</ele>
        <time>2022-01-29T15:09:19Z</time>
      </trkpt>
      <trkpt lat="49.39501" lon="-1.38802">
        <ele>10.5</ele>
        <time>2022-01-29T15:09:23Z</time>
      </trkpt>
      <trkpt lat="49.39502" lon="-1.38811">
        <ele>10.6</ele>
        <time>2022-01-29T15:09:27Z</time>
      </trkpt>
      <trkpt lat="49.39502" lon="-1.38819">
        <ele>11.1</ele>
        <time>2022-01-29T15:09:31Z</time>
      </trkpt>
      <trkpt lat="49.39501" lon="-1.38826">
        <ele>11.7</ele>
        <time>2022-01-29T15:09:34Z</time>
      </trkpt>
      <trkpt lat="49.39501" lon="-1.38833">
        <ele>12.2</ele>
        <time>2022-01-29T15:09:37Z</time>
      </trkpt>
      <trkpt lat="49.39502" lon="-1.38841">
        <ele>12.5</ele>
        <time>2022-01-29T15:09:41Z</time>
      </trkpt>
      <trkpt lat="49.395" lon="-1.38849">
        <ele>13</ele>
        <time>2022-01-29T15:09:45Z</time>
      </trkpt>
      <trkpt lat="49.395" lon="-1.38856">
        <ele>13.6</ele>
        <time>2022-01-29T15:09:50Z</time>
      </trkpt>
      <trkpt lat="49.395" lon="-1.38864">
        <ele>13.7</ele>
        <time>2022-01-29T15:09:53Z</time>
      </trkpt>
      <trkpt lat="49.39503" lon="-1.38871">
        <ele>14</ele>
        <time>2022-01-29T15:09:56Z</time>
      </trkpt>
      <trkpt lat="49.39505" lon="-1.38877">
        <ele>14.5</ele>
        <time>2022-01-29T15:10:00Z</time>
      </trkpt>
      <trkpt lat="49.39508" lon="-1.38883">
        <ele>15</ele>
        <time>2022-01-29T15:10:03Z</time>
      </trkpt>
      <trkpt lat="49.3951" lon="-1.38891">
        <ele>15.1</ele>
        <time>2022-01-29T15:10:07Z</time>
      </trkpt>
      <trkpt lat="49.39512" lon="-1.38898">
        <ele>14.9</ele>
        <time>2022-01-29T15:10:10Z</time>
      </trkpt>
      <trkpt lat="49.39514" lon="-1.38906">
        <ele>14.4</ele>
        <time>2022-01-29T15:10:14Z</time>
      </trkpt>
      <trkpt lat="49.39517" lon="-1.38913">
        <ele>13.9</ele>
        <time>2022-01-29T15:10:18Z</time>
      </trkpt>
      <trkpt lat="49.3952" lon="-1.38919">
        <ele>13.3</ele>
        <time>2022-01-29T15:10:21Z</time>
      </trkpt>
      <trkpt lat="49.39524" lon="-1.38925">
        <ele>13.1</ele>
        <time>2022-01-29T15:10:24Z</time>
      </trkpt>
      <trkpt lat="49.39527" lon="-1.38932">
        <ele>13.2</ele>
        <time>2022-01-29T15:10:28Z</time>
      </trkpt>
      <trkpt lat="49.39531" lon="-1.38937">
        <ele>13.8</ele>
        <time>2022-01-29T15:10:31Z</time>
      </trkpt>
      <trkpt lat="49.39535" lon="-1.38943">
        <ele>14.4</ele>
        <time>2022-01-29T15:10:35Z</time>
      </trkpt>
      <trkpt lat="49.39539" lon="-1.38947">
        <ele>14.7</ele>
        <time>2022-01-29T15:10:39Z</time>
      </trkpt>
      <trkpt lat="49.39544" lon="-1.38953">
        <ele>14.6</ele>
        <time>2022-01-29T15:10:43Z</time>
      </trkpt>
      <trkpt lat="49.39547" lon="-1.38958">
        <ele>14.7</ele>
        <time>2022-01-29T15:10:47Z</time>
      </trkpt>
      <trkpt lat="49.39551" lon="-1.38963">
        <ele>14.6</ele>
        <time>2022-01-29T15:10:51Z</time>
      </trkpt>
      <trkpt lat="49.39555" lon="-1.38969">
        <ele>14.7</ele>
        <time>2022-01-29T15:10:56Z</time>
      </trkpt>
      <trkpt lat="49.39558" lon="-1.38975">
        <ele>14.8</ele>
        <time>2022-01-29T15:11:00Z</time>
      </trkpt>
      <trkpt lat="49.39562" lon="-1.3898">
        <ele>14.4</ele>
        <time>2022-01-29T15:11:03Z</time>
      </trkpt>
      <trkpt lat="49.39563" lon="-1.38988">
        <ele>13.7</ele>
        <time>2022-01-29T15:11:07Z</time>
      </trkpt>
      <trkpt lat="49.39566" lon="-1.38995">
        <ele>13.3</ele>
        <time>2022-01-29T15:11:11Z</time>
      </trkpt>
      <trkpt lat="49.3957" lon="-1.39">
        <ele>13.4</ele>
        <time>2022-01-29T15:11:15Z</time>
      </trkpt>
      <trkpt lat="49.39575" lon="-1.39004">
        <ele>13.4</ele>
        <time>2022-01-29T15:11:18Z</time>
      </trkpt>
      <trkpt lat="49.39578" lon="-1.39008">
        <ele>13.4</ele>
        <time>2022-01-29T15:11:22Z</time>
      </trkpt>
      <trkpt lat="49.39582" lon="-1.39015">
        <ele>13.1</ele>
        <time>2022-01-29T15:11:26Z</time>
      </trkpt>
      <trkpt lat="49.39587" lon="-1.39019">
        <ele>12.3</ele>
        <time>2022-01-29T15:11:31Z</time>
      </trkpt>
      <trkpt lat="49.39591" lon="-1.39023">
        <ele>12.2</ele>
        <time>2022-01-29T15:11:42Z</time>
      </trkpt>
      <trkpt lat="49.39595" lon="-1.39028">
        <ele>12</ele>
        <time>2022-01-29T15:11:46Z</time>
      </trkpt>
      <trkpt lat="49.39598" lon="-1.39035">
        <ele>11.8</ele>
        <time>2022-01-29T15:11:49Z</time>
      </trkpt>
      <trkpt lat="49.39601" lon="-1.39042">
        <ele>11.5</ele>
        <time>2022-01-29T15:11:53Z</time>
      </trkpt>
      <trkpt lat="49.39604" lon="-1.39047">
        <ele>11</ele>
        <time>2022-01-29T15:11:56Z</time>
      </trkpt>
      <trkpt lat="49.39608" lon="-1.39054">
        <ele>10.6</ele>
        <time>2022-01-29T15:12:00Z</time>
      </trkpt>
      <trkpt lat="49.39612" lon="-1.39057">
        <ele>10.5</ele>
        <time>2022-01-29T15:12:03Z</time>
      </trkpt>
      <trkpt lat="49.39615" lon="-1.39063">
        <ele>10.6</ele>
        <time>2022-01-29T15:12:07Z</time>
      </trkpt>
      <trkpt lat="49.39616" lon="-1.3907">
        <ele>10.4</ele>
        <time>2022-01-29T15:12:11Z</time>
      </trkpt>
      <trkpt lat="49.39614" lon="-1.39076">
        <ele>9</ele>
        <time>2022-01-29T15:12:24Z</time>
      </trkpt>
      <trkpt lat="49.39609" lon="-1.39081">
        <ele>8.9</ele>
        <time>2022-01-29T15:12:27Z</time>
      </trkpt>
      <trkpt lat="49.39605" lon="-1.39086">
        <ele>9.1</ele>
        <time>2022-01-29T15:12:30Z</time>
      </trkpt>
      <trkpt lat="49.39601" lon="-1.3909">
        <ele>9.3</ele>
        <time>2022-01-29T15:12:34Z</time>
      </trkpt>
      <trkpt lat="49.39596" lon="-1.39095">
        <ele>9.3</ele>
        <time>2022-01-29T15:12:38Z</time>
      </trkpt>
      <trkpt lat="49.39592" lon="-1.39098">
        <ele>9.2</ele>
        <time>2022-01-29T15:12:41Z</time>
      </trkpt>
      <trkpt lat="49.39588" lon="-1.39103">
        <ele>9</ele>
        <time>2022-01-29T15:12:45Z</time>
      </trkpt>
      <trkpt lat="49.39583" lon="-1.39108">
        <ele>8.7</ele>
        <time>2022-01-29T15:12:50Z</time>
      </trkpt>
      <trkpt lat="49.39579" lon="-1.39112">
        <ele>8.4</ele>
        <time>2022-01-29T15:12:53Z</time>
      </trkpt>
      <trkpt lat="49.39574" lon="-1.39118">
        <ele>8.3</ele>
        <time>2022-01-29T15:12:57Z</time>
      </trkpt>
      <trkpt lat="49.3957" lon="-1.39123">
        <ele>8.2</ele>
        <time>2022-01-29T15:13:01Z</time>
      </trkpt>
      <trkpt lat="49.39566" lon="-1.39128">
        <ele>8</ele>
        <time>2022-01-29T15:13:04Z</time>
      </trkpt>
      <trkpt lat="49.39562" lon="-1.39134">
        <ele>8</ele>
        <time>2022-01-29T15:13:07Z</time>
      </trkpt>
      <trkpt lat="49.39558" lon="-1.39138">
        <ele>8.1</ele>
        <time>2022-01-29T15:13:10Z</time>
      </trkpt>
      <trkpt lat="49.39555" lon="-1.39144">
        <ele>8.4</ele>
        <time>2022-01-29T15:13:14Z</time>
      </trkpt>
      <trkpt lat="49.39551" lon="-1.39149">
        <ele>8.4</ele>
        <time>2022-01-29T15:13:17Z</time>
      </trkpt>
      <trkpt lat="49.39547" lon="-1.39154">
        <ele>8.3</ele>
        <time>2022-01-29T15:13:20Z</time>
      </trkpt>
      <trkpt lat="49.39544" lon="-1.3916">
        <ele>8.3</ele>
        <time>2022-01-29T15:13:23Z</time>
      </trkpt>
      <trkpt lat="49.39542" lon="-1.39166">
        <ele>8.2</ele>
        <time>2022-01-29T15:13:26Z</time>
      </trkpt>
      <trkpt lat="49.39541" lon="-1.39174">
        <ele>7.9</ele>
        <time>2022-01-29T15:13:30Z</time>
      </trkpt>
      <trkpt lat="49.39541" lon="-1.39182">
        <ele>7.8</ele>
        <time>2022-01-29T15:13:33Z</time>
      </trkpt>
      <trkpt lat="49.39544" lon="-1.39191">
        <ele>7.8</ele>
        <time>2022-01-29T15:13:36Z</time>
      </trkpt>
      <trkpt lat="49.39545" lon="-1.392">
        <ele>8</ele>
        <time>2022-01-29T15:13:39Z</time>
      </trkpt>
      <trkpt lat="49.39545" lon="-1.39207">
        <ele>7.9</ele>
        <time>2022-01-29T15:13:43Z</time>
      </trkpt>
      <trkpt lat="49.39545" lon="-1.39216">
        <ele>7.7</ele>
        <time>2022-01-29T15:13:47Z</time>
      </trkpt>
      <trkpt lat="49.39544" lon="-1.39225">
        <ele>7.6</ele>
        <time>2022-01-29T15:13:51Z</time>
      </trkpt>
      <trkpt lat="49.3954" lon="-1.39231">
        <ele>7.4</ele>
        <time>2022-01-29T15:13:55Z</time>
      </trkpt>
      <trkpt lat="49.39537" lon="-1.39236">
        <ele>6.9</ele>
        <time>2022-01-29T15:13:58Z</time>
      </trkpt>
      <trkpt lat="49.39534" lon="-1.39242">
        <ele>6.3</ele>
        <time>2022-01-29T15:14:02Z</time>
      </trkpt>
      <trkpt lat="49.39532" lon="-1.39249">
        <ele>6.2</ele>
        <time>2022-01-29T15:14:06Z</time>
      </trkpt>
      <trkpt lat="49.39527" lon="-1.39253">
        <ele>6.6</ele>
        <time>2022-01-29T15:14:12Z</time>
      </trkpt>
      <trkpt lat="49.39524" lon="-1.3926">
        <ele>6.5</ele>
        <time>2022-01-29T15:14:36Z</time>
      </trkpt>
      <trkpt lat="49.39523" lon="-1.3927">
        <ele>6.3</ele>
        <time>2022-01-29T15:14:40Z</time>
      </trkpt>
      <trkpt lat="49.3952" lon="-1.39279">
        <ele>6.1</ele>
        <time>2022-01-29T15:14:43Z</time>
      </trkpt>
      <trkpt lat="49.39517" lon="-1.39285">
        <ele>5.9</ele>
        <time>2022-01-29T15:14:45Z</time>
      </trkpt>
      <trkpt lat="49.39516" lon="-1.39293">
        <ele>5.7</ele>
        <time>2022-01-29T15:14:49Z</time>
      </trkpt>
      <trkpt lat="49.39512" lon="-1.393">
        <ele>5.5</ele>
        <time>2022-01-29T15:14:53Z</time>
      </trkpt>
      <trkpt lat="49.39509" lon="-1.39305">
        <ele>5.7</ele>
        <time>2022-01-29T15:14:57Z</time>
      </trkpt>
      <trkpt lat="49.39505" lon="-1.3931">
        <ele>6.1</ele>
        <time>2022-01-29T15:15:00Z</time>
      </trkpt>
      <trkpt lat="49.39502" lon="-1.39315">
        <ele>6.3</ele>
        <time>2022-01-29T15:15:03Z</time>
      </trkpt>
      <trkpt lat="49.39498" lon="-1.39322">
        <ele>6.4</ele>
        <time>2022-01-29T15:15:07Z</time>
      </trkpt>
      <trkpt lat="49.39494" lon="-1.39328">
        <ele>6.5</ele>
        <time>2022-01-29T15:15:11Z</time>
      </trkpt>
      <trkpt lat="49.39491" lon="-1.39334">
        <ele>6.4</ele>
        <time>2022-01-29T15:15:14Z</time>
      </trkpt>
      <trkpt lat="49.39487" lon="-1.39341">
        <ele>6.4</ele>
        <time>2022-01-29T15:15:18Z</time>
      </trkpt>
      <trkpt lat="49.39483" lon="-1.39348">
        <ele>6.4</ele>
        <time>2022-01-29T15:15:22Z</time>
      </trkpt>
      <trkpt lat="49.3948" lon="-1.39354">
        <ele>6.3</ele>
        <time>2022-01-29T15:15:25Z</time>
      </trkpt>
      <trkpt lat="49.39478" lon="-1.39361">
        <ele>6.2</ele>
        <time>2022-01-29T15:15:29Z</time>
      </trkpt>
      <trkpt lat="49.39478" lon="-1.3937">
        <ele>5.8</ele>
        <time>2022-01-29T15:15:33Z</time>
      </trkpt>
      <trkpt lat="49.39482" lon="-1.39377">
        <ele>5.8</ele>
        <time>2022-01-29T15:15:37Z</time>
      </trkpt>
      <trkpt lat="49.39486" lon="-1.39383">
        <ele>5.8</ele>
        <time>2022-01-29T15:15:40Z</time>
      </trkpt>
      <trkpt lat="49.3949" lon="-1.39387">
        <ele>5.9</ele>
        <time>2022-01-29T15:15:43Z</time>
      </trkpt>
      <trkpt lat="49.39492" lon="-1.39393">
        <ele>6.1</ele>
        <time>2022-01-29T15:15:52Z</time>
      </trkpt>
      <trkpt lat="49.39497" lon="-1.39397">
        <ele>6.4</ele>
        <time>2022-01-29T15:15:56Z</time>
      </trkpt>
      <trkpt lat="49.39502" lon="-1.39401">
        <ele>6.2</ele>
        <time>2022-01-29T15:16:00Z</time>
      </trkpt>
      <trkpt lat="49.39507" lon="-1.39405">
        <ele>6</ele>
        <time>2022-01-29T15:16:03Z</time>
      </trkpt>
      <trkpt lat="49.39511" lon="-1.39409">
        <ele>5.9</ele>
        <time>2022-01-29T15:16:06Z</time>
      </trkpt>
      <trkpt lat="49.39516" lon="-1.39412">
        <ele>6.1</ele>
        <time>2022-01-29T15:16:09Z</time>
      </trkpt>
      <trkpt lat="49.39523" lon="-1.39413">
        <ele>6.4</ele>
        <time>2022-01-29T15:16:14Z</time>
      </trkpt>
      <trkpt lat="49.39527" lon="-1.39415">
        <ele>6.7</ele>
        <time>2022-01-29T15:16:17Z</time>
      </trkpt>
      <trkpt lat="49.39532" lon="-1.39418">
        <ele>6.9</ele>
        <time>2022-01-29T15:16:20Z</time>
      </trkpt>
      <trkpt lat="49.39537" lon="-1.39421">
        <ele>7.2</ele>
        <time>2022-01-29T15:16:24Z</time>
      </trkpt>
      <trkpt lat="49.39541" lon="-1.39424">
        <ele>8</ele>
        <time>2022-01-29T15:16:27Z</time>
      </trkpt>
      <trkpt lat="49.39547" lon="-1.39427">
        <ele>9.1</ele>
        <time>2022-01-29T15:16:32Z</time>
      </trkpt>
      <trkpt lat="49.39552" lon="-1.39429">
        <ele>9.7</ele>
        <time>2022-01-29T15:16:36Z</time>
      </trkpt>
      <trkpt lat="49.39557" lon="-1.39433">
        <ele>10</ele>
        <time>2022-01-29T15:16:40Z</time>
      </trkpt>
      <trkpt lat="49.39562" lon="-1.39434">
        <ele>10.2</ele>
        <time>2022-01-29T15:16:44Z</time>
      </trkpt>
      <trkpt lat="49.39567" lon="-1.39434">
        <ele>10.2</ele>
        <time>2022-01-29T15:16:47Z</time>
      </trkpt>
      <trkpt lat="49.39572" lon="-1.39438">
        <ele>10.3</ele>
        <time>2022-01-29T15:16:50Z</time>
      </trkpt>
      <trkpt lat="49.39575" lon="-1.39443">
        <ele>10.6</ele>
        <time>2022-01-29T15:16:53Z</time>
      </trkpt>
      <trkpt lat="49.39579" lon="-1.39448">
        <ele>11.1</ele>
        <time>2022-01-29T15:16:56Z</time>
      </trkpt>
      <trkpt lat="49.39582" lon="-1.39452">
        <ele>11.3</ele>
        <time>2022-01-29T15:16:59Z</time>
      </trkpt>
      <trkpt lat="49.39587" lon="-1.39458">
        <ele>12</ele>
        <time>2022-01-29T15:17:04Z</time>
      </trkpt>
      <trkpt lat="49.39592" lon="-1.39462">
        <ele>12.2</ele>
        <time>2022-01-29T15:17:07Z</time>
      </trkpt>
      <trkpt lat="49.39596" lon="-1.39467">
        <ele>12.1</ele>
        <time>2022-01-29T15:17:11Z</time>
      </trkpt>
      <trkpt lat="49.39602" lon="-1.39472">
        <ele>12</ele>
        <time>2022-01-29T15:17:15Z</time>
      </trkpt>
      <trkpt lat="49.39606" lon="-1.39475">
        <ele>12.1</ele>
        <time>2022-01-29T15:17:18Z</time>
      </trkpt>
      <trkpt lat="49.3961" lon="-1.39479">
        <ele>12.3</ele>
        <time>2022-01-29T15:17:21Z</time>
      </trkpt>
      <trkpt lat="49.39615" lon="-1.39484">
        <ele>12.5</ele>
        <time>2022-01-29T15:17:25Z</time>
      </trkpt>
      <trkpt lat="49.39619" lon="-1.39488">
        <ele>12.7</ele>
        <time>2022-01-29T15:17:28Z</time>
      </trkpt>
      <trkpt lat="49.39623" lon="-1.39493">
        <ele>12.7</ele>
        <time>2022-01-29T15:17:32Z</time>
      </trkpt>
      <trkpt lat="49.39628" lon="-1.39498">
        <ele>12.9</ele>
        <time>2022-01-29T15:17:36Z</time>
      </trkpt>
      <trkpt lat="49.39633" lon="-1.39503">
        <ele>13.1</ele>
        <time>2022-01-29T15:17:40Z</time>
      </trkpt>
      <trkpt lat="49.39638" lon="-1.39507">
        <ele>12.8</ele>
        <time>2022-01-29T15:17:51Z</time>
      </trkpt>
      <trkpt lat="49.39642" lon="-1.39512">
        <ele>12.9</ele>
        <time>2022-01-29T15:17:55Z</time>
      </trkpt>
      <trkpt lat="49.39647" lon="-1.39516">
        <ele>13.1</ele>
        <time>2022-01-29T15:17:58Z</time>
      </trkpt>
      <trkpt lat="49.39653" lon="-1.39519">
        <ele>13.2</ele>
        <time>2022-01-29T15:18:02Z</time>
      </trkpt>
      <trkpt lat="49.39657" lon="-1.39522">
        <ele>13.2</ele>
        <time>2022-01-29T15:18:05Z</time>
      </trkpt>
      <trkpt lat="49.39661" lon="-1.39525">
        <ele>13.2</ele>
        <time>2022-01-29T15:18:08Z</time>
      </trkpt>
      <trkpt lat="49.39665" lon="-1.39529">
        <ele>13.4</ele>
        <time>2022-01-29T15:18:12Z</time>
      </trkpt>
      <trkpt lat="49.39669" lon="-1.39533">
        <ele>13.6</ele>
        <time>2022-01-29T15:18:15Z</time>
      </trkpt>
      <trkpt lat="49.39674" lon="-1.39537">
        <ele>13.7</ele>
        <time>2022-01-29T15:18:18Z</time>
      </trkpt>
      <trkpt lat="49.39678" lon="-1.3954">
        <ele>13.8</ele>
        <time>2022-01-29T15:18:22Z</time>
      </trkpt>
      <trkpt lat="49.39683" lon="-1.39542">
        <ele>14.1</ele>
        <time>2022-01-29T15:18:26Z</time>
      </trkpt>
      <trkpt lat="49.39688" lon="-1.39546">
        <ele>14.6</ele>
        <time>2022-01-29T15:18:30Z</time>
      </trkpt>
      <trkpt lat="49.39692" lon="-1.39549">
        <ele>15.2</ele>
        <time>2022-01-29T15:18:33Z</time>
      </trkpt>
      <trkpt lat="49.39697" lon="-1.39553">
        <ele>15.3</ele>
        <time>2022-01-29T15:18:36Z</time>
      </trkpt>
      <trkpt lat="49.39701" lon="-1.39558">
        <ele>15.3</ele>
        <time>2022-01-29T15:18:40Z</time>
      </trkpt>
      <trkpt lat="49.39705" lon="-1.39562">
        <ele>15</ele>
        <time>2022-01-29T15:18:44Z</time>
      </trkpt>
      <trkpt lat="49.39709" lon="-1.39566">
        <ele>14.8</ele>
        <time>2022-01-29T15:18:47Z</time>
      </trkpt>
      <trkpt lat="49.39713" lon="-1.39571">
        <ele>14.6</ele>
        <time>2022-01-29T15:18:52Z</time>
      </trkpt>
      <trkpt lat="49.39719" lon="-1.39575">
        <ele>14.7</ele>
        <time>2022-01-29T15:18:56Z</time>
      </trkpt>
      <trkpt lat="49.39724" lon="-1.3958">
        <ele>15</ele>
        <time>2022-01-29T15:19:01Z</time>
      </trkpt>
      <trkpt lat="49.39729" lon="-1.39586">
        <ele>15.1</ele>
        <time>2022-01-29T15:19:06Z</time>
      </trkpt>
      <trkpt lat="49.39731" lon="-1.39592">
        <ele>15</ele>
        <time>2022-01-29T15:19:09Z</time>
      </trkpt>
      <trkpt lat="49.39731" lon="-1.396">
        <ele>15.1</ele>
        <time>2022-01-29T15:19:12Z</time>
      </trkpt>
      <trkpt lat="49.39728" lon="-1.39607">
        <ele>15.2</ele>
        <time>2022-01-29T15:19:16Z</time>
      </trkpt>
      <trkpt lat="49.39724" lon="-1.39611">
        <ele>15.2</ele>
        <time>2022-01-29T15:19:19Z</time>
      </trkpt>
      <trkpt lat="49.39721" lon="-1.3962">
        <ele>15.2</ele>
        <time>2022-01-29T15:19:23Z</time>
      </trkpt>
      <trkpt lat="49.3972" lon="-1.39627">
        <ele>15.1</ele>
        <time>2022-01-29T15:19:26Z</time>
      </trkpt>
      <trkpt lat="49.39718" lon="-1.39633">
        <ele>15</ele>
        <time>2022-01-29T15:19:30Z</time>
      </trkpt>
      <trkpt lat="49.39716" lon="-1.39642">
        <ele>15</ele>
        <time>2022-01-29T15:19:34Z</time>
      </trkpt>
      <trkpt lat="49.39714" lon="-1.3965">
        <ele>15.1</ele>
        <time>2022-01-29T15:19:38Z</time>
      </trkpt>
      <trkpt lat="49.39713" lon="-1.39658">
        <ele>15.2</ele>
        <time>2022-01-29T15:19:42Z</time>
      </trkpt>
      <trkpt lat="49.39711" lon="-1.39666">
        <ele>15.1</ele>
        <time>2022-01-29T15:19:46Z</time>
      </trkpt>
      <trkpt lat="49.39709" lon="-1.39674">
        <ele>14.9</ele>
        <time>2022-01-29T15:19:49Z</time>
      </trkpt>
      <trkpt lat="49.39706" lon="-1.39681">
        <ele>14.7</ele>
        <time>2022-01-29T15:19:53Z</time>
      </trkpt>
      <trkpt lat="49.39704" lon="-1.39688">
        <ele>14.5</ele>
        <time>2022-01-29T15:19:56Z</time>
      </trkpt>
      <trkpt lat="49.39703" lon="-1.39695">
        <ele>14.5</ele>
        <time>2022-01-29T15:20:00Z</time>
      </trkpt>
      <trkpt lat="49.397" lon="-1.397">
        <ele>14.6</ele>
        <time>2022-01-29T15:20:03Z</time>
      </trkpt>
      <trkpt lat="49.39697" lon="-1.39708">
        <ele>14.8</ele>
        <time>2022-01-29T15:20:07Z</time>
      </trkpt>
      <trkpt lat="49.39695" lon="-1.39715">
        <ele>14.9</ele>
        <time>2022-01-29T15:20:10Z</time>
      </trkpt>
      <trkpt lat="49.39694" lon="-1.39723">
        <ele>15.1</ele>
        <time>2022-01-29T15:20:14Z</time>
      </trkpt>
      <trkpt lat="49.39691" lon="-1.3973">
        <ele>15.2</ele>
        <time>2022-01-29T15:20:17Z</time>
      </trkpt>
      <trkpt lat="49.39689" lon="-1.39736">
        <ele>15.5</ele>
        <time>2022-01-29T15:20:21Z</time>
      </trkpt>
      <trkpt lat="49.39686" lon="-1.39743">
        <ele>15.6</ele>
        <time>2022-01-29T15:20:24Z</time>
      </trkpt>
      <trkpt lat="49.39684" lon="-1.3975">
        <ele>15.9</ele>
        <time>2022-01-29T15:20:27Z</time>
      </trkpt>
      <trkpt lat="49.39682" lon="-1.39758">
        <ele>15.6</ele>
        <time>2022-01-29T15:20:32Z</time>
      </trkpt>
      <trkpt lat="49.3968" lon="-1.39766">
        <ele>15.4</ele>
        <time>2022-01-29T15:20:36Z</time>
      </trkpt>
      <trkpt lat="49.39679" lon="-1.39774">
        <ele>15.2</ele>
        <time>2022-01-29T15:20:40Z</time>
      </trkpt>
      <trkpt lat="49.39677" lon="-1.39781">
        <ele>15.3</ele>
        <time>2022-01-29T15:20:43Z</time>
      </trkpt>
      <trkpt lat="49.39676" lon="-1.39787">
        <ele>15.3</ele>
        <time>2022-01-29T15:20:46Z</time>
      </trkpt>
      <trkpt lat="49.39673" lon="-1.39794">
        <ele>15.5</ele>
        <time>2022-01-29T15:20:50Z</time>
      </trkpt>
      <trkpt lat="49.39671" lon="-1.39801">
        <ele>15.8</ele>
        <time>2022-01-29T15:20:54Z</time>
      </trkpt>
      <trkpt lat="49.3967" lon="-1.39807">
        <ele>16.6</ele>
        <time>2022-01-29T15:20:59Z</time>
      </trkpt>
      <trkpt lat="49.39668" lon="-1.39814">
        <ele>16.6</ele>
        <time>2022-01-29T15:21:03Z</time>
      </trkpt>
      <trkpt lat="49.39667" lon="-1.39821">
        <ele>16.5</ele>
        <time>2022-01-29T15:21:06Z</time>
      </trkpt>
      <trkpt lat="49.39665" lon="-1.39829">
        <ele>16.4</ele>
        <time>2022-01-29T15:21:10Z</time>
      </trkpt>
      <trkpt lat="49.39663" lon="-1.39837">
        <ele>16.1</ele>
        <time>2022-01-29T15:21:14Z</time>
      </trkpt>
      <trkpt lat="49.3966" lon="-1.39844">
        <ele>15.7</ele>
        <time>2022-01-29T15:21:19Z</time>
      </trkpt>
      <trkpt lat="49.39658" lon="-1.39851">
        <ele>15.5</ele>
        <time>2022-01-29T15:21:23Z</time>
      </trkpt>
      <trkpt lat="49.39655" lon="-1.39858">
        <ele>15.2</ele>
        <time>2022-01-29T15:21:26Z</time>
      </trkpt>
      <trkpt lat="49.39652" lon="-1.39865">
        <ele>14.8</ele>
        <time>2022-01-29T15:21:30Z</time>
      </trkpt>
      <trkpt lat="49.3965" lon="-1.39873">
        <ele>14.5</ele>
        <time>2022-01-29T15:21:34Z</time>
      </trkpt>
      <trkpt lat="49.39649" lon="-1.39881">
        <ele>14.4</ele>
        <time>2022-01-29T15:21:37Z</time>
      </trkpt>
      <trkpt lat="49.39646" lon="-1.39888">
        <ele>14.3</ele>
        <time>2022-01-29T15:21:41Z</time>
      </trkpt>
      <trkpt lat="49.39644" lon="-1.39895">
        <ele>14.1</ele>
        <time>2022-01-29T15:21:45Z</time>
      </trkpt>
      <trkpt lat="49.39641" lon="-1.39903">
        <ele>14</ele>
        <time>2022-01-29T15:21:50Z</time>
      </trkpt>
      <trkpt lat="49.39639" lon="-1.3991">
        <ele>14.2</ele>
        <time>2022-01-29T15:21:53Z</time>
      </trkpt>
      <trkpt lat="49.39637" lon="-1.39916">
        <ele>14.4</ele>
        <time>2022-01-29T15:21:56Z</time>
      </trkpt>
      <trkpt lat="49.39635" lon="-1.39923">
        <ele>14.7</ele>
        <time>2022-01-29T15:22:00Z</time>
      </trkpt>
      <trkpt lat="49.39632" lon="-1.39931">
        <ele>14.7</ele>
        <time>2022-01-29T15:22:04Z</time>
      </trkpt>
      <trkpt lat="49.3963" lon="-1.39938">
        <ele>14.5</ele>
        <time>2022-01-29T15:22:08Z</time>
      </trkpt>
      <trkpt lat="49.39628" lon="-1.39945">
        <ele>14.4</ele>
        <time>2022-01-29T15:22:11Z</time>
      </trkpt>
      <trkpt lat="49.39626" lon="-1.39951">
        <ele>14.5</ele>
        <time>2022-01-29T15:22:15Z</time>
      </trkpt>
      <trkpt lat="49.39624" lon="-1.39958">
        <ele>14.6</ele>
        <time>2022-01-29T15:22:18Z</time>
      </trkpt>
      <trkpt lat="49.39622" lon="-1.39965">
        <ele>14.8</ele>
        <time>2022-01-29T15:22:21Z</time>
      </trkpt>
      <trkpt lat="49.39618" lon="-1.39972">
        <ele>14.8</ele>
        <time>2022-01-29T15:22:25Z</time>
      </trkpt>
      <trkpt lat="49.39616" lon="-1.39979">
        <ele>14.8</ele>
        <time>2022-01-29T15:22:30Z</time>
      </trkpt>
      <trkpt lat="49.39614" lon="-1.39988">
        <ele>14.8</ele>
        <time>2022-01-29T15:22:34Z</time>
      </trkpt>
      <trkpt lat="49.39612" lon="-1.39995">
        <ele>14.9</ele>
        <time>2022-01-29T15:22:37Z</time>
      </trkpt>
      <trkpt lat="49.39609" lon="-1.40001">
        <ele>14.9</ele>
        <time>2022-01-29T15:22:41Z</time>
      </trkpt>
      <trkpt lat="49.39607" lon="-1.40008">
        <ele>15</ele>
        <time>2022-01-29T15:22:44Z</time>
      </trkpt>
      <trkpt lat="49.39606" lon="-1.40015">
        <ele>14.9</ele>
        <time>2022-01-29T15:22:47Z</time>
      </trkpt>
      <trkpt lat="49.39603" lon="-1.40021">
        <ele>15.2</ele>
        <time>2022-01-29T15:22:51Z</time>
      </trkpt>
      <trkpt lat="49.396" lon="-1.40029">
        <ele>15.6</ele>
        <time>2022-01-29T15:22:55Z</time>
      </trkpt>
      <trkpt lat="49.39599" lon="-1.40036">
        <ele>15.9</ele>
        <time>2022-01-29T15:22:58Z</time>
      </trkpt>
      <trkpt lat="49.39597" lon="-1.40043">
        <ele>15.9</ele>
        <time>2022-01-29T15:23:02Z</time>
      </trkpt>
      <trkpt lat="49.39595" lon="-1.40051">
        <ele>16</ele>
        <time>2022-01-29T15:23:06Z</time>
      </trkpt>
      <trkpt lat="49.39593" lon="-1.40058">
        <ele>16</ele>
        <time>2022-01-29T15:23:11Z</time>
      </trkpt>
      <trkpt lat="49.3959" lon="-1.40065">
        <ele>16</ele>
        <time>2022-01-29T15:23:15Z</time>
      </trkpt>
      <trkpt lat="49.39587" lon="-1.40073">
        <ele>16.4</ele>
        <time>2022-01-29T15:23:19Z</time>
      </trkpt>
      <trkpt lat="49.39585" lon="-1.4008">
        <ele>16.7</ele>
        <time>2022-01-29T15:23:23Z</time>
      </trkpt>
      <trkpt lat="49.39583" lon="-1.40087">
        <ele>17</ele>
        <time>2022-01-29T15:23:26Z</time>
      </trkpt>
      <trkpt lat="49.39581" lon="-1.40095">
        <ele>17</ele>
        <time>2022-01-29T15:23:30Z</time>
      </trkpt>
      <trkpt lat="49.3958" lon="-1.40101">
        <ele>17.1</ele>
        <time>2022-01-29T15:23:33Z</time>
      </trkpt>
      <trkpt lat="49.39578" lon="-1.40108">
        <ele>17.3</ele>
        <time>2022-01-29T15:23:36Z</time>
      </trkpt>
      <trkpt lat="49.39574" lon="-1.40115">
        <ele>17.4</ele>
        <time>2022-01-29T15:23:41Z</time>
      </trkpt>
      <trkpt lat="49.39572" lon="-1.40121">
        <ele>17.4</ele>
        <time>2022-01-29T15:23:44Z</time>
      </trkpt>
      <trkpt lat="49.3957" lon="-1.40128">
        <ele>17.3</ele>
        <time>2022-01-29T15:23:48Z</time>
      </trkpt>
      <trkpt lat="49.39567" lon="-1.40136">
        <ele>16.8</ele>
        <time>2022-01-29T15:23:52Z</time>
      </trkpt>
      <trkpt lat="49.39565" lon="-1.40144">
        <ele>16.4</ele>
        <time>2022-01-29T15:23:56Z</time>
      </trkpt>
      <trkpt lat="49.39562" lon="-1.40153">
        <ele>16.5</ele>
        <time>2022-01-29T15:24:01Z</time>
      </trkpt>
      <trkpt lat="49.3956" lon="-1.40159">
        <ele>16.5</ele>
        <time>2022-01-29T15:24:04Z</time>
      </trkpt>
      <trkpt lat="49.39558" lon="-1.40165">
        <ele>16.6</ele>
        <time>2022-01-29T15:24:08Z</time>
      </trkpt>
      <trkpt lat="49.39556" lon="-1.40172">
        <ele>16.7</ele>
        <time>2022-01-29T15:24:11Z</time>
      </trkpt>
      <trkpt lat="49.39553" lon="-1.40181">
        <ele>17.4</ele>
        <time>2022-01-29T15:24:15Z</time>
      </trkpt>
      <trkpt lat="49.39551" lon="-1.40189">
        <ele>17.8</ele>
        <time>2022-01-29T15:24:20Z</time>
      </trkpt>
      <trkpt lat="49.39549" lon="-1.40196">
        <ele>17.8</ele>
        <time>2022-01-29T15:24:23Z</time>
      </trkpt>
      <trkpt lat="49.39547" lon="-1.40202">
        <ele>17.7</ele>
        <time>2022-01-29T15:24:26Z</time>
      </trkpt>
      <trkpt lat="49.39545" lon="-1.40209">
        <ele>17.6</ele>
        <time>2022-01-29T15:24:30Z</time>
      </trkpt>
      <trkpt lat="49.39543" lon="-1.40217">
        <ele>17.6</ele>
        <time>2022-01-29T15:24:34Z</time>
      </trkpt>
      <trkpt lat="49.39541" lon="-1.40224">
        <ele>17.5</ele>
        <time>2022-01-29T15:24:38Z</time>
      </trkpt>
      <trkpt lat="49.39539" lon="-1.40231">
        <ele>17.3</ele>
        <time>2022-01-29T15:24:42Z</time>
      </trkpt>
      <trkpt lat="49.39536" lon="-1.40238">
        <ele>17.2</ele>
        <time>2022-01-29T15:24:46Z</time>
      </trkpt>
      <trkpt lat="49.39533" lon="-1.40245">
        <ele>17.4</ele>
        <time>2022-01-29T15:24:49Z</time>
      </trkpt>
      <trkpt lat="49.39531" lon="-1.40252">
        <ele>17.6</ele>
        <time>2022-01-29T15:24:53Z</time>
      </trkpt>
      <trkpt lat="49.39528" lon="-1.40257">
        <ele>17.5</ele>
        <time>2022-01-29T15:24:57Z</time>
      </trkpt>
      <trkpt lat="49.39524" lon="-1.40264">
        <ele>16.6</ele>
        <time>2022-01-29T15:25:02Z</time>
      </trkpt>
      <trkpt lat="49.39519" lon="-1.40263">
        <ele>15.9</ele>
        <time>2022-01-29T15:25:06Z</time>
      </trkpt>
      <trkpt lat="49.39515" lon="-1.4026">
        <ele>16</ele>
        <time>2022-01-29T15:25:11Z</time>
      </trkpt>
      <trkpt lat="49.3951" lon="-1.40256">
        <ele>16.4</ele>
        <time>2022-01-29T15:25:17Z</time>
      </trkpt>
      <trkpt lat="49.39507" lon="-1.4025">
        <ele>16.8</ele>
        <time>2022-01-29T15:25:21Z</time>
      </trkpt>
      <trkpt lat="49.39504" lon="-1.40244">
        <ele>17.1</ele>
        <time>2022-01-29T15:25:26Z</time>
      </trkpt>
      <trkpt lat="49.395" lon="-1.40239">
        <ele>17.2</ele>
        <time>2022-01-29T15:25:30Z</time>
      </trkpt>
      <trkpt lat="49.39496" lon="-1.40234">
        <ele>17.3</ele>
        <time>2022-01-29T15:25:36Z</time>
      </trkpt>
      <trkpt lat="49.39492" lon="-1.40229">
        <ele>17.3</ele>
        <time>2022-01-29T15:25:40Z</time>
      </trkpt>
      <trkpt lat="49.39488" lon="-1.40227">
        <ele>17.6</ele>
        <time>2022-01-29T15:25:49Z</time>
      </trkpt>
      <trkpt lat="49.39484" lon="-1.40223">
        <ele>17.6</ele>
        <time>2022-01-29T15:25:52Z</time>
      </trkpt>
      <trkpt lat="49.3948" lon="-1.40218">
        <ele>17.6</ele>
        <time>2022-01-29T15:25:56Z</time>
      </trkpt>
      <trkpt lat="49.39476" lon="-1.40212">
        <ele>17.6</ele>
        <time>2022-01-29T15:26:00Z</time>
      </trkpt>
      <trkpt lat="49.39472" lon="-1.40207">
        <ele>17.7</ele>
        <time>2022-01-29T15:26:04Z</time>
      </trkpt>
      <trkpt lat="49.39468" lon="-1.40202">
        <ele>17.8</ele>
        <time>2022-01-29T15:26:08Z</time>
      </trkpt>
      <trkpt lat="49.39464" lon="-1.40197">
        <ele>17.7</ele>
        <time>2022-01-29T15:26:13Z</time>
      </trkpt>
      <trkpt lat="49.3946" lon="-1.40194">
        <ele>17.8</ele>
        <time>2022-01-29T15:26:19Z</time>
      </trkpt>
      <trkpt lat="49.39455" lon="-1.40189">
        <ele>17.8</ele>
        <time>2022-01-29T15:26:25Z</time>
      </trkpt>
      <trkpt lat="49.3945" lon="-1.40184">
        <ele>17.7</ele>
        <time>2022-01-29T15:26:29Z</time>
      </trkpt>
      <trkpt lat="49.39446" lon="-1.40181">
        <ele>17.7</ele>
        <time>2022-01-29T15:26:33Z</time>
      </trkpt>
      <trkpt lat="49.39442" lon="-1.40177">
        <ele>17.7</ele>
        <time>2022-01-29T15:26:36Z</time>
      </trkpt>
      <trkpt lat="49.39438" lon="-1.40173">
        <ele>17.8</ele>
        <time>2022-01-29T15:26:39Z</time>
      </trkpt>
      <trkpt lat="49.39433" lon="-1.40168">
        <ele>17.8</ele>
        <time>2022-01-29T15:26:44Z</time>
      </trkpt>
      <trkpt lat="49.39428" lon="-1.40163">
        <ele>17.7</ele>
        <time>2022-01-29T15:26:48Z</time>
      </trkpt>
      <trkpt lat="49.39425" lon="-1.40159">
        <ele>17.3</ele>
        <time>2022-01-29T15:26:51Z</time>
      </trkpt>
      <trkpt lat="49.3942" lon="-1.40153">
        <ele>17</ele>
        <time>2022-01-29T15:26:56Z</time>
      </trkpt>
      <trkpt lat="49.39415" lon="-1.40148">
        <ele>16.9</ele>
        <time>2022-01-29T15:27:00Z</time>
      </trkpt>
      <trkpt lat="49.3941" lon="-1.40144">
        <ele>16.6</ele>
        <time>2022-01-29T15:27:05Z</time>
      </trkpt>
      <trkpt lat="49.39406" lon="-1.40141">
        <ele>16.5</ele>
        <time>2022-01-29T15:27:08Z</time>
      </trkpt>
      <trkpt lat="49.394" lon="-1.40137">
        <ele>16.3</ele>
        <time>2022-01-29T15:27:12Z</time>
      </trkpt>
      <trkpt lat="49.39396" lon="-1.40133">
        <ele>16.3</ele>
        <time>2022-01-29T15:27:16Z</time>
      </trkpt>
      <trkpt lat="49.39392" lon="-1.40129">
        <ele>16.2</ele>
        <time>2022-01-29T15:27:20Z</time>
      </trkpt>
      <trkpt lat="49.39388" lon="-1.40124">
        <ele>15.9</ele>
        <time>2022-01-29T15:27:23Z</time>
      </trkpt>
      <trkpt lat="49.39385" lon="-1.40118">
        <ele>15.7</ele>
        <time>2022-01-29T15:27:27Z</time>
      </trkpt>
      <trkpt lat="49.3938" lon="-1.40113">
        <ele>15.9</ele>
        <time>2022-01-29T15:27:31Z</time>
      </trkpt>
      <trkpt lat="49.39377" lon="-1.40105">
        <ele>16.2</ele>
        <time>2022-01-29T15:27:36Z</time>
      </trkpt>
      <trkpt lat="49.39376" lon="-1.40097">
        <ele>16.2</ele>
        <time>2022-01-29T15:27:41Z</time>
      </trkpt>
      <trkpt lat="49.39372" lon="-1.40093">
        <ele>15.9</ele>
        <time>2022-01-29T15:27:47Z</time>
      </trkpt>
      <trkpt lat="49.39366" lon="-1.4009">
        <ele>15.7</ele>
        <time>2022-01-29T15:28:01Z</time>
      </trkpt>
      <trkpt lat="49.39361" lon="-1.40086">
        <ele>15.6</ele>
        <time>2022-01-29T15:28:04Z</time>
      </trkpt>
      <trkpt lat="49.39356" lon="-1.40083">
        <ele>15.5</ele>
        <time>2022-01-29T15:28:07Z</time>
      </trkpt>
      <trkpt lat="49.39351" lon="-1.4008">
        <ele>15.5</ele>
        <time>2022-01-29T15:28:12Z</time>
      </trkpt>
      <trkpt lat="49.39349" lon="-1.40075">
        <ele>15.2</ele>
        <time>2022-01-29T15:28:17Z</time>
      </trkpt>
      <trkpt lat="49.39344" lon="-1.40074">
        <ele>15</ele>
        <time>2022-01-29T15:28:20Z</time>
      </trkpt>
      <trkpt lat="49.39338" lon="-1.40072">
        <ele>14.8</ele>
        <time>2022-01-29T15:28:25Z</time>
      </trkpt>
      <trkpt lat="49.39333" lon="-1.40072">
        <ele>14.8</ele>
        <time>2022-01-29T15:28:29Z</time>
      </trkpt>
      <trkpt lat="49.39328" lon="-1.40075">
        <ele>14.7</ele>
        <time>2022-01-29T15:28:32Z</time>
      </trkpt>
      <trkpt lat="49.39326" lon="-1.40081">
        <ele>14.8</ele>
        <time>2022-01-29T15:28:35Z</time>
      </trkpt>
      <trkpt lat="49.39325" lon="-1.40089">
        <ele>14.9</ele>
        <time>2022-01-29T15:28:39Z</time>
      </trkpt>
      <trkpt lat="49.39323" lon="-1.40096">
        <ele>14.9</ele>
        <time>2022-01-29T15:28:42Z</time>
      </trkpt>
      <trkpt lat="49.39322" lon="-1.40103">
        <ele>14.7</ele>
        <time>2022-01-29T15:28:45Z</time>
      </trkpt>
      <trkpt lat="49.39322" lon="-1.4011">
        <ele>14.6</ele>
        <time>2022-01-29T15:28:48Z</time>
      </trkpt>
      <trkpt lat="49.3932" lon="-1.40118">
        <ele>14.4</ele>
        <time>2022-01-29T15:28:53Z</time>
      </trkpt>
      <trkpt lat="49.3932" lon="-1.40126">
        <ele>14.4</ele>
        <time>2022-01-29T15:28:57Z</time>
      </trkpt>
      <trkpt lat="49.39319" lon="-1.40134">
        <ele>14.2</ele>
        <time>2022-01-29T15:29:31Z</time>
      </trkpt>
      <trkpt lat="49.39317" lon="-1.40141">
        <ele>14.2</ele>
        <time>2022-01-29T15:29:35Z</time>
      </trkpt>
      <trkpt lat="49.39314" lon="-1.40149">
        <ele>14.2</ele>
        <time>2022-01-29T15:29:38Z</time>
      </trkpt>
      <trkpt lat="49.39312" lon="-1.40155">
        <ele>14.2</ele>
        <time>2022-01-29T15:29:41Z</time>
      </trkpt>
      <trkpt lat="49.3931" lon="-1.40165">
        <ele>13.9</ele>
        <time>2022-01-29T15:29:46Z</time>
      </trkpt>
      <trkpt lat="49.39307" lon="-1.40171">
        <ele>13.6</ele>
        <time>2022-01-29T15:29:49Z</time>
      </trkpt>
      <trkpt lat="49.39304" lon="-1.40178">
        <ele>13.6</ele>
        <time>2022-01-29T15:29:53Z</time>
      </trkpt>
      <trkpt lat="49.39303" lon="-1.40185">
        <ele>16.1</ele>
        <time>2022-01-29T15:30:47Z</time>
      </trkpt>
      <trkpt lat="49.393" lon="-1.40191">
        <ele>16</ele>
        <time>2022-01-29T15:30:51Z</time>
      </trkpt>
      <trkpt lat="49.39297" lon="-1.40198">
        <ele>16</ele>
        <time>2022-01-29T15:30:55Z</time>
      </trkpt>
      <trkpt lat="49.39295" lon="-1.40204">
        <ele>16</ele>
        <time>2022-01-29T15:30:59Z</time>
      </trkpt>
      <trkpt lat="49.39293" lon="-1.40211">
        <ele>16.2</ele>
        <time>2022-01-29T15:31:02Z</time>
      </trkpt>
      <trkpt lat="49.3929" lon="-1.40217">
        <ele>16.2</ele>
        <time>2022-01-29T15:31:05Z</time>
      </trkpt>
      <trkpt lat="49.39288" lon="-1.40225">
        <ele>16.4</ele>
        <time>2022-01-29T15:31:09Z</time>
      </trkpt>
      <trkpt lat="49.39286" lon="-1.40231">
        <ele>16.5</ele>
        <time>2022-01-29T15:31:13Z</time>
      </trkpt>
      <trkpt lat="49.39282" lon="-1.40238">
        <ele>16.3</ele>
        <time>2022-01-29T15:31:18Z</time>
      </trkpt>
      <trkpt lat="49.39278" lon="-1.40245">
        <ele>15.7</ele>
        <time>2022-01-29T15:31:22Z</time>
      </trkpt>
      <trkpt lat="49.3928" lon="-1.40238">
        <ele>15.4</ele>
        <time>2022-01-29T15:31:32Z</time>
      </trkpt>
      <trkpt lat="49.39284" lon="-1.40234">
        <ele>15.3</ele>
        <time>2022-01-29T15:31:35Z</time>
      </trkpt>
      <trkpt lat="49.39289" lon="-1.40232">
        <ele>15.2</ele>
        <time>2022-01-29T15:31:39Z</time>
      </trkpt>
      <trkpt lat="49.39294" lon="-1.40232">
        <ele>14.9</ele>
        <time>2022-01-29T15:32:06Z</time>
      </trkpt>
      <trkpt lat="49.39297" lon="-1.40237">
        <ele>15.7</ele>
        <time>2022-01-29T15:32:28Z</time>
      </trkpt>
      <trkpt lat="49.39294" lon="-1.40232">
        <ele>19.1</ele>
        <time>2022-01-29T15:33:33Z</time>
      </trkpt>
      <trkpt lat="49.39289" lon="-1.40232">
        <ele>18.9</ele>
        <time>2022-01-29T15:33:40Z</time>
      </trkpt>
      <trkpt lat="49.39286" lon="-1.40237">
        <ele>17.8</ele>
        <time>2022-01-29T15:33:46Z</time>
      </trkpt>
      <trkpt lat="49.39284" lon="-1.40245">
        <ele>17.8</ele>
        <time>2022-01-29T15:33:51Z</time>
      </trkpt>
      <trkpt lat="49.39281" lon="-1.4025">
        <ele>18</ele>
        <time>2022-01-29T15:33:54Z</time>
      </trkpt>
      <trkpt lat="49.39285" lon="-1.40256">
        <ele>17.7</ele>
        <time>2022-01-29T15:34:02Z</time>
      </trkpt>
      <trkpt lat="49.3929" lon="-1.40259">
        <ele>17.6</ele>
        <time>2022-01-29T15:34:06Z</time>
      </trkpt>
      <trkpt lat="49.39295" lon="-1.40262">
        <ele>17.6</ele>
        <time>2022-01-29T15:34:09Z</time>
      </trkpt>
      <trkpt lat="49.393" lon="-1.40263">
        <ele>17.7</ele>
        <time>2022-01-29T15:34:12Z</time>
      </trkpt>
      <trkpt lat="49.39303" lon="-1.40269">
        <ele>20.3</ele>
        <time>2022-01-29T15:34:55Z</time>
      </trkpt>
      <trkpt lat="49.39307" lon="-1.40273">
        <ele>20.4</ele>
        <time>2022-01-29T15:35:03Z</time>
      </trkpt>
      <trkpt lat="49.39312" lon="-1.40273">
        <ele>21.6</ele>
        <time>2022-01-29T15:35:09Z</time>
      </trkpt>
      <trkpt lat="49.39317" lon="-1.40275">
        <ele>22.2</ele>
        <time>2022-01-29T15:35:15Z</time>
      </trkpt>
      <trkpt lat="49.3932" lon="-1.40269">
        <ele>18.1</ele>
        <time>2022-01-29T15:35:48Z</time>
      </trkpt>
      <trkpt lat="49.39318" lon="-1.40262">
        <ele>16.9</ele>
        <time>2022-01-29T15:36:12Z</time>
      </trkpt>
      <trkpt lat="49.39313" lon="-1.40261">
        <ele>15</ele>
        <time>2022-01-29T15:39:06Z</time>
      </trkpt>
      <trkpt lat="49.39308" lon="-1.4026">
        <ele>10.8</ele>
        <time>2022-01-29T15:39:45Z</time>
      </trkpt>
      <trkpt lat="49.39304" lon="-1.40255">
        <ele>11</ele>
        <time>2022-01-29T15:39:56Z</time>
      </trkpt>
      <trkpt lat="49.393" lon="-1.40259">
        <ele>11</ele>
        <time>2022-01-29T15:40:02Z</time>
      </trkpt>
      <trkpt lat="49.39295" lon="-1.40257">
        <ele>15</ele>
        <time>2022-01-29T15:40:14Z</time>
      </trkpt>
      <trkpt lat="49.39291" lon="-1.40259">
        <ele>15.6</ele>
        <time>2022-01-29T15:40:24Z</time>
      </trkpt>
      <trkpt lat="49.39286" lon="-1.40253">
        <ele>16.5</ele>
        <time>2022-01-29T15:40:28Z</time>
      </trkpt>
      <trkpt lat="49.3928" lon="-1.40248">
        <ele>17.8</ele>
        <time>2022-01-29T15:40:32Z</time>
      </trkpt>
      <trkpt lat="49.39276" lon="-1.40245">
        <ele>21</ele>
        <time>2022-01-29T15:40:41Z</time>
      </trkpt>
      <trkpt lat="49.39275" lon="-1.40255">
        <ele>19.7</ele>
        <time>2022-01-29T15:40:50Z</time>
      </trkpt>
      <trkpt lat="49.39272" lon="-1.40261">
        <ele>19.6</ele>
        <time>2022-01-29T15:40:53Z</time>
      </trkpt>
      <trkpt lat="49.39268" lon="-1.40265">
        <ele>19.6</ele>
        <time>2022-01-29T15:40:56Z</time>
      </trkpt>
      <trkpt lat="49.39265" lon="-1.4027">
        <ele>19.5</ele>
        <time>2022-01-29T15:40:59Z</time>
      </trkpt>
      <trkpt lat="49.39262" lon="-1.40278">
        <ele>19</ele>
        <time>2022-01-29T15:41:03Z</time>
      </trkpt>
      <trkpt lat="49.39259" lon="-1.40284">
        <ele>18.5</ele>
        <time>2022-01-29T15:41:07Z</time>
      </trkpt>
      <trkpt lat="49.39256" lon="-1.40293">
        <ele>18.7</ele>
        <time>2022-01-29T15:41:11Z</time>
      </trkpt>
      <trkpt lat="49.39254" lon="-1.40299">
        <ele>19</ele>
        <time>2022-01-29T15:41:14Z</time>
      </trkpt>
      <trkpt lat="49.39251" lon="-1.40306">
        <ele>19.4</ele>
        <time>2022-01-29T15:41:18Z</time>
      </trkpt>
      <trkpt lat="49.39249" lon="-1.40314">
        <ele>19.5</ele>
        <time>2022-01-29T15:41:22Z</time>
      </trkpt>
      <trkpt lat="49.39246" lon="-1.4032">
        <ele>19.7</ele>
        <time>2022-01-29T15:41:26Z</time>
      </trkpt>
      <trkpt lat="49.39244" lon="-1.40329">
        <ele>20.2</ele>
        <time>2022-01-29T15:41:30Z</time>
      </trkpt>
      <trkpt lat="49.39243" lon="-1.40337">
        <ele>20.6</ele>
        <time>2022-01-29T15:41:34Z</time>
      </trkpt>
      <trkpt lat="49.39242" lon="-1.40344">
        <ele>21.1</ele>
        <time>2022-01-29T15:41:37Z</time>
      </trkpt>
      <trkpt lat="49.3924" lon="-1.40351">
        <ele>21.1</ele>
        <time>2022-01-29T15:41:40Z</time>
      </trkpt>
      <trkpt lat="49.39238" lon="-1.40359">
        <ele>21.2</ele>
        <time>2022-01-29T15:41:44Z</time>
      </trkpt>
      <trkpt lat="49.39237" lon="-1.40366">
        <ele>21.1</ele>
        <time>2022-01-29T15:41:47Z</time>
      </trkpt>
      <trkpt lat="49.39235" lon="-1.40373">
        <ele>21.2</ele>
        <time>2022-01-29T15:41:51Z</time>
      </trkpt>
      <trkpt lat="49.39234" lon="-1.4038">
        <ele>21.5</ele>
        <time>2022-01-29T15:41:54Z</time>
      </trkpt>
      <trkpt lat="49.39233" lon="-1.40387">
        <ele>22.1</ele>
        <time>2022-01-29T15:41:58Z</time>
      </trkpt>
      <trkpt lat="49.3923" lon="-1.40395">
        <ele>23</ele>
        <time>2022-01-29T15:42:03Z</time>
      </trkpt>
      <trkpt lat="49.39228" lon="-1.40403">
        <ele>23.5</ele>
        <time>2022-01-29T15:42:10Z</time>
      </trkpt>
      <trkpt lat="49.39226" lon="-1.40412">
        <ele>23.3</ele>
        <time>2022-01-29T15:42:14Z</time>
      </trkpt>
      <trkpt lat="49.39225" lon="-1.40419">
        <ele>23.2</ele>
        <time>2022-01-29T15:42:18Z</time>
      </trkpt>
      <trkpt lat="49.39222" lon="-1.40425">
        <ele>23.1</ele>
        <time>2022-01-29T15:42:21Z</time>
      </trkpt>
      <trkpt lat="49.3922" lon="-1.40432">
        <ele>23</ele>
        <time>2022-01-29T15:42:24Z</time>
      </trkpt>
      <trkpt lat="49.39218" lon="-1.40438">
        <ele>22.8</ele>
        <time>2022-01-29T15:42:28Z</time>
      </trkpt>
      <trkpt lat="49.39215" lon="-1.40444">
        <ele>22.5</ele>
        <time>2022-01-29T15:42:31Z</time>
      </trkpt>
      <trkpt lat="49.39212" lon="-1.4045">
        <ele>22.1</ele>
        <time>2022-01-29T15:42:34Z</time>
      </trkpt>
      <trkpt lat="49.39209" lon="-1.40459">
        <ele>22.1</ele>
        <time>2022-01-29T15:42:38Z</time>
      </trkpt>
      <trkpt lat="49.39206" lon="-1.40465">
        <ele>22.2</ele>
        <time>2022-01-29T15:42:41Z</time>
      </trkpt>
      <trkpt lat="49.39193" lon="-1.40499">
        <ele>24.6</ele>
        <time>2022-01-29T15:42:56Z</time>
      </trkpt>
      <trkpt lat="49.39192" lon="-1.40507">
        <ele>24.7</ele>
        <time>2022-01-29T15:42:59Z</time>
      </trkpt>
      <trkpt lat="49.39191" lon="-1.40514">
        <ele>24.7</ele>
        <time>2022-01-29T15:43:02Z</time>
      </trkpt>
      <trkpt lat="49.39189" lon="-1.4052">
        <ele>24.6</ele>
        <time>2022-01-29T15:43:06Z</time>
      </trkpt>
      <trkpt lat="49.39188" lon="-1.40527">
        <ele>24.4</ele>
        <time>2022-01-29T15:43:09Z</time>
      </trkpt>
      <trkpt lat="49.39187" lon="-1.40534">
        <ele>24.4</ele>
        <time>2022-01-29T15:43:12Z</time>
      </trkpt>
      <trkpt lat="49.39187" lon="-1.40543">
        <ele>24.6</ele>
        <time>2022-01-29T15:43:16Z</time>
      </trkpt>
      <trkpt lat="49.39187" lon="-1.40551">
        <ele>25</ele>
        <time>2022-01-29T15:43:19Z</time>
      </trkpt>
      <trkpt lat="49.39188" lon="-1.40558">
        <ele>25.2</ele>
        <time>2022-01-29T15:43:22Z</time>
      </trkpt>
      <trkpt lat="49.39189" lon="-1.40565">
        <ele>25.3</ele>
        <time>2022-01-29T15:43:26Z</time>
      </trkpt>
      <trkpt lat="49.39188" lon="-1.40572">
        <ele>23.1</ele>
        <time>2022-01-29T15:44:09Z</time>
      </trkpt>
      <trkpt lat="49.39184" lon="-1.40576">
        <ele>22.7</ele>
        <time>2022-01-29T15:44:12Z</time>
      </trkpt>
      <trkpt lat="49.39181" lon="-1.40581">
        <ele>22.4</ele>
        <time>2022-01-29T15:44:15Z</time>
      </trkpt>
      <trkpt lat="49.39176" lon="-1.40586">
        <ele>21.9</ele>
        <time>2022-01-29T15:44:18Z</time>
      </trkpt>
      <trkpt lat="49.39172" lon="-1.40593">
        <ele>21.3</ele>
        <time>2022-01-29T15:44:22Z</time>
      </trkpt>
      <trkpt lat="49.39168" lon="-1.406">
        <ele>20.7</ele>
        <time>2022-01-29T15:44:26Z</time>
      </trkpt>
      <trkpt lat="49.39165" lon="-1.40606">
        <ele>20.6</ele>
        <time>2022-01-29T15:44:29Z</time>
      </trkpt>
      <trkpt lat="49.39162" lon="-1.40612">
        <ele>20.5</ele>
        <time>2022-01-29T15:44:32Z</time>
      </trkpt>
      <trkpt lat="49.39158" lon="-1.40617">
        <ele>20.6</ele>
        <time>2022-01-29T15:44:35Z</time>
      </trkpt>
      <trkpt lat="49.39154" lon="-1.40622">
        <ele>20.8</ele>
        <time>2022-01-29T15:44:39Z</time>
      </trkpt>
      <trkpt lat="49.39152" lon="-1.40628">
        <ele>21.3</ele>
        <time>2022-01-29T15:44:42Z</time>
      </trkpt>
      <trkpt lat="49.39148" lon="-1.40634">
        <ele>21.8</ele>
        <time>2022-01-29T15:44:46Z</time>
      </trkpt>
      <trkpt lat="49.39145" lon="-1.40639">
        <ele>21.8</ele>
        <time>2022-01-29T15:44:50Z</time>
      </trkpt>
      <trkpt lat="49.3914" lon="-1.40644">
        <ele>21.5</ele>
        <time>2022-01-29T15:44:54Z</time>
      </trkpt>
      <trkpt lat="49.39136" lon="-1.40647">
        <ele>21.3</ele>
        <time>2022-01-29T15:44:58Z</time>
      </trkpt>
      <trkpt lat="49.3913" lon="-1.40651">
        <ele>21</ele>
        <time>2022-01-29T15:45:03Z</time>
      </trkpt>
      <trkpt lat="49.39125" lon="-1.40653">
        <ele>20.5</ele>
        <time>2022-01-29T15:45:07Z</time>
      </trkpt>
      <trkpt lat="49.39119" lon="-1.40656">
        <ele>20.2</ele>
        <time>2022-01-29T15:45:11Z</time>
      </trkpt>
      <trkpt lat="49.39115" lon="-1.40659">
        <ele>20.2</ele>
        <time>2022-01-29T15:45:14Z</time>
      </trkpt>
      <trkpt lat="49.3911" lon="-1.40664">
        <ele>20.6</ele>
        <time>2022-01-29T15:45:18Z</time>
      </trkpt>
      <trkpt lat="49.39106" lon="-1.40669">
        <ele>21</ele>
        <time>2022-01-29T15:45:21Z</time>
      </trkpt>
      <trkpt lat="49.39098" lon="-1.40682">
        <ele>22.3</ele>
        <time>2022-01-29T15:45:28Z</time>
      </trkpt>
      <trkpt lat="49.39096" lon="-1.4069">
        <ele>23.3</ele>
        <time>2022-01-29T15:45:32Z</time>
      </trkpt>
      <trkpt lat="49.39092" lon="-1.40695">
        <ele>23.9</ele>
        <time>2022-01-29T15:45:36Z</time>
      </trkpt>
      <trkpt lat="49.39088" lon="-1.40702">
        <ele>24</ele>
        <time>2022-01-29T15:45:40Z</time>
      </trkpt>
      <trkpt lat="49.39085" lon="-1.40707">
        <ele>24.1</ele>
        <time>2022-01-29T15:45:43Z</time>
      </trkpt>
      <trkpt lat="49.39083" lon="-1.40714">
        <ele>24.1</ele>
        <time>2022-01-29T15:45:47Z</time>
      </trkpt>
      <trkpt lat="49.39079" lon="-1.4072">
        <ele>24.3</ele>
        <time>2022-01-29T15:45:51Z</time>
      </trkpt>
      <trkpt lat="49.39075" lon="-1.40726">
        <ele>24.5</ele>
        <time>2022-01-29T15:45:55Z</time>
      </trkpt>
      <trkpt lat="49.39072" lon="-1.40733">
        <ele>24.4</ele>
        <time>2022-01-29T15:45:58Z</time>
      </trkpt>
      <trkpt lat="49.3907" lon="-1.40739">
        <ele>24.3</ele>
        <time>2022-01-29T15:46:01Z</time>
      </trkpt>
      <trkpt lat="49.39067" lon="-1.40745">
        <ele>24.5</ele>
        <time>2022-01-29T15:46:05Z</time>
      </trkpt>
      <trkpt lat="49.39064" lon="-1.4075">
        <ele>24.8</ele>
        <time>2022-01-29T15:46:08Z</time>
      </trkpt>
      <trkpt lat="49.39059" lon="-1.40754">
        <ele>25</ele>
        <time>2022-01-29T15:46:12Z</time>
      </trkpt>
      <trkpt lat="49.39055" lon="-1.40758">
        <ele>24.9</ele>
        <time>2022-01-29T15:46:16Z</time>
      </trkpt>
      <trkpt lat="49.39051" lon="-1.40762">
        <ele>24.5</ele>
        <time>2022-01-29T15:46:20Z</time>
      </trkpt>
      <trkpt lat="49.39047" lon="-1.40766">
        <ele>24.3</ele>
        <time>2022-01-29T15:46:22Z</time>
      </trkpt>
      <trkpt lat="49.39041" lon="-1.40769">
        <ele>24.2</ele>
        <time>2022-01-29T15:46:26Z</time>
      </trkpt>
      <trkpt lat="49.39036" lon="-1.40773">
        <ele>24.9</ele>
        <time>2022-01-29T15:46:34Z</time>
      </trkpt>
      <trkpt lat="49.39027" lon="-1.40792">
        <ele>24.9</ele>
        <time>2022-01-29T15:46:42Z</time>
      </trkpt>
      <trkpt lat="49.39026" lon="-1.408">
        <ele>24.8</ele>
        <time>2022-01-29T15:46:46Z</time>
      </trkpt>
      <trkpt lat="49.39025" lon="-1.40807">
        <ele>24.6</ele>
        <time>2022-01-29T15:46:49Z</time>
      </trkpt>
      <trkpt lat="49.39024" lon="-1.40814">
        <ele>24.1</ele>
        <time>2022-01-29T15:46:53Z</time>
      </trkpt>
      <trkpt lat="49.39022" lon="-1.40821">
        <ele>23.8</ele>
        <time>2022-01-29T15:46:56Z</time>
      </trkpt>
      <trkpt lat="49.39019" lon="-1.40829">
        <ele>23.7</ele>
        <time>2022-01-29T15:47:00Z</time>
      </trkpt>
      <trkpt lat="49.39016" lon="-1.4084">
        <ele>23.4</ele>
        <time>2022-01-29T15:47:06Z</time>
      </trkpt>
      <trkpt lat="49.39012" lon="-1.40848">
        <ele>22.9</ele>
        <time>2022-01-29T15:47:11Z</time>
      </trkpt>
      <trkpt lat="49.39007" lon="-1.40844">
        <ele>22.2</ele>
        <time>2022-01-29T15:47:15Z</time>
      </trkpt>
      <trkpt lat="49.39003" lon="-1.40849">
        <ele>21.4</ele>
        <time>2022-01-29T15:47:19Z</time>
      </trkpt>
      <trkpt lat="49.38999" lon="-1.40854">
        <ele>21.3</ele>
        <time>2022-01-29T15:47:24Z</time>
      </trkpt>
      <trkpt lat="49.38996" lon="-1.40862">
        <ele>21.4</ele>
        <time>2022-01-29T15:47:28Z</time>
      </trkpt>
      <trkpt lat="49.38994" lon="-1.40871">
        <ele>21.6</ele>
        <time>2022-01-29T15:47:32Z</time>
      </trkpt>
      <trkpt lat="49.38995" lon="-1.40881">
        <ele>21.7</ele>
        <time>2022-01-29T15:47:36Z</time>
      </trkpt>
      <trkpt lat="49.38995" lon="-1.40888">
        <ele>21.8</ele>
        <time>2022-01-29T15:47:38Z</time>
      </trkpt>
      <trkpt lat="49.38994" lon="-1.40897">
        <ele>21.9</ele>
        <time>2022-01-29T15:47:42Z</time>
      </trkpt>
      <trkpt lat="49.38992" lon="-1.40903">
        <ele>22.1</ele>
        <time>2022-01-29T15:47:45Z</time>
      </trkpt>
      <trkpt lat="49.38989" lon="-1.40909">
        <ele>22.3</ele>
        <time>2022-01-29T15:47:48Z</time>
      </trkpt>
      <trkpt lat="49.38985" lon="-1.40915">
        <ele>22.8</ele>
        <time>2022-01-29T15:48:06Z</time>
      </trkpt>
      <trkpt lat="49.38982" lon="-1.40921">
        <ele>22.7</ele>
        <time>2022-01-29T15:48:10Z</time>
      </trkpt>
      <trkpt lat="49.38978" lon="-1.40926">
        <ele>22.6</ele>
        <time>2022-01-29T15:48:13Z</time>
      </trkpt>
      <trkpt lat="49.38974" lon="-1.40936">
        <ele>22.6</ele>
        <time>2022-01-29T15:48:19Z</time>
      </trkpt>
      <trkpt lat="49.3897" lon="-1.4094">
        <ele>22.4</ele>
        <time>2022-01-29T15:48:23Z</time>
      </trkpt>
      <trkpt lat="49.38966" lon="-1.40947">
        <ele>22.1</ele>
        <time>2022-01-29T15:48:28Z</time>
      </trkpt>
      <trkpt lat="49.38963" lon="-1.40955">
        <ele>21.8</ele>
        <time>2022-01-29T15:48:32Z</time>
      </trkpt>
      <trkpt lat="49.38961" lon="-1.40963">
        <ele>21.5</ele>
        <time>2022-01-29T15:48:35Z</time>
      </trkpt>
      <trkpt lat="49.3896" lon="-1.4097">
        <ele>21.2</ele>
        <time>2022-01-29T15:48:38Z</time>
      </trkpt>
      <trkpt lat="49.38958" lon="-1.40977">
        <ele>20.7</ele>
        <time>2022-01-29T15:48:41Z</time>
      </trkpt>
      <trkpt lat="49.38954" lon="-1.40983">
        <ele>20.4</ele>
        <time>2022-01-29T15:48:45Z</time>
      </trkpt>
      <trkpt lat="49.38948" lon="-1.40994">
        <ele>20.6</ele>
        <time>2022-01-29T15:48:52Z</time>
      </trkpt>
      <trkpt lat="49.38945" lon="-1.41">
        <ele>21.3</ele>
        <time>2022-01-29T15:48:55Z</time>
      </trkpt>
      <trkpt lat="49.38943" lon="-1.41006">
        <ele>22.2</ele>
        <time>2022-01-29T15:48:59Z</time>
      </trkpt>
      <trkpt lat="49.38939" lon="-1.41012">
        <ele>22.5</ele>
        <time>2022-01-29T15:49:04Z</time>
      </trkpt>
      <trkpt lat="49.38936" lon="-1.41019">
        <ele>22.3</ele>
        <time>2022-01-29T15:49:09Z</time>
      </trkpt>
      <trkpt lat="49.38932" lon="-1.41025">
        <ele>22.2</ele>
        <time>2022-01-29T15:49:13Z</time>
      </trkpt>
      <trkpt lat="49.3893" lon="-1.41032">
        <ele>22.1</ele>
        <time>2022-01-29T15:49:18Z</time>
      </trkpt>
      <trkpt lat="49.38926" lon="-1.41038">
        <ele>21.9</ele>
        <time>2022-01-29T15:49:23Z</time>
      </trkpt>
      <trkpt lat="49.38922" lon="-1.41043">
        <ele>21.4</ele>
        <time>2022-01-29T15:49:26Z</time>
      </trkpt>
      <trkpt lat="49.38918" lon="-1.41048">
        <ele>21.3</ele>
        <time>2022-01-29T15:49:30Z</time>
      </trkpt>
      <trkpt lat="49.38914" lon="-1.41053">
        <ele>21.1</ele>
        <time>2022-01-29T15:49:33Z</time>
      </trkpt>
      <trkpt lat="49.38911" lon="-1.41059">
        <ele>21.3</ele>
        <time>2022-01-29T15:49:37Z</time>
      </trkpt>
      <trkpt lat="49.38907" lon="-1.41065">
        <ele>21.3</ele>
        <time>2022-01-29T15:49:41Z</time>
      </trkpt>
      <trkpt lat="49.38904" lon="-1.41071">
        <ele>21.8</ele>
        <time>2022-01-29T15:49:45Z</time>
      </trkpt>
      <trkpt lat="49.38902" lon="-1.41077">
        <ele>22.5</ele>
        <time>2022-01-29T15:49:49Z</time>
      </trkpt>
      <trkpt lat="49.389" lon="-1.41085">
        <ele>24.6</ele>
        <time>2022-01-29T15:50:17Z</time>
      </trkpt>
      <trkpt lat="49.38897" lon="-1.41093">
        <ele>24.5</ele>
        <time>2022-01-29T15:50:21Z</time>
      </trkpt>
      <trkpt lat="49.38894" lon="-1.41099">
        <ele>24.2</ele>
        <time>2022-01-29T15:50:24Z</time>
      </trkpt>
      <trkpt lat="49.3889" lon="-1.41105">
        <ele>23.9</ele>
        <time>2022-01-29T15:50:28Z</time>
      </trkpt>
      <trkpt lat="49.38886" lon="-1.41112">
        <ele>23.7</ele>
        <time>2022-01-29T15:50:32Z</time>
      </trkpt>
      <trkpt lat="49.38883" lon="-1.41117">
        <ele>23.4</ele>
        <time>2022-01-29T15:50:37Z</time>
      </trkpt>
      <trkpt lat="49.38881" lon="-1.41123">
        <ele>23.4</ele>
        <time>2022-01-29T15:50:46Z</time>
      </trkpt>
      <trkpt lat="49.38879" lon="-1.4113">
        <ele>23.5</ele>
        <time>2022-01-29T15:50:52Z</time>
      </trkpt>
      <trkpt lat="49.38877" lon="-1.41137">
        <ele>23.4</ele>
        <time>2022-01-29T15:50:57Z</time>
      </trkpt>
      <trkpt lat="49.38876" lon="-1.41144">
        <ele>23.3</ele>
        <time>2022-01-29T15:51:12Z</time>
      </trkpt>
      <trkpt lat="49.38872" lon="-1.41152">
        <ele>23.1</ele>
        <time>2022-01-29T15:51:18Z</time>
      </trkpt>
      <trkpt lat="49.38869" lon="-1.4116">
        <ele>22.9</ele>
        <time>2022-01-29T15:51:24Z</time>
      </trkpt>
      <trkpt lat="49.38867" lon="-1.41166">
        <ele>22.6</ele>
        <time>2022-01-29T15:51:56Z</time>
      </trkpt>
      <trkpt lat="49.38864" lon="-1.41172">
        <ele>22.1</ele>
        <time>2022-01-29T15:52:01Z</time>
      </trkpt>
      <trkpt lat="49.38864" lon="-1.4118">
        <ele>22.6</ele>
        <time>2022-01-29T15:52:10Z</time>
      </trkpt>
      <trkpt lat="49.38862" lon="-1.41186">
        <ele>23</ele>
        <time>2022-01-29T15:52:16Z</time>
      </trkpt>
      <trkpt lat="49.38861" lon="-1.41194">
        <ele>23.8</ele>
        <time>2022-01-29T15:52:35Z</time>
      </trkpt>
      <trkpt lat="49.38859" lon="-1.41201">
        <ele>23.4</ele>
        <time>2022-01-29T15:52:51Z</time>
      </trkpt>
      <trkpt lat="49.38857" lon="-1.41207">
        <ele>23.8</ele>
        <time>2022-01-29T15:53:04Z</time>
      </trkpt>
      <trkpt lat="49.38855" lon="-1.41213">
        <ele>24.5</ele>
        <time>2022-01-29T15:53:20Z</time>
      </trkpt>
      <trkpt lat="49.38854" lon="-1.41221">
        <ele>24</ele>
        <time>2022-01-29T15:53:28Z</time>
      </trkpt>
      <trkpt lat="49.3885" lon="-1.41228">
        <ele>23.9</ele>
        <time>2022-01-29T15:53:31Z</time>
      </trkpt>
      <trkpt lat="49.38847" lon="-1.41236">
        <ele>24</ele>
        <time>2022-01-29T15:53:35Z</time>
      </trkpt>
      <trkpt lat="49.38844" lon="-1.41242">
        <ele>23.9</ele>
        <time>2022-01-29T15:53:38Z</time>
      </trkpt>
      <trkpt lat="49.38842" lon="-1.41249">
        <ele>23.9</ele>
        <time>2022-01-29T15:53:42Z</time>
      </trkpt>
      <trkpt lat="49.3884" lon="-1.41256">
        <ele>22.9</ele>
        <time>2022-01-29T15:53:46Z</time>
      </trkpt>
      <trkpt lat="49.38837" lon="-1.41263">
        <ele>22.1</ele>
        <time>2022-01-29T15:54:08Z</time>
      </trkpt>
      <trkpt lat="49.38834" lon="-1.4127">
        <ele>22.1</ele>
        <time>2022-01-29T15:54:11Z</time>
      </trkpt>
      <trkpt lat="49.38833" lon="-1.41277">
        <ele>22</ele>
        <time>2022-01-29T15:54:15Z</time>
      </trkpt>
      <trkpt lat="49.38831" lon="-1.41284">
        <ele>23.1</ele>
        <time>2022-01-29T15:54:22Z</time>
      </trkpt>
      <trkpt lat="49.38829" lon="-1.4129">
        <ele>24.8</ele>
        <time>2022-01-29T15:54:33Z</time>
      </trkpt>
      <trkpt lat="49.38828" lon="-1.41297">
        <ele>25.2</ele>
        <time>2022-01-29T15:54:36Z</time>
      </trkpt>
      <trkpt lat="49.38826" lon="-1.41306">
        <ele>25.8</ele>
        <time>2022-01-29T15:54:39Z</time>
      </trkpt>
      <trkpt lat="49.38823" lon="-1.41312">
        <ele>26.2</ele>
        <time>2022-01-29T15:54:43Z</time>
      </trkpt>
      <trkpt lat="49.38822" lon="-1.4132">
        <ele>26.4</ele>
        <time>2022-01-29T15:54:47Z</time>
      </trkpt>
      <trkpt lat="49.38821" lon="-1.41327">
        <ele>26.2</ele>
        <time>2022-01-29T15:54:50Z</time>
      </trkpt>
      <trkpt lat="49.38818" lon="-1.41333">
        <ele>25.5</ele>
        <time>2022-01-29T15:54:55Z</time>
      </trkpt>
      <trkpt lat="49.38814" lon="-1.41339">
        <ele>25.4</ele>
        <time>2022-01-29T15:55:00Z</time>
      </trkpt>
      <trkpt lat="49.38809" lon="-1.41347">
        <ele>25.7</ele>
        <time>2022-01-29T15:55:05Z</time>
      </trkpt>
      <trkpt lat="49.38805" lon="-1.41351">
        <ele>26.4</ele>
        <time>2022-01-29T15:55:10Z</time>
      </trkpt>
      <trkpt lat="49.388" lon="-1.41356">
        <ele>26.5</ele>
        <time>2022-01-29T15:55:18Z</time>
      </trkpt>
      <trkpt lat="49.38795" lon="-1.41361">
        <ele>27.4</ele>
        <time>2022-01-29T15:55:36Z</time>
      </trkpt>
      <trkpt lat="49.38788" lon="-1.41366">
        <ele>27.2</ele>
        <time>2022-01-29T15:55:40Z</time>
      </trkpt>
      <trkpt lat="49.38785" lon="-1.41371">
        <ele>27.2</ele>
        <time>2022-01-29T15:55:42Z</time>
      </trkpt>
      <trkpt lat="49.38779" lon="-1.41377">
        <ele>27.2</ele>
        <time>2022-01-29T15:55:45Z</time>
      </trkpt>
      <trkpt lat="49.38775" lon="-1.41382">
        <ele>27.2</ele>
        <time>2022-01-29T15:55:48Z</time>
      </trkpt>
      <trkpt lat="49.38768" lon="-1.41387">
        <ele>27.3</ele>
        <time>2022-01-29T15:55:50Z</time>
      </trkpt>
      <trkpt lat="49.38764" lon="-1.41389">
        <ele>26.6</ele>
        <time>2022-01-29T15:56:02Z</time>
      </trkpt>
      <trkpt lat="49.3876" lon="-1.41394">
        <ele>26.5</ele>
        <time>2022-01-29T15:56:05Z</time>
      </trkpt>
      <trkpt lat="49.38755" lon="-1.41399">
        <ele>26.3</ele>
        <time>2022-01-29T15:56:08Z</time>
      </trkpt>
      <trkpt lat="49.38748" lon="-1.41407">
        <ele>26.1</ele>
        <time>2022-01-29T15:56:13Z</time>
      </trkpt>
      <trkpt lat="49.38744" lon="-1.41411">
        <ele>26</ele>
        <time>2022-01-29T15:56:15Z</time>
      </trkpt>
      <trkpt lat="49.38738" lon="-1.41415">
        <ele>25.8</ele>
        <time>2022-01-29T15:56:18Z</time>
      </trkpt>
      <trkpt lat="49.38734" lon="-1.41419">
        <ele>25.6</ele>
        <time>2022-01-29T15:56:22Z</time>
      </trkpt>
      <trkpt lat="49.3873" lon="-1.41424">
        <ele>25.5</ele>
        <time>2022-01-29T15:56:25Z</time>
      </trkpt>
      <trkpt lat="49.38726" lon="-1.41428">
        <ele>25.5</ele>
        <time>2022-01-29T15:56:28Z</time>
      </trkpt>
      <trkpt lat="49.38722" lon="-1.41431">
        <ele>25.5</ele>
        <time>2022-01-29T15:56:32Z</time>
      </trkpt>
      <trkpt lat="49.38718" lon="-1.41434">
        <ele>25.6</ele>
        <time>2022-01-29T15:56:35Z</time>
      </trkpt>
      <trkpt lat="49.38714" lon="-1.41438">
        <ele>25.7</ele>
        <time>2022-01-29T15:56:38Z</time>
      </trkpt>
      <trkpt lat="49.38709" lon="-1.41441">
        <ele>25.8</ele>
        <time>2022-01-29T15:56:42Z</time>
      </trkpt>
      <trkpt lat="49.38704" lon="-1.41446">
        <ele>25.7</ele>
        <time>2022-01-29T15:56:47Z</time>
      </trkpt>
      <trkpt lat="49.38699" lon="-1.41452">
        <ele>25.3</ele>
        <time>2022-01-29T15:56:51Z</time>
      </trkpt>
      <trkpt lat="49.38693" lon="-1.41457">
        <ele>25.5</ele>
        <time>2022-01-29T15:56:55Z</time>
      </trkpt>
      <trkpt lat="49.38689" lon="-1.41461">
        <ele>25.8</ele>
        <time>2022-01-29T15:56:59Z</time>
      </trkpt>
      <trkpt lat="49.38684" lon="-1.41464">
        <ele>25.7</ele>
        <time>2022-01-29T15:57:03Z</time>
      </trkpt>
      <trkpt lat="49.3868" lon="-1.41467">
        <ele>25.4</ele>
        <time>2022-01-29T15:57:06Z</time>
      </trkpt>
      <trkpt lat="49.38675" lon="-1.41472">
        <ele>25</ele>
        <time>2022-01-29T15:57:11Z</time>
      </trkpt>
      <trkpt lat="49.3867" lon="-1.41475">
        <ele>24.8</ele>
        <time>2022-01-29T15:57:15Z</time>
      </trkpt>
      <trkpt lat="49.38664" lon="-1.41477">
        <ele>24.8</ele>
        <time>2022-01-29T15:57:19Z</time>
      </trkpt>
      <trkpt lat="49.38661" lon="-1.41482">
        <ele>24.5</ele>
        <time>2022-01-29T15:57:22Z</time>
      </trkpt>
      <trkpt lat="49.38657" lon="-1.41487">
        <ele>24.4</ele>
        <time>2022-01-29T15:57:25Z</time>
      </trkpt>
      <trkpt lat="49.38653" lon="-1.41492">
        <ele>24.4</ele>
        <time>2022-01-29T15:57:29Z</time>
      </trkpt>
      <trkpt lat="49.3865" lon="-1.41499">
        <ele>24.3</ele>
        <time>2022-01-29T15:57:33Z</time>
      </trkpt>
      <trkpt lat="49.38647" lon="-1.41506">
        <ele>24.2</ele>
        <time>2022-01-29T15:57:37Z</time>
      </trkpt>
      <trkpt lat="49.38643" lon="-1.41511">
        <ele>24.2</ele>
        <time>2022-01-29T15:57:40Z</time>
      </trkpt>
      <trkpt lat="49.38639" lon="-1.41515">
        <ele>24.3</ele>
        <time>2022-01-29T15:57:44Z</time>
      </trkpt>
      <trkpt lat="49.38634" lon="-1.4152">
        <ele>24.3</ele>
        <time>2022-01-29T15:57:48Z</time>
      </trkpt>
      <trkpt lat="49.3863" lon="-1.41525">
        <ele>24.3</ele>
        <time>2022-01-29T15:57:52Z</time>
      </trkpt>
      <trkpt lat="49.38627" lon="-1.41531">
        <ele>24.6</ele>
        <time>2022-01-29T15:57:56Z</time>
      </trkpt>
      <trkpt lat="49.38621" lon="-1.41533">
        <ele>23.9</ele>
        <time>2022-01-29T15:58:11Z</time>
      </trkpt>
      <trkpt lat="49.38615" lon="-1.41533">
        <ele>23.5</ele>
        <time>2022-01-29T15:58:16Z</time>
      </trkpt>
      <trkpt lat="49.38609" lon="-1.41531">
        <ele>23.2</ele>
        <time>2022-01-29T15:58:20Z</time>
      </trkpt>
      <trkpt lat="49.38604" lon="-1.41528">
        <ele>23.1</ele>
        <time>2022-01-29T15:58:25Z</time>
      </trkpt>
      <trkpt lat="49.38599" lon="-1.41525">
        <ele>23.1</ele>
        <time>2022-01-29T15:58:29Z</time>
      </trkpt>
      <trkpt lat="49.38597" lon="-1.41519">
        <ele>23.6</ele>
        <time>2022-01-29T15:58:32Z</time>
      </trkpt>
      <trkpt lat="49.38592" lon="-1.41517">
        <ele>24.1</ele>
        <time>2022-01-29T15:58:35Z</time>
      </trkpt>
      <trkpt lat="49.38587" lon="-1.41517">
        <ele>24.2</ele>
        <time>2022-01-29T15:58:38Z</time>
      </trkpt>
      <trkpt lat="49.38582" lon="-1.41515">
        <ele>23.7</ele>
        <time>2022-01-29T15:58:41Z</time>
      </trkpt>
      <trkpt lat="49.38578" lon="-1.4151">
        <ele>23.5</ele>
        <time>2022-01-29T15:58:51Z</time>
      </trkpt>
      <trkpt lat="49.38573" lon="-1.41507">
        <ele>23.3</ele>
        <time>2022-01-29T15:58:58Z</time>
      </trkpt>
      <trkpt lat="49.38568" lon="-1.41507">
        <ele>23.2</ele>
        <time>2022-01-29T15:59:00Z</time>
      </trkpt>
      <trkpt lat="49.38562" lon="-1.41505">
        <ele>23.2</ele>
        <time>2022-01-29T15:59:04Z</time>
      </trkpt>
      <trkpt lat="49.38558" lon="-1.41503">
        <ele>23.2</ele>
        <time>2022-01-29T15:59:07Z</time>
      </trkpt>
      <trkpt lat="49.38553" lon="-1.41503">
        <ele>23.1</ele>
        <time>2022-01-29T15:59:11Z</time>
      </trkpt>
      <trkpt lat="49.38549" lon="-1.41498">
        <ele>22.9</ele>
        <time>2022-01-29T15:59:16Z</time>
      </trkpt>
      <trkpt lat="49.38545" lon="-1.41493">
        <ele>22.7</ele>
        <time>2022-01-29T15:59:19Z</time>
      </trkpt>
      <trkpt lat="49.3854" lon="-1.41488">
        <ele>22.7</ele>
        <time>2022-01-29T15:59:23Z</time>
      </trkpt>
      <trkpt lat="49.38537" lon="-1.41482">
        <ele>22.6</ele>
        <time>2022-01-29T15:59:27Z</time>
      </trkpt>
      <trkpt lat="49.38532" lon="-1.41479">
        <ele>22.9</ele>
        <time>2022-01-29T15:59:32Z</time>
      </trkpt>
      <trkpt lat="49.38528" lon="-1.41474">
        <ele>23.1</ele>
        <time>2022-01-29T15:59:35Z</time>
      </trkpt>
      <trkpt lat="49.38523" lon="-1.41468">
        <ele>23.3</ele>
        <time>2022-01-29T15:59:39Z</time>
      </trkpt>
      <trkpt lat="49.3852" lon="-1.41462">
        <ele>23.3</ele>
        <time>2022-01-29T15:59:43Z</time>
      </trkpt>
      <trkpt lat="49.38517" lon="-1.41456">
        <ele>23.4</ele>
        <time>2022-01-29T15:59:46Z</time>
      </trkpt>
      <trkpt lat="49.38513" lon="-1.41452">
        <ele>23.5</ele>
        <time>2022-01-29T15:59:51Z</time>
      </trkpt>
      <trkpt lat="49.38508" lon="-1.41457">
        <ele>23.4</ele>
        <time>2022-01-29T15:59:55Z</time>
      </trkpt>
      <trkpt lat="49.38506" lon="-1.41463">
        <ele>23.3</ele>
        <time>2022-01-29T15:59:57Z</time>
      </trkpt>
      <trkpt lat="49.38504" lon="-1.41471">
        <ele>23.1</ele>
        <time>2022-01-29T16:00:00Z</time>
      </trkpt>
      <trkpt lat="49.38503" lon="-1.41479">
        <ele>23</ele>
        <time>2022-01-29T16:00:03Z</time>
      </trkpt>
      <trkpt lat="49.38503" lon="-1.41487">
        <ele>22.8</ele>
        <time>2022-01-29T16:00:06Z</time>
      </trkpt>
      <trkpt lat="49.38502" lon="-1.41494">
        <ele>22.6</ele>
        <time>2022-01-29T16:00:09Z</time>
      </trkpt>
      <trkpt lat="49.38501" lon="-1.41502">
        <ele>22.3</ele>
        <time>2022-01-29T16:00:13Z</time>
      </trkpt>
      <trkpt lat="49.385" lon="-1.41509">
        <ele>22.2</ele>
        <time>2022-01-29T16:00:16Z</time>
      </trkpt>
      <trkpt lat="49.38499" lon="-1.41517">
        <ele>22.2</ele>
        <time>2022-01-29T16:00:20Z</time>
      </trkpt>
      <trkpt lat="49.38498" lon="-1.41524">
        <ele>22.4</ele>
        <time>2022-01-29T16:00:23Z</time>
      </trkpt>
      <trkpt lat="49.38497" lon="-1.41531">
        <ele>22.6</ele>
        <time>2022-01-29T16:00:26Z</time>
      </trkpt>
      <trkpt lat="49.38496" lon="-1.41538">
        <ele>22.7</ele>
        <time>2022-01-29T16:00:30Z</time>
      </trkpt>
      <trkpt lat="49.38495" lon="-1.41545">
        <ele>22.7</ele>
        <time>2022-01-29T16:00:33Z</time>
      </trkpt>
      <trkpt lat="49.38493" lon="-1.41552">
        <ele>22.6</ele>
        <time>2022-01-29T16:00:37Z</time>
      </trkpt>
      <trkpt lat="49.38492" lon="-1.4156">
        <ele>22.3</ele>
        <time>2022-01-29T16:00:41Z</time>
      </trkpt>
      <trkpt lat="49.38489" lon="-1.41568">
        <ele>21.9</ele>
        <time>2022-01-29T16:00:46Z</time>
      </trkpt>
      <trkpt lat="49.38488" lon="-1.41576">
        <ele>21.3</ele>
        <time>2022-01-29T16:00:50Z</time>
      </trkpt>
      <trkpt lat="49.38484" lon="-1.41583">
        <ele>20.9</ele>
        <time>2022-01-29T16:00:55Z</time>
      </trkpt>
      <trkpt lat="49.38482" lon="-1.41589">
        <ele>20.5</ele>
        <time>2022-01-29T16:00:59Z</time>
      </trkpt>
      <trkpt lat="49.38481" lon="-1.41596">
        <ele>20.3</ele>
        <time>2022-01-29T16:01:02Z</time>
      </trkpt>
      <trkpt lat="49.3848" lon="-1.41604">
        <ele>19.9</ele>
        <time>2022-01-29T16:01:07Z</time>
      </trkpt>
      <trkpt lat="49.38477" lon="-1.41611">
        <ele>19.5</ele>
        <time>2022-01-29T16:01:11Z</time>
      </trkpt>
      <trkpt lat="49.38475" lon="-1.41619">
        <ele>19</ele>
        <time>2022-01-29T16:01:15Z</time>
      </trkpt>
      <trkpt lat="49.38473" lon="-1.41626">
        <ele>18.7</ele>
        <time>2022-01-29T16:01:18Z</time>
      </trkpt>
      <trkpt lat="49.38468" lon="-1.41635">
        <ele>18.5</ele>
        <time>2022-01-29T16:01:23Z</time>
      </trkpt>
      <trkpt lat="49.38466" lon="-1.41643">
        <ele>18.5</ele>
        <time>2022-01-29T16:01:27Z</time>
      </trkpt>
      <trkpt lat="49.38464" lon="-1.41649">
        <ele>18.6</ele>
        <time>2022-01-29T16:01:31Z</time>
      </trkpt>
      <trkpt lat="49.38462" lon="-1.41656">
        <ele>18.7</ele>
        <time>2022-01-29T16:01:34Z</time>
      </trkpt>
      <trkpt lat="49.3846" lon="-1.41664">
        <ele>19.3</ele>
        <time>2022-01-29T16:01:39Z</time>
      </trkpt>
      <trkpt lat="49.38458" lon="-1.41672">
        <ele>19.6</ele>
        <time>2022-01-29T16:01:43Z</time>
      </trkpt>
      <trkpt lat="49.38456" lon="-1.4168">
        <ele>19.5</ele>
        <time>2022-01-29T16:01:47Z</time>
      </trkpt>
      <trkpt lat="49.38452" lon="-1.41686">
        <ele>19.6</ele>
        <time>2022-01-29T16:01:50Z</time>
      </trkpt>
      <trkpt lat="49.38449" lon="-1.41693">
        <ele>19.7</ele>
        <time>2022-01-29T16:01:54Z</time>
      </trkpt>
      <trkpt lat="49.38447" lon="-1.41698">
        <ele>19.8</ele>
        <time>2022-01-29T16:01:58Z</time>
      </trkpt>
      <trkpt lat="49.38443" lon="-1.41703">
        <ele>19.9</ele>
        <time>2022-01-29T16:02:01Z</time>
      </trkpt>
      <trkpt lat="49.3844" lon="-1.41709">
        <ele>19.9</ele>
        <time>2022-01-29T16:02:05Z</time>
      </trkpt>
      <trkpt lat="49.38436" lon="-1.41714">
        <ele>19.9</ele>
        <time>2022-01-29T16:02:09Z</time>
      </trkpt>
      <trkpt lat="49.38432" lon="-1.41722">
        <ele>20.2</ele>
        <time>2022-01-29T16:02:14Z</time>
      </trkpt>
      <trkpt lat="49.38427" lon="-1.41727">
        <ele>20.7</ele>
        <time>2022-01-29T16:02:19Z</time>
      </trkpt>
      <trkpt lat="49.38423" lon="-1.41734">
        <ele>20.8</ele>
        <time>2022-01-29T16:02:24Z</time>
      </trkpt>
      <trkpt lat="49.38419" lon="-1.4174">
        <ele>20.5</ele>
        <time>2022-01-29T16:02:28Z</time>
      </trkpt>
      <trkpt lat="49.38416" lon="-1.41745">
        <ele>20.2</ele>
        <time>2022-01-29T16:02:31Z</time>
      </trkpt>
      <trkpt lat="49.38412" lon="-1.41751">
        <ele>19.5</ele>
        <time>2022-01-29T16:02:34Z</time>
      </trkpt>
      <trkpt lat="49.38408" lon="-1.41757">
        <ele>19.1</ele>
        <time>2022-01-29T16:02:39Z</time>
      </trkpt>
      <trkpt lat="49.38403" lon="-1.4176">
        <ele>19.2</ele>
        <time>2022-01-29T16:02:43Z</time>
      </trkpt>
      <trkpt lat="49.38399" lon="-1.41765">
        <ele>19.4</ele>
        <time>2022-01-29T16:02:47Z</time>
      </trkpt>
      <trkpt lat="49.38398" lon="-1.41773">
        <ele>19.5</ele>
        <time>2022-01-29T16:02:50Z</time>
      </trkpt>
      <trkpt lat="49.38396" lon="-1.4178">
        <ele>19.6</ele>
        <time>2022-01-29T16:02:53Z</time>
      </trkpt>
      <trkpt lat="49.38393" lon="-1.41786">
        <ele>19.6</ele>
        <time>2022-01-29T16:02:57Z</time>
      </trkpt>
      <trkpt lat="49.38392" lon="-1.41794">
        <ele>19.5</ele>
        <time>2022-01-29T16:03:01Z</time>
      </trkpt>
      <trkpt lat="49.38389" lon="-1.418">
        <ele>19.2</ele>
        <time>2022-01-29T16:03:04Z</time>
      </trkpt>
      <trkpt lat="49.38385" lon="-1.41806">
        <ele>18.6</ele>
        <time>2022-01-29T16:03:09Z</time>
      </trkpt>
      <trkpt lat="49.38382" lon="-1.41812">
        <ele>18.4</ele>
        <time>2022-01-29T16:03:13Z</time>
      </trkpt>
      <trkpt lat="49.38379" lon="-1.41818">
        <ele>19.3</ele>
        <time>2022-01-29T16:03:22Z</time>
      </trkpt>
      <trkpt lat="49.38376" lon="-1.41825">
        <ele>19.4</ele>
        <time>2022-01-29T16:03:31Z</time>
      </trkpt>
      <trkpt lat="49.3837" lon="-1.41829">
        <ele>19.3</ele>
        <time>2022-01-29T16:03:34Z</time>
      </trkpt>
      <trkpt lat="49.38365" lon="-1.41835">
        <ele>19.1</ele>
        <time>2022-01-29T16:03:37Z</time>
      </trkpt>
      <trkpt lat="49.3836" lon="-1.4184">
        <ele>18.8</ele>
        <time>2022-01-29T16:03:41Z</time>
      </trkpt>
      <trkpt lat="49.38356" lon="-1.41845">
        <ele>18.4</ele>
        <time>2022-01-29T16:03:44Z</time>
      </trkpt>
      <trkpt lat="49.38351" lon="-1.4185">
        <ele>17.9</ele>
        <time>2022-01-29T16:03:48Z</time>
      </trkpt>
      <trkpt lat="49.38346" lon="-1.41855">
        <ele>17.7</ele>
        <time>2022-01-29T16:03:55Z</time>
      </trkpt>
      <trkpt lat="49.38343" lon="-1.41862">
        <ele>17.8</ele>
        <time>2022-01-29T16:03:58Z</time>
      </trkpt>
      <trkpt lat="49.38341" lon="-1.41869">
        <ele>17.8</ele>
        <time>2022-01-29T16:04:00Z</time>
      </trkpt>
      <trkpt lat="49.38339" lon="-1.41876">
        <ele>17.9</ele>
        <time>2022-01-29T16:04:02Z</time>
      </trkpt>
      <trkpt lat="49.38338" lon="-1.41883">
        <ele>18.2</ele>
        <time>2022-01-29T16:04:05Z</time>
      </trkpt>
      <trkpt lat="49.38338" lon="-1.41891">
        <ele>19.1</ele>
        <time>2022-01-29T16:04:10Z</time>
      </trkpt>
      <trkpt lat="49.38337" lon="-1.41899">
        <ele>19.5</ele>
        <time>2022-01-29T16:04:15Z</time>
      </trkpt>
      <trkpt lat="49.38337" lon="-1.41906">
        <ele>19.4</ele>
        <time>2022-01-29T16:04:23Z</time>
      </trkpt>
      <trkpt lat="49.38336" lon="-1.41917">
        <ele>19.3</ele>
        <time>2022-01-29T16:04:28Z</time>
      </trkpt>
      <trkpt lat="49.38334" lon="-1.41923">
        <ele>18.9</ele>
        <time>2022-01-29T16:04:30Z</time>
      </trkpt>
      <trkpt lat="49.38332" lon="-1.41932">
        <ele>18.5</ele>
        <time>2022-01-29T16:04:35Z</time>
      </trkpt>
      <trkpt lat="49.38332" lon="-1.41942">
        <ele>18.8</ele>
        <time>2022-01-29T16:04:39Z</time>
      </trkpt>
      <trkpt lat="49.3833" lon="-1.41951">
        <ele>19.6</ele>
        <time>2022-01-29T16:04:43Z</time>
      </trkpt>
      <trkpt lat="49.38328" lon="-1.41958">
        <ele>20.2</ele>
        <time>2022-01-29T16:04:46Z</time>
      </trkpt>
      <trkpt lat="49.38327" lon="-1.41967">
        <ele>20.5</ele>
        <time>2022-01-29T16:04:50Z</time>
      </trkpt>
      <trkpt lat="49.38326" lon="-1.41974">
        <ele>20.7</ele>
        <time>2022-01-29T16:04:54Z</time>
      </trkpt>
      <trkpt lat="49.38324" lon="-1.41981">
        <ele>21</ele>
        <time>2022-01-29T16:04:58Z</time>
      </trkpt>
      <trkpt lat="49.38321" lon="-1.41991">
        <ele>20.9</ele>
        <time>2022-01-29T16:05:04Z</time>
      </trkpt>
      <trkpt lat="49.3832" lon="-1.41997">
        <ele>21.2</ele>
        <time>2022-01-29T16:05:14Z</time>
      </trkpt>
      <trkpt lat="49.38318" lon="-1.42005">
        <ele>20.8</ele>
        <time>2022-01-29T16:05:23Z</time>
      </trkpt>
      <trkpt lat="49.38315" lon="-1.42015">
        <ele>20.6</ele>
        <time>2022-01-29T16:05:26Z</time>
      </trkpt>
      <trkpt lat="49.38312" lon="-1.42023">
        <ele>20.4</ele>
        <time>2022-01-29T16:05:28Z</time>
      </trkpt>
      <trkpt lat="49.3831" lon="-1.4203">
        <ele>20.1</ele>
        <time>2022-01-29T16:05:30Z</time>
      </trkpt>
      <trkpt lat="49.3831" lon="-1.42037">
        <ele>19.9</ele>
        <time>2022-01-29T16:05:31Z</time>
      </trkpt>
      <trkpt lat="49.38309" lon="-1.42045">
        <ele>19.7</ele>
        <time>2022-01-29T16:05:33Z</time>
      </trkpt>
      <trkpt lat="49.38306" lon="-1.42054">
        <ele>19.5</ele>
        <time>2022-01-29T16:05:37Z</time>
      </trkpt>
      <trkpt lat="49.38304" lon="-1.42062">
        <ele>19.8</ele>
        <time>2022-01-29T16:05:40Z</time>
      </trkpt>
      <trkpt lat="49.38302" lon="-1.4207">
        <ele>19.9</ele>
        <time>2022-01-29T16:05:44Z</time>
      </trkpt>
      <trkpt lat="49.38301" lon="-1.42077">
        <ele>19.7</ele>
        <time>2022-01-29T16:05:58Z</time>
      </trkpt>
      <trkpt lat="49.38299" lon="-1.42084">
        <ele>18.6</ele>
        <time>2022-01-29T16:06:07Z</time>
      </trkpt>
      <trkpt lat="49.38297" lon="-1.42092">
        <ele>18.2</ele>
        <time>2022-01-29T16:06:16Z</time>
      </trkpt>
      <trkpt lat="49.38295" lon="-1.42103">
        <ele>18</ele>
        <time>2022-01-29T16:06:19Z</time>
      </trkpt>
      <trkpt lat="49.38293" lon="-1.42111">
        <ele>17.8</ele>
        <time>2022-01-29T16:06:21Z</time>
      </trkpt>
      <trkpt lat="49.38283" lon="-1.42144">
        <ele>16.9</ele>
        <time>2022-01-29T16:06:29Z</time>
      </trkpt>
      <trkpt lat="49.3828" lon="-1.42149">
        <ele>16.8</ele>
        <time>2022-01-29T16:06:31Z</time>
      </trkpt>
      <trkpt lat="49.38257" lon="-1.42188">
        <ele>19</ele>
        <time>2022-01-29T16:06:50Z</time>
      </trkpt>
      <trkpt lat="49.38254" lon="-1.42193">
        <ele>19.2</ele>
        <time>2022-01-29T16:06:54Z</time>
      </trkpt>
      <trkpt lat="49.3825" lon="-1.42199">
        <ele>19.8</ele>
        <time>2022-01-29T16:06:57Z</time>
      </trkpt>
      <trkpt lat="49.38247" lon="-1.42206">
        <ele>20.1</ele>
        <time>2022-01-29T16:07:01Z</time>
      </trkpt>
      <trkpt lat="49.38244" lon="-1.42213">
        <ele>19.9</ele>
        <time>2022-01-29T16:07:05Z</time>
      </trkpt>
      <trkpt lat="49.38241" lon="-1.42221">
        <ele>19.6</ele>
        <time>2022-01-29T16:07:09Z</time>
      </trkpt>
      <trkpt lat="49.38239" lon="-1.42228">
        <ele>19.3</ele>
        <time>2022-01-29T16:07:12Z</time>
      </trkpt>
      <trkpt lat="49.38238" lon="-1.42238">
        <ele>19.1</ele>
        <time>2022-01-29T16:07:17Z</time>
      </trkpt>
      <trkpt lat="49.38237" lon="-1.42245">
        <ele>18.6</ele>
        <time>2022-01-29T16:07:21Z</time>
      </trkpt>
      <trkpt lat="49.38235" lon="-1.42253">
        <ele>18</ele>
        <time>2022-01-29T16:07:25Z</time>
      </trkpt>
      <trkpt lat="49.38235" lon="-1.42262">
        <ele>17.4</ele>
        <time>2022-01-29T16:07:30Z</time>
      </trkpt>
      <trkpt lat="49.38233" lon="-1.42269">
        <ele>16.7</ele>
        <time>2022-01-29T16:07:34Z</time>
      </trkpt>
      <trkpt lat="49.3823" lon="-1.42276">
        <ele>16.1</ele>
        <time>2022-01-29T16:07:39Z</time>
      </trkpt>
      <trkpt lat="49.38228" lon="-1.42282">
        <ele>16</ele>
        <time>2022-01-29T16:07:43Z</time>
      </trkpt>
      <trkpt lat="49.38227" lon="-1.42289">
        <ele>16.1</ele>
        <time>2022-01-29T16:07:46Z</time>
      </trkpt>
      <trkpt lat="49.38226" lon="-1.42297">
        <ele>16.2</ele>
        <time>2022-01-29T16:07:50Z</time>
      </trkpt>
      <trkpt lat="49.38225" lon="-1.42305">
        <ele>16.3</ele>
        <time>2022-01-29T16:07:53Z</time>
      </trkpt>
      <trkpt lat="49.38223" lon="-1.42314">
        <ele>16.4</ele>
        <time>2022-01-29T16:07:58Z</time>
      </trkpt>
      <trkpt lat="49.3822" lon="-1.42324">
        <ele>16.4</ele>
        <time>2022-01-29T16:08:02Z</time>
      </trkpt>
      <trkpt lat="49.38218" lon="-1.42331">
        <ele>16</ele>
        <time>2022-01-29T16:08:06Z</time>
      </trkpt>
      <trkpt lat="49.38215" lon="-1.42337">
        <ele>15.1</ele>
        <time>2022-01-29T16:08:11Z</time>
      </trkpt>
      <trkpt lat="49.38212" lon="-1.42342">
        <ele>14.7</ele>
        <time>2022-01-29T16:08:14Z</time>
      </trkpt>
      <trkpt lat="49.38209" lon="-1.42348">
        <ele>14.4</ele>
        <time>2022-01-29T16:08:17Z</time>
      </trkpt>
      <trkpt lat="49.38206" lon="-1.42356">
        <ele>13.9</ele>
        <time>2022-01-29T16:08:22Z</time>
      </trkpt>
      <trkpt lat="49.38202" lon="-1.42363">
        <ele>13.7</ele>
        <time>2022-01-29T16:08:28Z</time>
      </trkpt>
      <trkpt lat="49.38197" lon="-1.42369">
        <ele>13.8</ele>
        <time>2022-01-29T16:08:32Z</time>
      </trkpt>
      <trkpt lat="49.38193" lon="-1.42374">
        <ele>14.1</ele>
        <time>2022-01-29T16:08:37Z</time>
      </trkpt>
      <trkpt lat="49.38188" lon="-1.42376">
        <ele>14.1</ele>
        <time>2022-01-29T16:08:41Z</time>
      </trkpt>
      <trkpt lat="49.38184" lon="-1.42379">
        <ele>13.8</ele>
        <time>2022-01-29T16:08:45Z</time>
      </trkpt>
      <trkpt lat="49.38179" lon="-1.4238">
        <ele>13.7</ele>
        <time>2022-01-29T16:08:49Z</time>
      </trkpt>
      <trkpt lat="49.38174" lon="-1.42382">
        <ele>13.9</ele>
        <time>2022-01-29T16:08:53Z</time>
      </trkpt>
      <trkpt lat="49.38167" lon="-1.42381">
        <ele>14.2</ele>
        <time>2022-01-29T16:08:57Z</time>
      </trkpt>
      <trkpt lat="49.3816" lon="-1.42381">
        <ele>14.3</ele>
        <time>2022-01-29T16:09:03Z</time>
      </trkpt>
      <trkpt lat="49.38153" lon="-1.42381">
        <ele>14</ele>
        <time>2022-01-29T16:09:07Z</time>
      </trkpt>
      <trkpt lat="49.38147" lon="-1.42378">
        <ele>13.6</ele>
        <time>2022-01-29T16:09:13Z</time>
      </trkpt>
      <trkpt lat="49.3814" lon="-1.42378">
        <ele>13.3</ele>
        <time>2022-01-29T16:09:18Z</time>
      </trkpt>
      <trkpt lat="49.38135" lon="-1.42373">
        <ele>13.2</ele>
        <time>2022-01-29T16:09:23Z</time>
      </trkpt>
      <trkpt lat="49.38129" lon="-1.42369">
        <ele>13</ele>
        <time>2022-01-29T16:09:33Z</time>
      </trkpt>
      <trkpt lat="49.38123" lon="-1.4237">
        <ele>13</ele>
        <time>2022-01-29T16:09:37Z</time>
      </trkpt>
      <trkpt lat="49.38118" lon="-1.4237">
        <ele>13.1</ele>
        <time>2022-01-29T16:09:42Z</time>
      </trkpt>
      <trkpt lat="49.38113" lon="-1.42369">
        <ele>13.2</ele>
        <time>2022-01-29T16:09:45Z</time>
      </trkpt>
      <trkpt lat="49.38109" lon="-1.42367">
        <ele>13.3</ele>
        <time>2022-01-29T16:09:48Z</time>
      </trkpt>
      <trkpt lat="49.38103" lon="-1.42366">
        <ele>13.6</ele>
        <time>2022-01-29T16:09:53Z</time>
      </trkpt>
      <trkpt lat="49.38097" lon="-1.42367">
        <ele>14</ele>
        <time>2022-01-29T16:09:58Z</time>
      </trkpt>
      <trkpt lat="49.38091" lon="-1.42368">
        <ele>14.1</ele>
        <time>2022-01-29T16:10:02Z</time>
      </trkpt>
      <trkpt lat="49.38085" lon="-1.42368">
        <ele>14</ele>
        <time>2022-01-29T16:10:05Z</time>
      </trkpt>
      <trkpt lat="49.3808" lon="-1.42366">
        <ele>14.1</ele>
        <time>2022-01-29T16:10:09Z</time>
      </trkpt>
      <trkpt lat="49.38074" lon="-1.42364">
        <ele>14.1</ele>
        <time>2022-01-29T16:10:13Z</time>
      </trkpt>
      <trkpt lat="49.3807" lon="-1.42362">
        <ele>13.9</ele>
        <time>2022-01-29T16:10:16Z</time>
      </trkpt>
      <trkpt lat="49.38065" lon="-1.42362">
        <ele>13.6</ele>
        <time>2022-01-29T16:10:19Z</time>
      </trkpt>
      <trkpt lat="49.38059" lon="-1.42361">
        <ele>13.5</ele>
        <time>2022-01-29T16:10:23Z</time>
      </trkpt>
      <trkpt lat="49.38054" lon="-1.42362">
        <ele>13.4</ele>
        <time>2022-01-29T16:10:28Z</time>
      </trkpt>
      <trkpt lat="49.38049" lon="-1.42361">
        <ele>13.2</ele>
        <time>2022-01-29T16:10:33Z</time>
      </trkpt>
      <trkpt lat="49.38043" lon="-1.42359">
        <ele>12.9</ele>
        <time>2022-01-29T16:10:38Z</time>
      </trkpt>
      <trkpt lat="49.38038" lon="-1.42358">
        <ele>12.9</ele>
        <time>2022-01-29T16:10:41Z</time>
      </trkpt>
      <trkpt lat="49.38033" lon="-1.42358">
        <ele>13.1</ele>
        <time>2022-01-29T16:10:45Z</time>
      </trkpt>
      <trkpt lat="49.38027" lon="-1.42357">
        <ele>13.1</ele>
        <time>2022-01-29T16:10:50Z</time>
      </trkpt>
      <trkpt lat="49.38023" lon="-1.42353">
        <ele>12.9</ele>
        <time>2022-01-29T16:10:54Z</time>
      </trkpt>
      <trkpt lat="49.38018" lon="-1.42353">
        <ele>12.7</ele>
        <time>2022-01-29T16:10:57Z</time>
      </trkpt>
      <trkpt lat="49.38013" lon="-1.42352">
        <ele>12.4</ele>
        <time>2022-01-29T16:11:01Z</time>
      </trkpt>
      <trkpt lat="49.38009" lon="-1.42343">
        <ele>12.3</ele>
        <time>2022-01-29T16:11:07Z</time>
      </trkpt>
      <trkpt lat="49.38" lon="-1.4234">
        <ele>12.4</ele>
        <time>2022-01-29T16:11:12Z</time>
      </trkpt>
      <trkpt lat="49.37996" lon="-1.42343">
        <ele>12.2</ele>
        <time>2022-01-29T16:11:15Z</time>
      </trkpt>
      <trkpt lat="49.37991" lon="-1.42346">
        <ele>11.5</ele>
        <time>2022-01-29T16:11:18Z</time>
      </trkpt>
      <trkpt lat="49.37986" lon="-1.42349">
        <ele>10.7</ele>
        <time>2022-01-29T16:11:21Z</time>
      </trkpt>
      <trkpt lat="49.37982" lon="-1.42349">
        <ele>10.4</ele>
        <time>2022-01-29T16:11:25Z</time>
      </trkpt>
      <trkpt lat="49.37977" lon="-1.4235">
        <ele>10.5</ele>
        <time>2022-01-29T16:11:29Z</time>
      </trkpt>
      <trkpt lat="49.37972" lon="-1.42352">
        <ele>11.2</ele>
        <time>2022-01-29T16:11:32Z</time>
      </trkpt>
      <trkpt lat="49.37966" lon="-1.42355">
        <ele>12.2</ele>
        <time>2022-01-29T16:11:35Z</time>
      </trkpt>
      <trkpt lat="49.37962" lon="-1.42358">
        <ele>12.7</ele>
        <time>2022-01-29T16:11:38Z</time>
      </trkpt>
      <trkpt lat="49.37957" lon="-1.4236">
        <ele>13.4</ele>
        <time>2022-01-29T16:11:55Z</time>
      </trkpt>
      <trkpt lat="49.37953" lon="-1.42364">
        <ele>13.4</ele>
        <time>2022-01-29T16:11:58Z</time>
      </trkpt>
      <trkpt lat="49.37948" lon="-1.42367">
        <ele>13.6</ele>
        <time>2022-01-29T16:12:01Z</time>
      </trkpt>
      <trkpt lat="49.37944" lon="-1.42369">
        <ele>13.2</ele>
        <time>2022-01-29T16:12:04Z</time>
      </trkpt>
      <trkpt lat="49.37939" lon="-1.42371">
        <ele>12.7</ele>
        <time>2022-01-29T16:12:07Z</time>
      </trkpt>
      <trkpt lat="49.37935" lon="-1.42373">
        <ele>12.5</ele>
        <time>2022-01-29T16:12:11Z</time>
      </trkpt>
      <trkpt lat="49.3793" lon="-1.42373">
        <ele>13.6</ele>
        <time>2022-01-29T16:12:15Z</time>
      </trkpt>
      <trkpt lat="49.37924" lon="-1.42373">
        <ele>14.3</ele>
        <time>2022-01-29T16:12:19Z</time>
      </trkpt>
      <trkpt lat="49.37919" lon="-1.42374">
        <ele>14.7</ele>
        <time>2022-01-29T16:12:22Z</time>
      </trkpt>
      <trkpt lat="49.37914" lon="-1.42377">
        <ele>14.7</ele>
        <time>2022-01-29T16:12:27Z</time>
      </trkpt>
      <trkpt lat="49.37909" lon="-1.42378">
        <ele>14.7</ele>
        <time>2022-01-29T16:12:30Z</time>
      </trkpt>
      <trkpt lat="49.37904" lon="-1.42381">
        <ele>14.7</ele>
        <time>2022-01-29T16:12:33Z</time>
      </trkpt>
      <trkpt lat="49.37899" lon="-1.42383">
        <ele>14.7</ele>
        <time>2022-01-29T16:12:37Z</time>
      </trkpt>
      <trkpt lat="49.37893" lon="-1.42385">
        <ele>15</ele>
        <time>2022-01-29T16:12:41Z</time>
      </trkpt>
      <trkpt lat="49.37888" lon="-1.42387">
        <ele>15.3</ele>
        <time>2022-01-29T16:12:45Z</time>
      </trkpt>
      <trkpt lat="49.37883" lon="-1.42388">
        <ele>15.3</ele>
        <time>2022-01-29T16:12:49Z</time>
      </trkpt>
      <trkpt lat="49.37878" lon="-1.42389">
        <ele>15.4</ele>
        <time>2022-01-29T16:12:52Z</time>
      </trkpt>
      <trkpt lat="49.37873" lon="-1.4239">
        <ele>15.3</ele>
        <time>2022-01-29T16:12:55Z</time>
      </trkpt>
      <trkpt lat="49.37867" lon="-1.42391">
        <ele>15.2</ele>
        <time>2022-01-29T16:12:59Z</time>
      </trkpt>
      <trkpt lat="49.37864" lon="-1.42385">
        <ele>15.2</ele>
        <time>2022-01-29T16:13:03Z</time>
      </trkpt>
      <trkpt lat="49.3786" lon="-1.4238">
        <ele>15.1</ele>
        <time>2022-01-29T16:13:08Z</time>
      </trkpt>
      <trkpt lat="49.3786" lon="-1.42371">
        <ele>14.4</ele>
        <time>2022-01-29T16:13:13Z</time>
      </trkpt>
      <trkpt lat="49.37864" lon="-1.42364">
        <ele>13.9</ele>
        <time>2022-01-29T16:13:16Z</time>
      </trkpt>
      <trkpt lat="49.37866" lon="-1.42358">
        <ele>13.4</ele>
        <time>2022-01-29T16:13:18Z</time>
      </trkpt>
      <trkpt lat="49.37867" lon="-1.42351">
        <ele>12.9</ele>
        <time>2022-01-29T16:13:22Z</time>
      </trkpt>
      <trkpt lat="49.37861" lon="-1.42348">
        <ele>12.2</ele>
        <time>2022-01-29T16:13:30Z</time>
      </trkpt>
      <trkpt lat="49.37859" lon="-1.42341">
        <ele>11.9</ele>
        <time>2022-01-29T16:13:34Z</time>
      </trkpt>
      <trkpt lat="49.3786" lon="-1.42334">
        <ele>12</ele>
        <time>2022-01-29T16:13:37Z</time>
      </trkpt>
      <trkpt lat="49.37863" lon="-1.42327">
        <ele>11.9</ele>
        <time>2022-01-29T16:13:40Z</time>
      </trkpt>
      <trkpt lat="49.37866" lon="-1.42319">
        <ele>11.8</ele>
        <time>2022-01-29T16:13:45Z</time>
      </trkpt>
      <trkpt lat="49.3787" lon="-1.42311">
        <ele>11.2</ele>
        <time>2022-01-29T16:13:50Z</time>
      </trkpt>
      <trkpt lat="49.3787" lon="-1.42303">
        <ele>10.5</ele>
        <time>2022-01-29T16:13:54Z</time>
      </trkpt>
      <trkpt lat="49.3787" lon="-1.42295">
        <ele>10.5</ele>
        <time>2022-01-29T16:13:58Z</time>
      </trkpt>
      <trkpt lat="49.37872" lon="-1.42286">
        <ele>10.8</ele>
        <time>2022-01-29T16:14:02Z</time>
      </trkpt>
      <trkpt lat="49.37877" lon="-1.42277">
        <ele>11.6</ele>
        <time>2022-01-29T16:14:08Z</time>
      </trkpt>
      <trkpt lat="49.3788" lon="-1.42271">
        <ele>12.5</ele>
        <time>2022-01-29T16:14:12Z</time>
      </trkpt>
      <trkpt lat="49.37881" lon="-1.42263">
        <ele>13</ele>
        <time>2022-01-29T16:14:15Z</time>
      </trkpt>
      <trkpt lat="49.37881" lon="-1.42231">
        <ele>13.2</ele>
        <time>2022-01-29T16:14:30Z</time>
      </trkpt>
      <trkpt lat="49.37879" lon="-1.42225">
        <ele>12.9</ele>
        <time>2022-01-29T16:14:33Z</time>
      </trkpt>
      <trkpt lat="49.37883" lon="-1.42219">
        <ele>12.4</ele>
        <time>2022-01-29T16:14:39Z</time>
      </trkpt>
      <trkpt lat="49.37885" lon="-1.42211">
        <ele>12.7</ele>
        <time>2022-01-29T16:14:43Z</time>
      </trkpt>
      <trkpt lat="49.37885" lon="-1.42203">
        <ele>12.3</ele>
        <time>2022-01-29T16:14:49Z</time>
      </trkpt>
      <trkpt lat="49.37887" lon="-1.42195">
        <ele>11.6</ele>
        <time>2022-01-29T16:14:53Z</time>
      </trkpt>
      <trkpt lat="49.37883" lon="-1.42187">
        <ele>11.3</ele>
        <time>2022-01-29T16:14:56Z</time>
      </trkpt>
      <trkpt lat="49.3788" lon="-1.42182">
        <ele>10.8</ele>
        <time>2022-01-29T16:14:59Z</time>
      </trkpt>
      <trkpt lat="49.37876" lon="-1.42151">
        <ele>12</ele>
        <time>2022-01-29T16:15:11Z</time>
      </trkpt>
      <trkpt lat="49.37876" lon="-1.42143">
        <ele>13.1</ele>
        <time>2022-01-29T16:15:14Z</time>
      </trkpt>
      <trkpt lat="49.37876" lon="-1.42134">
        <ele>14.1</ele>
        <time>2022-01-29T16:15:18Z</time>
      </trkpt>
      <trkpt lat="49.37874" lon="-1.42128">
        <ele>14.3</ele>
        <time>2022-01-29T16:15:23Z</time>
      </trkpt>
      <trkpt lat="49.37873" lon="-1.4212">
        <ele>13.8</ele>
        <time>2022-01-29T16:15:27Z</time>
      </trkpt>
      <trkpt lat="49.37871" lon="-1.42111">
        <ele>13</ele>
        <time>2022-01-29T16:15:31Z</time>
      </trkpt>
      <trkpt lat="49.37871" lon="-1.42104">
        <ele>12.9</ele>
        <time>2022-01-29T16:15:35Z</time>
      </trkpt>
      <trkpt lat="49.37874" lon="-1.42097">
        <ele>13.2</ele>
        <time>2022-01-29T16:15:40Z</time>
      </trkpt>
      <trkpt lat="49.37873" lon="-1.42088">
        <ele>15.1</ele>
        <time>2022-01-29T16:16:53Z</time>
      </trkpt>
      <trkpt lat="49.37867" lon="-1.42088">
        <ele>15</ele>
        <time>2022-01-29T16:16:56Z</time>
      </trkpt>
      <trkpt lat="49.3787" lon="-1.42094">
        <ele>15.5</ele>
        <time>2022-01-29T16:17:58Z</time>
      </trkpt>
      <trkpt lat="49.37865" lon="-1.4209">
        <ele>16.1</ele>
        <time>2022-01-29T16:18:14Z</time>
      </trkpt>
    </trkseg>
  </trk>
</gpx>